[[{"header":{"parameterUnit":"m.s-1","parameterCategory":1,"la1":30.6,"la2":29.2853,"lo1":-89.7004,"lo2":-87.6739,"dy":0.0162,"dx":0.0183,"nx":112,"ny":82,"refTime":"2023-05-15T12:00:00:Z","depth":0,"parameterNumber":2,"parameterNumberName":"U-component_of_WINDS"},"data":[0.0,0.0,0.0,0.0,0.0,0.0,0.0,0.0,0.0,0.0,0.0,0.0,0.0,0.0,0.0,0.0,0.0,0.0,0.0,0.0,0.0,0.0,0.0,0.0,0.0,0.0,0.0,0.0,0.0,0.0,0.0,0.0,0.0,0.0,0.0,0.0,0.0,0.0,0.0,0.0,0.0,0.0,0.0,0.0,0.0,0.0,0.0,0.0,0.0,0.0,0.0,0.0,0.0,0.0,0.0,0.0,0.0,0.0,0.0,0.0,0.0,0.0,0.0,0.0,0.0,0.0,0.0,0.0,0.0,0.0,0.0,0.0,0.0,0.0,0.0,0.0,0.0,0.0,0.0,0.0,0.0,0.0,0.0,0.0,0.0,0.0,0.0,0.0,0.0,0.0,-0.0352,-0.5189,-0.8463,-1.0456,-1.0824,-1.0773,-1.0905,-1.1292,0.0,0.0,0.0,0.0,0.0,0.0,0.0,0.0,0.0,0.0,0.0,0.0,0.0,0.0,0.0,0.0,0.0,0.0,0.0,0.0,0.0,0.0,0.0,0.0,0.0,0.0,0.0,0.0,0.0,0.0,0.0,0.0,0.0,0.0,0.0,0.0,0.0,0.0,0.0,0.0,0.0,0.0,0.0,0.0,0.0,0.0,0.0,0.0,0.0,0.0,0.0,0.0,0.0,0.0,0.0,0.0,0.0,0.0,0.0,0.0,0.0,0.0,0.0,0.0,0.0,0.0,0.0,0.0,0.0,0.0,0.0,0.0,0.0,0.0,0.0,0.0,0.0,0.0,0.0,0.0,0.0,0.0,0.0,0.0,0.0,0.0,0.0,0.0,0.0,0.0,0.0,0.0,0.0,0.0,0.0,0.0,0.0,0.0,0.0,0.0,0.0,0.0,0.0,0.0,-0.4857,-0.9673,-1.067,-1.1503,-1.2736,-1.231,-1.1873,-1.1481,0.0,0.0,0.0,0.0,0.0,0.0,0.0,0.0,0.0,0.0,0.0,0.0,0.0,0.0,0.0,0.0,0.0,0.0,0.0,0.0,0.0,0.0,0.0,0.0,0.0,0.0,0.0,0.0,0.0,0.0,0.0,0.0,0.0,0.0,0.0,0.0,0.0,0.0,0.0,0.0,0.0,0.0,0.0,0.0,0.0,0.0,0.0,0.0,0.0,0.0,0.0,0.0,0.0,0.0,0.0,0.0,0.0,0.0,0.0,0.0,0.0,0.0,0.0,0.0,0.0,0.0,0.0,0.0,0.0,0.0,0.0,0.0,0.0,0.0,0.0,0.0,0.0,0.0,0.0,0.0,0.0,0.0,0.0,0.0,0.0,0.0,0.0,0.0,0.0,0.0,0.0,0.0,0.0,0.0,0.0,0.0,0.0,0.0,0.0,0.0,0.0,0.0,0.0,-0.543,-0.8232,-1.0394,-1.1539,-1.2246,-1.2555,-1.2163,-1.1912,-1.1912,-1.1696,0.0,0.0,0.0,0.0,0.0,0.0,0.0,0.0,0.0,0.0,0.0,0.0,0.0,0.0,0.0,0.0,0.0,0.0,0.0,0.0,0.0,0.0,0.0,0.0,0.0,0.0,0.0,0.0,0.0,0.0,0.0,0.0,0.0,0.0,0.0,0.0,0.0,0.0,0.0,0.0,0.0,0.0,0.0,0.0,0.0,0.0,0.0,0.0,0.0,0.0,0.0,0.0,0.0,0.0,0.0,0.0,0.0,0.0,0.0,0.0,0.0,0.0,0.0,0.0,0.0,0.0,0.0,0.0,0.0,0.0,0.0,0.0,0.0,0.0,0.0,0.0,0.0,0.0,0.0,0.0,0.0,0.0,0.0,0.0,0.0,0.0,0.0,0.0,0.0,0.0,0.0,0.0,0.0,0.0,0.0,0.0,0.0,0.0,0.0,0.0,0.0,0.0,-0.8735,-1.0212,-1.0587,-1.1949,-1.2721,-1.2508,-1.2087,-1.2078,-1.255,-1.2259,0.0,0.0,0.0,0.0,0.0,0.0,0.0,0.0,0.0,0.0,0.0,0.0,0.0,0.0,0.0,0.0,0.0,0.0,0.0,0.0,0.0,0.0,0.0,0.0,0.0,0.0,0.0,0.0,0.0,0.0,0.0,0.0,0.0,0.0,0.0,0.0,0.0,0.0,0.0,0.0,0.0,0.0,0.0,0.0,0.0,0.0,0.0,0.0,0.0,0.0,0.0,0.0,0.0,0.0,0.0,0.0,0.0,0.0,0.0,0.0,0.0,0.0,0.0,0.0,0.0,0.0,0.0,0.0,0.0,0.0,0.0,0.0,0.0,0.0,0.0,0.0,0.0,0.0,0.0,0.0,0.0,0.0,0.0,0.0,0.0,0.0,0.0,0.0,0.0,0.0,0.0,0.0,0.0,0.0,0.0,0.0,0.0,0.0,0.0,0.0,0.0,0.0,-0.9007,-1.0161,-1.2022,-1.2283,-1.2804,-1.3878,-1.3237,-1.2987,-1.3375,-1.3056,0.0,0.0,0.0,0.0,0.0,0.0,0.0,0.0,0.0,0.0,0.0,0.0,0.0,0.0,0.0,0.0,0.0,0.0,0.0,0.0,0.0,0.0,0.0,0.0,0.0,0.0,0.0,0.0,0.0,0.0,0.0,0.0,0.0,0.0,0.0,0.0,0.0,0.0,0.0,0.0,0.0,0.0,0.0,0.0,0.0,0.0,0.0,0.0,0.0,0.0,0.0,0.0,0.0,0.0,0.0,0.0,0.0,0.0,0.0,0.0,0.0,0.0,0.0,0.0,0.0,0.0,0.0,0.0,0.0,0.0,0.0,0.0,0.0,0.0,0.0,0.0,0.0,0.0,0.0,0.0,0.0,0.0,0.0,0.0,0.0,0.0,0.0,0.0,0.0,0.0,0.0,0.0,0.0,0.0,0.0,0.0,0.0,0.0,0.0,0.0,0.0,0.0,-1.0129,-1.1202,0.0,-1.294,-1.3151,-1.3309,-1.3066,-1.2949,-1.3105,0.0,0.0,0.0,0.0,0.0,0.0,0.0,0.0,0.0,0.0,0.0,0.0,0.0,0.0,0.0,0.0,0.0,0.0,0.0,0.0,0.0,0.0,0.0,0.0,0.0,0.0,0.0,0.0,0.0,0.0,0.0,0.0,0.0,0.0,0.0,0.0,0.0,0.0,0.0,0.0,0.0,0.0,0.0,0.0,0.0,0.0,0.0,0.0,0.0,0.0,0.0,0.0,0.0,0.0,0.0,0.0,0.0,0.0,0.0,0.0,0.0,0.0,0.0,0.0,0.0,0.0,0.0,0.0,0.0,0.0,0.0,0.0,0.0,0.0,0.0,0.0,0.0,0.0,0.0,0.0,0.0,0.0,0.0,0.0,0.0,0.0,0.0,0.0,0.0,0.0,0.0,0.0,0.0,0.0,0.0,0.0,0.0,0.0,0.0,0.0,0.0,0.0,-0.9426,-1.0384,-1.1227,0.0,-1.2586,-1.2864,-1.2578,-1.2774,-1.2881,-1.2881,0.0,0.0,0.0,0.0,0.0,0.0,0.0,0.0,0.0,0.0,0.0,0.0,0.0,0.0,0.0,0.0,0.0,0.0,0.0,0.0,0.0,0.0,0.0,0.0,0.0,0.0,0.0,0.0,0.0,0.0,0.0,0.0,0.0,0.0,0.0,0.0,0.0,0.0,0.0,0.0,0.0,0.0,0.0,0.0,0.0,0.0,0.0,0.0,0.0,0.0,0.0,0.0,0.0,0.0,0.0,0.0,0.0,0.0,0.0,0.0,0.0,0.0,0.0,0.0,0.0,0.0,0.0,0.0,0.0,0.0,0.0,0.0,0.0,0.0,0.0,0.0,0.0,0.0,0.0,0.0,0.0,0.0,0.0,0.0,0.0,0.0,0.0,0.0,0.0,0.0,0.0,0.0,0.0,0.0,0.0,0.0,0.0,0.0,0.0,0.0,0.0,0.0,-0.9088,-0.9553,-0.9941,-1.0277,-1.1242,-1.1814,-1.1814,-1.2501,-1.2881,0.0,0.0,0.0,0.0,0.0,0.0,0.0,0.0,0.0,0.0,0.0,0.0,0.0,0.0,0.0,0.0,0.0,0.0,0.0,0.0,0.0,0.0,0.0,0.0,0.0,0.0,0.0,0.0,0.0,0.0,0.0,0.0,0.0,0.0,0.0,0.0,0.0,0.0,0.0,0.0,0.0,0.0,0.0,0.0,0.0,0.0,0.0,0.0,0.0,0.0,0.0,0.0,0.0,0.0,0.0,0.0,0.0,0.0,0.0,0.0,0.0,0.0,0.0,0.0,0.0,0.0,0.0,0.0,0.0,0.0,0.0,0.0,0.0,0.0,0.0,0.0,0.0,0.0,0.0,0.0,0.0,0.0,0.0,0.0,0.0,0.0,0.0,0.0,0.0,0.0,0.0,0.0,0.0,0.0,0.0,0.0,0.0,0.0,0.0,0.0,0.0,0.0,0.0,-1.0632,-1.0637,-1.1013,-1.24,-1.2557,-1.2559,-1.2559,-1.2774,-1.2881,-1.2881,0.0,0.0,0.0,0.0,0.0,0.0,0.0,0.0,0.0,0.0,0.0,0.0,0.0,0.0,0.0,0.0,0.0,0.0,0.0,0.0,0.0,0.0,0.0,0.0,0.0,0.0,0.0,0.0,0.0,0.0,0.0,0.0,0.0,0.0,0.0,0.0,0.0,0.0,0.0,0.0,0.0,0.0,0.0,0.0,0.0,0.0,0.0,0.0,0.0,0.0,0.0,0.0,0.0,0.0,0.0,0.0,0.0,0.0,0.0,0.0,0.0,0.0,0.0,0.0,0.0,0.0,0.0,0.0,0.0,0.0,0.0,0.0,0.0,0.0,0.0,0.0,0.0,0.0,0.0,0.0,0.0,0.0,0.0,0.0,0.0,0.0,0.0,0.0,0.0,0.0,0.0,0.0,0.0,0.0,0.0,0.0,0.0,0.0,0.0,0.0,0.0,0.0,-1.0656,-1.0799,-1.1209,-1.2328,-1.2445,-1.2452,-1.2452,-1.2715,-1.2881,-1.2881,0.0,0.0,0.0,0.0,0.0,0.0,0.0,0.0,0.0,0.0,0.0,0.0,0.0,0.0,0.0,0.0,0.0,0.0,0.0,0.0,0.0,0.0,0.0,0.0,0.0,0.0,0.0,0.0,0.0,0.0,0.0,0.0,0.0,0.0,0.0,0.0,0.0,0.0,0.0,0.0,0.0,0.0,0.0,0.0,0.0,0.0,0.0,0.0,0.0,0.0,0.0,0.0,0.0,0.0,0.0,0.0,0.0,0.0,0.0,0.0,0.0,0.0,0.0,0.0,0.0,0.0,0.0,0.0,0.0,0.0,0.0,0.0,0.0,0.0,0.0,0.0,0.0,0.0,0.0,0.0,0.0,0.0,0.0,0.0,0.0,0.0,0.0,0.0,0.0,0.0,0.0,0.0,0.0,0.0,0.0,0.0,0.0,0.0,0.0,0.0,0.0,0.0,-0.9814,-1.0312,-1.0712,-1.0813,-1.1366,-1.1715,-1.1814,-1.2403,-1.2832,-1.2881,0.0,0.0,0.0,0.0,0.0,0.0,0.0,0.0,0.0,0.0,0.0,0.0,0.0,0.0,0.0,0.0,0.0,0.0,0.0,0.0,0.0,0.0,0.0,0.0,0.0,0.0,0.0,0.0,0.0,0.0,0.0,0.0,0.0,0.0,0.0,0.0,0.0,0.0,0.0,0.0,0.0,0.0,0.0,0.0,0.0,0.0,0.0,0.0,0.0,0.0,0.0,0.0,0.0,0.0,0.0,0.0,0.0,0.0,0.0,0.0,-1.4971,0.0,0.0,0.0,0.0,0.0,0.0,0.0,0.0,0.0,0.0,0.0,0.0,0.0,0.0,0.0,0.0,0.0,0.0,0.0,0.0,0.0,0.0,0.0,0.0,0.0,0.0,0.0,0.0,0.0,0.0,0.0,0.0,0.0,0.0,0.0,0.0,0.0,0.0,0.0,0.0,0.0,-0.971,-0.9917,-1.0218,-1.0762,-1.0914,-1.1216,-1.1765,-1.1922,-1.2286,-1.2871,-1.2344,0.0,0.0,0.0,0.0,0.0,0.0,0.0,0.0,0.0,0.0,0.0,0.0,0.0,0.0,0.0,0.0,0.0,0.0,0.0,0.0,0.0,0.0,0.0,0.0,0.0,0.0,0.0,0.0,0.0,0.0,0.0,0.0,0.0,0.0,0.0,0.0,0.0,0.0,0.0,0.0,0.0,0.0,0.0,0.0,0.0,0.0,0.0,0.0,0.0,0.0,0.0,0.0,0.0,0.0,0.0,0.0,0.0,0.0,0.0,0.0,-1.4318,0.0,0.0,0.0,0.0,0.0,0.0,0.0,0.0,0.0,0.0,0.0,0.0,0.0,0.0,0.0,0.0,0.0,0.0,0.0,0.0,0.0,0.0,0.0,0.0,0.0,0.0,0.0,0.0,0.0,0.0,0.0,0.0,0.0,0.0,0.0,0.0,0.0,0.0,0.0,0.0,-1.0269,-1.088,-1.1443,-1.1792,-1.1792,-1.194,-1.2295,-1.1972,-1.2129,-1.2832,-1.2187,0.0,0.0,0.0,0.0,0.0,0.0,0.0,0.0,0.0,0.0,0.0,0.0,0.0,0.0,0.0,0.0,0.0,0.0,0.0,0.0,0.0,0.0,0.0,0.0,0.0,0.0,0.0,0.0,0.0,0.0,0.0,0.0,0.0,0.0,0.0,0.0,0.0,0.0,0.0,0.0,0.0,0.0,0.0,0.0,0.0,0.0,0.0,0.0,0.0,0.0,0.0,0.0,0.0,0.0,-1.6609,-1.6522,-1.6622,-1.6609,-1.6423,-1.5344,-1.488,-1.4789,0.0,0.0,0.0,0.0,0.0,0.0,0.0,0.0,0.0,0.0,0.0,0.0,0.0,0.0,0.0,0.0,0.0,0.0,0.0,0.0,0.0,0.0,0.0,0.0,0.0,-0.7456,-0.7883,0.0,0.0,0.0,0.0,0.0,0.0,0.0,0.0,0.0,0.0,0.0,0.0,-1.0618,-1.1742,-1.2471,-1.2363,-1.2461,-1.252,-1.252,-1.208,-1.2129,-1.2832,-1.2187,-1.1765,0.0,0.0,0.0,0.0,0.0,0.0,0.0,0.0,0.0,0.0,0.0,0.0,0.0,0.0,0.0,0.0,0.0,0.0,0.0,0.0,0.0,0.0,0.0,0.0,0.0,0.0,0.0,0.0,0.0,0.0,0.0,0.0,-2.2447,-2.3209,0.0,0.0,0.0,0.0,0.0,0.0,0.0,0.0,0.0,0.0,0.0,0.0,0.0,0.0,-1.7188,-1.6795,-1.6552,-1.6522,-1.7024,-1.6999,-1.6534,-1.7036,-1.6999,-1.6479,-1.5776,0.0,-1.541,-1.4744,0.0,0.0,0.0,0.0,0.0,0.0,0.0,0.0,0.0,0.0,0.0,0.0,0.0,0.0,0.0,0.0,0.0,0.0,0.0,0.0,0.0,0.0,-0.8646,-0.8533,-0.8593,-0.8646,0.0,-0.8103,-0.7563,-0.767,0.0,0.0,0.0,0.0,0.0,0.0,0.0,0.0,-0.9909,-1.0618,-1.0872,-1.0269,-1.0728,-1.1074,-1.1074,-1.1516,-1.2129,-1.2832,-1.2187,-1.1566,-1.0965,-1.0364,0.0,0.0,0.0,0.0,0.0,0.0,0.0,0.0,0.0,0.0,0.0,0.0,0.0,0.0,0.0,0.0,0.0,0.0,0.0,0.0,0.0,0.0,0.0,0.0,0.0,0.0,0.0,0.0,0.0,-2.3602,-2.3006,-2.333,-2.2626,-2.1753,0.0,0.0,0.0,0.0,0.0,0.0,0.0,0.0,0.0,-1.8893,-1.8145,-1.7585,-1.7312,-1.7401,-1.7281,-1.7011,-1.7576,-1.7551,-1.7011,-1.7262,-1.7061,-1.6479,-1.6238,-1.6095,-1.6008,-1.4732,-1.3406,-1.219,0.0,0.0,0.0,0.0,0.0,-1.0415,-1.0712,0.0,0.0,0.0,0.0,0.0,0.0,0.0,0.0,0.0,0.0,0.0,0.0,0.0,0.0,-0.8804,-0.8804,-0.8804,-0.8804,-0.8533,-0.8315,0.0,-0.8586,-0.8804,-0.8804,0.0,0.0,0.0,0.0,0.0,-0.9814,-1.0364,-1.0669,-1.0415,-1.0618,-1.0813,-1.0813,-1.1065,-1.1525,-1.2236,-1.1972,-1.1665,-1.1366,-1.0712,-1.0064,0.0,0.0,0.0,0.0,0.0,0.0,0.0,0.0,0.0,0.0,0.0,0.0,0.0,0.0,0.0,0.0,0.0,0.0,0.0,0.0,0.0,0.0,0.0,0.0,0.0,0.0,0.0,0.0,-2.3404,-2.273,-2.3226,-2.2452,-2.1685,0.0,0.0,0.0,0.0,0.0,0.0,-1.9839,-1.9391,-1.9168,-1.9342,-1.8658,-1.8208,-1.7958,-1.8122,-1.8016,-1.7601,-1.8154,-1.8129,-1.7601,-1.7739,-1.7413,-1.6735,-1.6548,-1.633,-1.5932,-1.4606,-1.3464,-1.2492,-1.2218,-1.1674,-1.1065,-1.1275,-1.1225,-1.1065,-1.1275,-1.1216,-1.1065,-1.1065,0.0,-0.9651,-0.896,0.0,0.0,0.0,0.0,-0.8857,-0.9008,0.0,-0.9113,-0.9256,-0.9159,-0.9061,-0.9061,-0.891,-0.8804,0.0,-0.8804,-0.8804,-0.8804,0.0,0.0,0.0,0.0,-0.9814,-0.9814,-1.0364,-1.0712,-1.0568,-1.0712,-1.0712,-1.0568,-1.0712,-1.1015,-1.1516,-1.1566,-1.1466,-1.1316,-1.0813,-1.0218,-0.9562,0.0,0.0,0.0,0.0,0.0,0.0,0.0,0.0,0.0,0.0,0.0,0.0,0.0,0.0,0.0,0.0,0.0,0.0,0.0,0.0,0.0,0.0,0.0,0.0,0.0,0.0,0.0,0.0,0.0,-2.278,-2.2678,0.0,0.0,0.0,0.0,-2.0942,-2.0174,-1.9874,-2.0246,-1.9859,-1.9937,-2.0609,-1.9466,-1.914,-1.9761,-1.8741,-1.8213,-1.8179,-1.8719,-1.8694,-1.8179,-1.8706,-1.8355,-1.7338,-1.6672,-1.5776,-1.4789,-1.4698,-1.4606,-1.4422,-1.3286,-1.2403,-1.1814,-1.2559,-1.2353,-1.1873,-1.2559,-1.2344,-1.1765,-1.1765,-1.0864,-0.9658,-0.9008,-0.8752,0.0,0.0,-0.8752,-0.8962,-0.9562,-0.9769,-0.9909,-1.0568,-1.021,-0.9769,-0.9769,-0.9263,-0.8804,0.0,-0.8804,-0.8804,-0.8804,0.0,-0.8804,-0.8804,-0.9361,-0.9814,-0.9814,-1.0364,-1.0568,-0.9917,-1.0415,-1.0517,-0.9917,-1.0415,-1.0813,-1.0864,-1.0864,-1.0568,-0.9917,-0.9865,-0.951,-0.8857,-0.8804,0.0,0.0,0.0,0.0,0.0,0.0,0.0,0.0,0.0,0.0,0.0,0.0,0.0,0.0,0.0,0.0,0.0,0.0,0.0,0.0,0.0,0.0,0.0,0.0,0.0,0.0,0.0,0.0,-2.2695,-2.2537,0.0,-2.1642,-2.146,-2.1134,-2.0583,-2.0261,-2.0233,-2.0546,-2.0407,-2.0662,-2.1321,-2.0599,-2.0091,-1.9901,-1.9515,-1.914,-1.8744,-1.9271,-1.9246,-1.8744,-1.8883,-1.8618,-1.7903,-1.7656,-1.7345,-1.6892,-1.6103,-1.4884,-1.3478,-1.3065,-1.2725,-1.2559,-1.2774,-1.2715,-1.2559,-1.2822,-1.2715,-1.2452,-1.1972,-1.1466,-1.0965,-1.0312,-1.0064,-1.0012,-0.9562,-0.9465,-0.9413,-0.9211,-0.9159,-0.9211,-0.9465,-0.9309,-0.9159,-0.9159,-0.8962,-0.8804,-0.8804,-0.8804,-0.8804,-0.8804,-0.8804,-0.8804,-0.8804,-0.9008,-0.9159,-0.9159,-0.9361,-0.9413,-0.9159,-0.9361,-0.9413,-0.9159,-0.9762,-1.0167,-1.0167,-1.0568,-1.0517,-0.9814,-0.9814,-0.9465,-0.8804,-0.8804,-0.8804,0.0,0.0,0.0,0.0,0.0,0.0,0.0,0.0,0.0,0.0,0.0,0.0,0.0,0.0,0.0,0.0,0.0,0.0,0.0,0.0,0.0,0.0,0.0,0.0,0.0,0.0,-2.2463,-2.2563,-2.2398,-2.2281,-2.2202,-2.1929,-2.1649,-2.148,-2.1047,-2.092,-2.122,-2.1113,-2.135,-2.2009,-2.1265,-2.0739,-2.0509,-2.0112,-1.9705,-1.9296,-1.9635,-1.9623,-1.9284,-1.9284,-1.8995,-1.848,-1.8275,-1.8067,-1.7797,-1.6598,-1.5045,-1.3449,-1.325,-1.3055,-1.2881,-1.2881,-1.2881,-1.2881,-1.2881,-1.2881,-1.2774,-1.203,-1.1814,-1.1665,-1.1015,-1.0669,-1.0364,-0.9961,-0.9814,-0.9718,-0.9316,-0.9517,-0.9814,-0.9814,-0.9814,-0.9814,-0.9814,-0.9614,-0.9413,-0.9263,-0.9008,-0.8804,-0.8804,-0.8804,-0.8804,-0.8804,-0.8804,-0.8804,-0.8804,-0.8804,-0.8804,-0.8804,-0.8804,-0.8804,-0.8804,-0.9211,-0.9465,-0.9465,-1.0115,-1.0167,-0.951,-0.9666,-0.9465,-0.8804,-0.8804,-0.8804,-0.8804,0.0,0.0,0.0,0.0,0.0,0.0,0.0,0.0,0.0,0.0,0.0,0.0,0.0,0.0,0.0,0.0,0.0,0.0,0.0,0.0,0.0,0.0,0.0,-2.2446,-2.2561,-2.2668,-2.2389,-2.2378,-2.2649,-2.3359,-2.2621,-2.252,-2.3621,-2.2487,-2.1916,-2.2308,-2.197,-2.2024,-2.2724,-2.151,-2.1144,-2.1697,-2.0471,-1.985,-1.9798,-1.9798,-1.9798,-1.9798,-1.9798,-1.9522,-1.8995,-1.8408,-1.7843,-1.7266,-1.6049,-1.5207,-1.4556,-1.4005,-1.342,-1.2881,-1.2881,-1.2881,-1.2881,-1.2881,-1.2881,-1.2774,-1.208,-1.1814,-1.1715,-1.1065,-1.0415,-0.9917,-1.0012,-0.9969,-0.9865,-1.0012,-1.0914,-1.1765,-1.1765,-1.1765,-1.1765,-1.1765,-1.1216,-1.0618,-1.0064,-0.9361,-0.8804,-0.8811,-0.8811,-0.8811,-0.8804,-0.8804,0.0,-0.8804,-0.8804,-0.8804,-0.8804,-0.8804,-0.8804,-0.8804,-0.8804,-0.8804,-0.8804,-0.9413,-0.9458,-0.8804,-0.9413,-0.9465,-0.8804,-0.8804,-0.8804,-0.8804,0.0,0.0,0.0,0.0,0.0,0.0,0.0,0.0,0.0,0.0,0.0,0.0,0.0,0.0,0.0,0.0,0.0,0.0,0.0,0.0,0.0,0.0,-2.3396,-2.3457,-2.3773,-2.3969,-2.3913,-2.3883,-2.3951,-2.4201,-2.3969,-2.3815,-2.3836,-2.3138,-2.2833,-2.3072,-2.2652,-2.2697,-2.3325,-2.3009,-2.2478,-2.1697,-2.1363,-2.0706,-1.9798,-1.9798,-1.9798,-1.9798,-1.9798,-1.9723,-1.9585,-1.9419,-1.9019,-1.8437,-1.7278,-1.6201,-1.5141,-1.4185,-1.342,-1.2881,-1.2881,-1.2881,-1.2881,-1.2881,-1.2881,-1.2881,-1.2666,-1.2608,-1.2559,-1.2363,-1.2206,-1.195,-1.1475,-1.1266,-1.1166,-1.0712,-1.0813,-1.1065,-1.1065,-1.1065,-1.0965,-1.0568,-1.0364,-1.0064,-0.951,-0.9263,-0.9061,-0.8956,-0.8962,-0.891,-0.8804,0.0,0.0,-0.8804,-0.8804,-0.8804,-0.8804,-0.8804,-0.8804,-0.8804,-0.8804,-0.8804,-0.8804,-0.8956,-0.9008,-0.8811,-0.8956,-0.9008,-0.8804,-0.8804,-0.8804,0.0,0.0,0.0,0.0,0.0,0.0,0.0,0.0,0.0,0.0,0.0,0.0,0.0,0.0,0.0,0.0,0.0,0.0,0.0,0.0,0.0,0.0,-2.4374,-2.4944,-2.5466,-2.5193,-2.5067,-2.5372,-2.5406,-2.5524,-2.5845,-2.5698,-2.5394,-2.4958,-2.4431,-2.3928,-2.3519,-2.3251,-2.3236,-2.3595,-2.3363,-2.2711,-2.1697,-2.1424,-2.0818,-1.9798,-1.9798,-1.9798,-1.9798,-1.9798,-1.9798,0.0,-1.9798,-1.951,-1.8933,-1.8019,-1.6967,0.0,0.0,0.0,0.0,0.0,-1.2881,-1.2881,-1.2881,-1.2881,-1.2881,-1.2881,-1.2881,-1.2881,-1.2881,-1.2666,-1.2353,-1.2039,-1.1873,-1.1665,-1.1065,-1.1275,-1.1584,-1.1266,-1.1475,-1.1592,-1.1292,-1.104,-1.0685,-1.0131,0.0,0.0,-0.9211,-0.9106,-0.9008,-0.8804,-0.891,-0.891,0.0,-0.8857,-0.8857,-0.8811,-0.8804,-0.8804,-0.8804,-0.8804,0.0,0.0,0.0,-0.8804,-0.8804,-0.8804,0.0,0.0,0.0,-0.8804,0.0,0.0,0.0,0.0,-0.8804,-0.8646,0.0,0.0,0.0,0.0,0.0,0.0,0.0,0.0,0.0,0.0,0.0,0.0,0.0,0.0,0.0,0.0,-2.5845,-2.7012,-2.7908,-2.6945,-2.6319,-2.6877,-2.6962,-2.7215,-2.7892,-2.7584,-2.7104,-2.6645,-2.5961,-2.5122,-2.3945,0.0,0.0,0.0,0.0,-2.2438,-2.1697,-2.1161,-2.0547,-1.9798,-1.9798,-1.9798,-1.9798,-1.9798,-1.9798,-1.9798,-1.9798,-1.951,-1.8945,-1.8396,-1.7421,-1.6033,-1.441,-1.342,-1.2881,-1.2881,-1.2881,0.0,0.0,0.0,0.0,-1.2881,-1.2881,-1.2881,-1.2881,-1.2452,-1.1972,-1.2166,-1.2049,-1.1823,-1.1325,-1.2049,-1.2725,-1.208,-1.2403,-1.2881,-1.2735,-1.2323,-1.1819,-1.115,-1.0533,-0.9961,-0.9465,-0.9263,-0.9106,-0.8857,-0.9061,0.0,-0.8857,-0.8937,-0.8996,-0.8811,0.0,0.0,-0.8811,-0.8804,-0.8857,-0.8962,-0.8857,-0.8804,-0.8804,-0.8804,-0.8804,-0.8804,-0.8804,-0.8804,-0.8804,-0.8804,-0.8752,-0.8699,-0.8752,-0.8427,0.0,0.0,0.0,0.0,0.0,0.0,0.0,0.0,0.0,0.0,0.0,0.0,0.0,0.0,0.0,-2.5864,-2.6505,-2.7385,-2.9381,-2.9414,-2.9059,-2.8586,-2.8535,-2.8586,-2.8738,-2.8682,-2.8592,-2.8481,-2.7013,-2.6029,-2.5805,-2.4365,0.0,-2.3595,-2.3465,-2.2891,-2.1697,-2.1568,-2.0953,-1.9798,0.0,0.0,-1.9798,-1.9798,-1.9798,-1.9798,-1.9798,-1.951,-1.897,-1.8374,-1.6895,-1.4888,-1.409,-1.342,-1.2881,-1.2881,-1.2881,-1.2881,-1.2881,-1.2881,-1.2881,-1.2881,-1.2881,-1.2881,-1.2881,-1.2774,0.0,-1.2725,-1.2725,-1.2666,-1.2569,-1.2725,-1.2871,-1.2725,-1.2774,-1.2627,-1.171,-1.146,-1.1049,-0.9976,-0.9718,-0.9614,-0.9309,-0.9211,-0.9159,-0.9008,-0.9113,-0.9113,-0.8857,-0.9113,-0.9173,-0.8831,-0.9018,-0.901,-0.8831,-0.8804,-0.8804,-0.8857,-0.8804,-0.8804,-0.8804,-0.8804,-0.8804,-0.8804,-0.8804,-0.8804,-0.8804,-0.8804,-0.848,-0.7943,-0.854,-0.8699,0.0,0.0,0.0,0.0,0.0,0.0,0.0,0.0,0.0,0.0,0.0,-2.1363,0.0,0.0,-2.5029,-2.6944,-2.7909,-2.8941,-3.0446,-3.0649,-3.0514,-3.0125,-3.0091,-3.0091,-3.0091,-3.0091,-2.9677,-2.8695,-2.7499,-2.6406,-2.5384,-2.4216,-2.3595,-2.3595,-2.3595,-2.3128,-2.2193,-2.1852,-2.1232,-2.0295,-1.9952,-1.9798,-1.9798,-1.9798,-1.9798,-1.9798,-1.9862,-1.9573,-1.8958,-1.8413,-1.7154,-1.5554,-1.4971,-1.3999,-1.2881,-1.2881,-1.2929,-1.2978,-1.2978,-1.2978,-1.2978,-1.2978,-1.2929,-1.2881,-1.2881,-1.2881,-1.2881,-1.2881,-1.2881,-1.2881,-1.2881,-1.2881,-1.2881,-1.2881,-1.2881,-1.2725,-1.2166,-1.161,-1.0998,-1.0438,-0.9873,-0.9465,-0.9413,-0.9361,-0.9211,-0.9008,-0.9291,-0.9442,-0.9025,-0.9383,-0.9568,-0.9259,-0.9372,-0.9399,-0.9363,-0.9268,-0.918,-0.9126,-0.9037,-0.8956,-0.891,-0.891,-0.891,-0.891,-0.8857,-0.8857,-0.891,-0.8857,-0.848,-0.7824,-0.8203,-0.8096,0.0,0.0,0.0,0.0,0.0,0.0,0.0,0.0,-1.9464,-2.0435,-2.1189,-2.1938,-2.3061,-2.4829,-2.6526,-2.7822,-2.9211,-3.0362,-3.1089,-3.1072,-3.0987,-3.0987,-3.1106,-3.114,-3.1004,-3.0987,-3.0202,-2.8334,-2.7559,-2.6452,-2.4735,-2.3982,-2.3595,-2.3595,-2.3595,-2.3334,-2.2694,-2.2053,-2.139,-2.0795,-2.0105,-1.9798,-1.9798,-1.9811,-1.9862,-1.9862,-1.9978,-1.9737,-1.9183,-1.8581,-1.7788,-1.6918,-1.6224,-1.4956,-1.3456,-1.3095,-1.3017,-1.3123,-1.3123,-1.3123,-1.3085,-1.3123,-1.3027,-1.2881,-1.2929,-1.2929,-1.2929,-1.2929,-1.2929,-1.2929,-1.2968,-1.2978,-1.2929,-1.2929,-1.2978,-1.292,-1.2783,-1.2017,-1.1301,-1.1049,-1.0233,-0.9584,-0.9649,-0.9611,-0.9453,-0.9196,-0.9566,-0.9749,-0.9375,-0.9751,-0.9973,-0.9744,-0.9791,-0.9856,-0.986,-0.9798,-0.9653,-0.9486,-0.9308,-0.9196,-0.9097,-0.9036,-0.9061,-0.9061,-0.891,-0.891,-0.9008,-0.8857,-0.8421,-0.7711,-0.7711,-0.7337,-1.2764,-1.4136,-1.5915,-1.7599,-1.8066,-1.838,0.0,0.0,-2.0469,-2.1674,-2.1967,-2.2685,-2.486,-2.5713,-2.6709,-2.8583,-2.955,-3.0362,-3.1089,-3.0632,-3.0226,-3.0226,-3.0801,-3.0937,-3.0294,-3.0226,-2.9664,-2.8301,-2.712,-2.6125,-2.5388,-2.424,-2.3595,-2.3595,-2.3595,-2.3334,-2.2694,-2.2053,-2.139,-2.0795,-2.0105,-1.9798,-1.9798,-1.9926,-1.999,-1.999,-2.0131,-2.0144,-1.9991,-1.9058,-1.8511,-1.8189,-1.7227,-1.6321,-1.5387,-1.3734,-1.317,-1.317,-1.317,-1.3152,-1.3123,-1.318,-1.3055,-1.2929,-1.3036,-1.2978,-1.2929,-1.3036,-1.2978,-1.292,-1.3132,-1.3104,-1.3085,-1.3085,-1.3104,-1.2987,-1.2323,-1.2116,-1.1742,-1.0525,-1.0285,-1.0187,-0.9894,-0.9937,-0.9937,-0.9679,-0.9762,-0.9882,-0.9822,-1.0234,-1.0384,-0.9938,-1.0151,-1.0146,-0.9764,-0.9819,-0.9799,-0.969,-0.9464,-0.935,-0.935,-0.9252,-0.9159,-0.9159,-0.9061,-0.9008,-0.9008,-0.8857,-0.8209,-0.7015,-0.7015,-0.702,-1.4428,-1.5709,-1.6917,-1.8229,-1.8817,-1.9192,-1.9879,-2.0193,-2.0595,-2.1616,-2.2524,-2.3506,-2.4736,-2.6135,-2.7343,0.0,-2.9313,-3.0057,-2.9922,-3.0023,-2.9939,-2.9499,-2.9719,-2.9786,-2.9482,-2.9448,-2.9036,-2.8025,-2.763,-2.6969,-2.5961,-2.5206,-2.4643,-2.4208,-2.3863,-2.3566,-2.3231,-2.2589,-2.2161,-2.1894,-2.1245,-2.0756,-2.0497,-2.056,-2.0485,-2.0309,-2.0233,-2.0334,-2.0422,-1.9813,-1.9384,-1.9018,-1.7885,-1.7087,-1.6392,-1.5207,-1.4381,-1.3826,-1.3826,-1.36,-1.3296,-1.3324,-1.3228,-1.3094,-1.3142,-1.3142,-1.3094,-1.3142,-1.3142,-1.3094,-1.317,-1.318,-1.3142,-1.3142,-1.3152,-1.3055,-1.2793,-1.2452,-1.2049,-1.1566,-1.1097,-1.078,-1.0601,-1.0471,-1.0392,-1.035,-1.0379,-1.0429,-1.0328,-1.0674,-1.0821,-1.0627,-1.0786,-1.0814,-1.0566,-1.0513,-1.046,-1.0342,-0.9992,-0.9826,-0.9826,-0.9708,-0.9501,-0.9322,-0.916,-0.9079,-0.9008,-0.8857,-0.8236,-0.7107,-0.7107,-0.6849,-1.5726,-1.6824,-1.7492,-1.8607,-1.9361,-1.9914,-2.0212,-2.0483,-2.0893,-2.1737,-2.2876,-2.3994,-2.4681,-2.6285,-2.7571,-2.7755,-2.8924,-2.96,-2.9059,-2.9262,-2.9279,-2.8721,-2.8484,-2.8349,-2.8349,-2.8535,-2.8296,-2.7379,-2.7342,-2.6893,-2.5798,-2.5519,-2.5081,-2.4447,-2.4146,-2.3934,-2.3696,-2.3068,-2.274,-2.2785,-2.2132,-2.1534,-2.1042,-2.0908,-2.0723,-2.0562,-2.0398,-2.0498,-2.0662,-2.0448,-2.0169,-1.98,-1.8744,-1.8028,-1.7436,-1.6762,-1.5684,-1.4617,-1.4536,-1.4165,-1.3647,-1.3647,-1.3457,-1.3218,-1.3266,-1.3218,-1.3218,-1.3266,-1.3218,-1.3218,-1.3314,-1.3266,-1.3266,-1.3218,-1.3238,-1.321,-1.319,-1.2842,-1.2491,-1.2414,-1.1846,-1.1389,-1.1266,-1.1035,-1.09,-1.1023,-1.102,-1.0966,-1.0777,-1.0981,-1.1122,-1.1122,-1.1247,-1.124,-1.1059,-1.1041,-1.0966,-1.0906,-1.0488,-1.0261,-1.0261,-0.9985,-0.9735,-0.957,-0.9268,-0.9119,-0.9061,-0.8857,-0.8292,-0.7306,-0.7306,-0.6837,-1.6035,-1.6813,-1.7409,-1.8593,-1.9555,-2.0221,-2.0299,-2.0959,-2.1779,-2.2501,-2.3073,-2.3866,-2.5304,-2.6201,-2.6962,-2.7671,-2.8484,-2.9008,-2.9011,-2.8349,-2.784,-2.7823,-2.7215,-2.6759,0.0,-2.7435,-2.7362,-2.6132,-2.5589,-2.5091,-2.4655,-2.4648,-2.4461,-2.4028,-2.4357,-2.4372,-2.3982,-2.326,-2.292,-2.298,-2.2363,-2.1758,-2.1175,-2.0736,-2.0562,-2.0712,-2.0712,-2.0712,-2.0699,-2.0712,-2.0662,-2.0597,-1.996,-1.9373,-1.8787,-1.8252,-1.6898,-1.5344,-1.5142,-1.4731,-1.4305,-1.4373,-1.3847,-1.3218,-1.3362,-1.3314,-1.3218,-1.3362,-1.3314,-1.3266,-1.3515,-1.3515,-1.3362,-1.3218,-1.342,-1.3478,-1.3172,-1.3248,-1.317,-1.2511,-1.2246,-1.2061,-1.1668,-1.1463,-1.143,-1.1574,-1.1608,-1.1483,-1.1288,-1.1303,-1.1247,-1.1122,-1.1247,-1.1178,-1.087,-1.1108,-1.1226,-1.1108,-1.0751,-1.0576,-1.0576,-1.0009,-0.9742,-0.9893,-0.9326,-0.9068,-0.9211,-0.891,-0.8292,-0.7306,-0.7306,-0.691,-1.7453,-1.8114,-1.8446,-1.9562,-2.0283,-2.083,-2.1102,-2.1383,-2.1754,-2.2304,-2.295,-2.3545,-2.4052,-2.4729,-2.5473,-2.6234,-2.6979,-2.7469,-2.7469,-2.8112,-2.8213,-2.7199,-2.7283,0.0,0.0,0.0,0.0,-2.7192,-2.7168,-2.7122,-2.7052,-2.6801,-2.6352,-2.574,-2.5498,-2.5108,-2.4534,-2.4298,-2.397,-2.3653,-2.2665,-2.2114,-2.1894,-2.1019,-2.0662,-2.0699,-2.0699,-2.0489,-2.0087,-2.0087,-2.0087,-1.9995,-1.9041,-1.8767,-1.8793,-1.7765,-1.7029,-1.6527,-1.5952,-1.5421,-1.4949,-1.488,-1.4455,-1.3988,-1.4035,-1.38,-1.3467,-1.3515,-1.3515,-1.3467,-1.3563,-1.3515,-1.3409,-1.3467,-1.342,-1.3372,-1.343,-1.343,-1.3314,-1.3112,-1.308,-1.3088,-1.2823,-1.243,-1.2009,-1.1648,-1.1622,-1.156,-1.1498,-1.1498,-1.1498,-1.1435,-1.1498,-1.1435,-1.131,-1.1435,-1.1435,-1.1247,-1.1148,-1.096,-1.0712,-1.0519,-1.0313,-1.0055,-0.9836,-0.94,-0.8802,-0.8689,-0.8132,-0.7113,-0.7113,-0.6835,-1.8202,-1.9096,-1.9608,-2.0689,-2.1424,-2.1884,-2.196,-2.1917,-2.1928,-2.2237,-2.2682,-2.3088,-2.3342,-2.3782,-2.4425,-2.5439,-2.5998,-2.6404,-2.6657,-2.7537,-2.7892,-2.7182,-2.752,-2.7621,0.0,0.0,0.0,-2.7402,-2.7857,-2.8059,-2.7915,-2.7731,-2.7334,-2.6749,-2.63,-2.5846,-2.5319,-2.5258,-2.5091,-2.4841,-2.3643,-2.2933,-2.2686,-2.1539,-2.0898,-2.0699,-2.0699,-2.0502,-2.0087,-1.9891,-1.9799,-1.9695,-1.8545,-1.831,-1.8506,-1.7466,-1.7115,-1.7115,-1.6582,-1.6039,-1.5567,-1.5457,-1.5062,-1.4651,-1.4651,-1.428,-1.3905,-1.3905,-1.3763,-1.3621,-1.3621,-1.3515,-1.3467,-1.3515,-1.3542,-1.3606,-1.3762,-1.3836,-1.3899,-1.3899,-1.3947,-1.3892,-1.3717,-1.3074,-1.2397,-1.1685,-1.1622,-1.1622,-1.1622,-1.1622,-1.156,-1.1498,-1.156,-1.156,-1.1498,-1.156,-1.1498,-1.1303,-1.1303,-1.1178,-1.08,-1.0705,-1.0492,-1.0174,-0.9966,-0.946,-0.8727,-0.8573,-0.8001,-0.7024,-0.7024,-0.6753,-1.8433,-1.9659,-2.0811,-2.1808,-2.2712,-2.3236,-2.2789,-2.2488,-2.231,-2.231,-2.231,-2.2513,-2.3207,-2.3342,-2.3833,-2.5304,-2.5541,-2.5812,-2.659,-2.6725,-2.7012,0.0,0.0,0.0,0.0,0.0,0.0,-2.686,0.0,-2.7932,-2.7396,-2.7535,-2.7406,-2.6973,-2.681,-2.6572,-2.6245,-2.6093,-2.6108,-2.6318,-2.5063,-2.4126,-2.3521,-2.2241,-2.1304,-2.0749,-2.0699,-2.0686,-2.062,-2.0035,-1.9799,-1.9695,-1.8545,-1.8114,-1.8074,-1.7473,-1.7225,-1.7157,-1.7041,-1.6607,-1.6114,-1.6064,-1.5635,-1.5153,-1.5153,-1.4834,-1.4419,-1.4419,-1.4046,-1.3658,-1.3658,-1.3631,-1.3604,-1.345,-1.3906,-1.4295,-1.4184,-1.4522,-1.4829,-1.4777,-1.4682,-1.4502,-1.4241,-1.3414,-1.2528,-1.1747,-1.1622,-1.1622,-1.1622,-1.1622,-1.156,-1.1373,-1.1498,-1.1498,-1.1303,-1.1498,-1.1498,-1.1303,-1.1303,-1.1178,-1.0807,-1.0595,-1.0437,-1.0316,-0.9751,-0.9262,-0.8881,-0.851,-0.7885,-0.6975,-0.6975,-0.6762,-2.0096,-2.0846,-2.1385,-2.1642,-2.2165,-2.2552,-2.2421,-2.2343,-2.231,-2.231,-2.231,-2.2361,-2.2547,-2.2581,0.0,-2.4526,-2.4763,0.0,-2.6505,-2.7182,0.0,-2.7772,0.0,-2.8687,-2.8687,-2.9194,0.0,0.0,-2.8222,-2.853,-2.9461,-2.9118,-2.8649,-2.8093,-2.8155,-2.7702,-2.6807,-2.6444,-2.6074,-2.5595,-2.5288,-2.48,-2.4143,-2.2873,-2.2013,-2.1375,-2.0898,-2.0463,-2.0009,-1.9865,-1.9799,-1.9695,-1.8545,-1.8336,-1.8636,-1.8074,-1.7591,-1.7264,-1.7678,-1.7351,-1.6765,-1.6693,-1.6262,-1.5768,-1.5768,-1.5367,-1.4926,-1.4926,-1.4558,-1.4186,-1.4186,-1.4062,-1.3979,-1.4029,-1.4378,-1.4718,-1.4769,-1.4852,-1.4945,-1.4829,-1.4503,-1.412,-1.3852,-1.3107,-1.2336,-1.1685,-1.1622,-1.1622,-1.1622,-1.1622,-1.156,-1.156,-1.156,-1.156,-1.156,-1.156,-1.1498,-1.1303,-1.1428,-1.1373,-1.1059,-1.1044,-1.094,-1.0691,-1.0034,-0.9308,-0.8622,-0.7996,-0.7335,-0.6542,-0.6542,-0.6502,-2.1471,-2.2164,-2.2646,-2.2831,-2.3076,-2.3173,-2.2868,-2.2547,-2.231,-2.231,-2.231,-2.231,-2.231,-2.231,-2.2682,0.0,0.0,0.0,-2.6065,-2.686,-2.7571,0.0,-2.8721,0.0,-2.9448,-2.9871,-2.9939,0.0,-2.947,-2.9699,-3.0216,-2.9959,-2.9396,-2.8555,-2.8669,-2.8341,-2.754,-2.7301,-2.6857,-2.6226,-2.5971,-2.5318,-2.4372,-2.314,-2.2193,-2.1568,0.0,-2.0529,-2.0152,-1.9904,-1.9799,-1.9721,-1.8806,-1.8493,-1.8506,-1.8205,-1.7721,-1.7251,-1.7591,-1.7444,-1.7086,-1.696,-1.6693,-1.6392,-1.6392,-1.5988,-1.5501,-1.5501,-1.496,-1.4373,-1.4373,-1.4291,-1.4204,-1.4254,-1.4759,-1.5244,-1.5297,-1.5399,-1.5478,-1.5369,-1.4949,-1.4436,-1.3921,-1.3235,-1.2458,-1.1677,-1.1622,-1.1622,-1.1622,-1.1622,-1.1622,-1.1622,-1.1622,-1.1622,-1.1622,-1.1622,-1.1498,-1.1303,-1.1498,-1.1435,-1.1122,-1.1247,-1.1052,-1.0471,-0.9963,-0.9139,-0.8161,-0.7619,-0.7044,-0.642,-0.642,-0.642,-2.2595,-2.3466,-2.4113,-2.4413,-2.4438,-2.4201,-2.3545,-2.2835,-2.231,-2.231,-2.231,-2.231,-2.231,-2.231,-2.2547,-2.3274,0.0,-2.4644,-2.549,-2.615,-2.7114,-2.8653,-2.8924,-2.9279,-3.004,-3.0192,-3.026,-3.026,-3.0835,-3.092,-3.0294,-3.0225,-2.9648,-2.841,-2.8367,-2.8216,-2.7911,-2.8051,-2.7823,-2.7257,-2.6765,-2.5803,-2.4492,-2.3298,-2.2366,-2.1698,0.0,0.0,-2.0673,-2.0126,-1.9917,-1.9852,-1.9264,-1.8741,-1.8323,-1.8323,-1.7904,-1.7329,-1.7395,-1.7329,-1.7199,-1.7086,-1.696,-1.6918,-1.6918,-1.6572,-1.623,-1.623,-1.5564,-1.484,-1.4746,-1.4677,-1.4591,-1.449,-1.5152,-1.5784,-1.5784,-1.5961,-1.6114,-1.6114,-1.5642,-1.4932,-1.4145,-1.3433,-1.265,-1.1747,-1.1622,-1.1622,-1.1622,-1.1622,-1.1622,-1.1622,-1.1622,-1.1622,-1.1622,-1.1622,-1.156,-1.1365,-1.1498,-1.1498,-1.1185,-1.131,-1.0919,-1.0078,-0.9656,-0.8834,-0.7707,-0.7267,-0.683,-0.642,-0.642,-0.642,-2.3635,-2.4276,-2.4832,-2.4567,-2.4036,-2.3562,-2.3427,-2.2835,-2.231,-2.231,-2.231,-2.231,-2.231,-2.231,-2.2547,-2.3274,-2.3511,-2.4052,-2.5423,-2.571,-2.6353,0.0,-2.8602,-2.9279,-3.004,-3.0649,0.0,0.0,0.0,0.0,-3.1021,-3.0122,-2.8903,-2.7253,-2.6836,-2.6612,-2.6535,-2.7195,-2.7226,-2.6565,-2.7011,-2.6504,-2.5129,-2.4343,-2.3383,-2.2282,0.0,0.0,-2.0699,-2.0607,-2.0555,-2.0502,-1.9878,-1.959,-1.9512,-1.9512,-1.8845,-1.8009,-1.8453,-1.7996,-1.7199,-1.7157,-1.7073,-1.696,-1.696,-1.7196,-1.739,-1.739,-1.7297,-1.7015,-1.6532,-1.626,-1.6009,-1.555,-1.5866,-1.626,-1.626,-1.6322,-1.6374,-1.6374,-1.571,-1.4932,-1.4145,-1.3364,-1.2528,-1.1747,-1.1622,-1.1622,-1.1622,-1.1622,-1.1622,-1.1622,-1.1622,-1.1622,-1.1622,-1.1622,-1.156,-1.156,-1.156,-1.156,-1.1498,-1.156,-1.1108,-1.0275,-0.9458,-0.8628,-0.7707,-0.6898,-0.6519,-0.642,-0.642,-0.642,-2.4655,-2.5339,-2.583,-2.5188,-2.4672,-2.4082,-2.3247,-2.2654,-2.2349,-2.249,-2.2415,-2.2349,-2.2473,-2.2371,-2.2429,-2.2784,-2.3139,-2.3646,-2.4357,-2.5118,-2.6015,-2.7114,-2.7909,-2.8839,0.0,-3.0429,0.0,0.0,0.0,0.0,-3.0632,-2.8926,-2.7737,-2.7316,-2.6156,-2.5985,-2.6811,-2.678,-2.6657,-2.638,-2.6334,-2.578,-2.4752,-2.4073,-2.3256,-2.2466,-2.1732,0.0,-2.0699,-2.0699,-2.0699,-2.0673,-2.0398,-2.0074,-1.9773,-1.946,-1.8989,-1.8506,-1.8493,-1.831,-1.8048,-1.7761,-1.7418,-1.718,-1.7492,-1.7678,-1.7797,-1.7797,-1.7819,-1.7665,-1.6985,-1.6712,-1.6449,-1.5844,-1.6042,-1.6384,-1.6384,-1.6384,-1.6384,-1.6384,-1.5836,-1.5167,-1.4688,-1.3674,-1.2765,-1.2413,-1.1981,-1.1747,-1.1872,-1.1747,-1.1685,-1.1622,-1.1622,-1.1622,-1.1622,-1.1622,-1.1622,-1.1622,-1.1622,-1.1622,-1.1622,-1.117,-1.0528,-0.9818,-0.8796,-0.7962,-0.719,-0.6675,-0.642,-0.642,-0.642,-0.642,-2.5415,-2.6215,-2.6695,-2.5932,-2.5427,-2.4726,-2.3267,-2.2674,-2.2453,-2.266,-2.2537,-2.2436,-2.266,-2.2473,-2.231,-2.231,-2.2801,-2.3224,-2.3376,-2.4408,-2.5456,-2.6353,-2.7131,0.0,-2.9482,-2.9922,0.0,0.0,0.0,0.0,-2.9336,-2.7613,-2.6719,-2.6894,-2.5664,-2.5599,-2.6903,-2.632,-2.606,-2.6149,-2.558,-2.4964,-2.4261,-2.3681,-2.3098,-2.2589,-2.1874,0.0,0.0,-2.0749,-2.0699,-2.0699,-2.0699,-2.0437,-1.9917,-1.9316,-1.9094,-1.9015,-1.8466,-1.8545,-1.8832,-1.8414,-1.7865,-1.746,-1.78,-1.8017,-1.8111,-1.8111,-1.827,-1.8251,-1.7364,-1.7094,-1.6859,-1.6045,-1.6187,-1.6529,-1.6529,-1.6601,-1.6674,-1.6674,-1.6234,-1.5753,-1.5317,-1.4212,-1.3308,-1.2948,-1.2274,-1.1894,-1.2094,-1.1917,-1.1707,-1.1718,-1.1604,-1.1622,-1.1622,-1.1622,-1.1622,-1.1622,-1.1622,-1.1498,-1.1303,-1.0661,-0.9888,-0.9052,-0.8156,-0.7386,-0.6806,-0.6548,-0.6482,-0.6482,-0.6482,-0.642,-2.5751,-2.6543,-2.7069,-2.6685,-2.5838,-2.4882,-2.3994,-2.3223,-2.2669,-2.2695,-2.2669,-2.2669,-2.2695,-2.2473,-2.231,-2.231,-2.2361,-2.2632,-2.3308,-2.3511,-2.412,-2.5541,0.0,0.0,-2.7908,0.0,0.0,0.0,0.0,0.0,0.0,-2.7016,-2.6273,-2.4392,-2.4723,-2.5066,-2.5402,-2.5413,-2.5367,-2.541,-2.5349,-2.4964,-2.4302,-2.4051,-2.3653,-2.3084,0.0,0.0,0.0,-2.0898,-2.0699,-2.0699,-2.0699,-2.0673,-2.0555,-1.993,-1.9721,-1.963,-1.9041,-1.8858,-1.8898,-1.8845,-1.8453,-1.7931,-1.7434,-1.8009,-1.8832,-1.8832,-1.9486,-1.9978,-1.8701,-1.8247,-1.785,-1.6641,-1.6653,-1.6925,-1.6925,-1.7255,-1.7605,-1.7605,-1.7544,-1.7029,-1.5624,-1.4998,-1.4257,-1.2829,-1.213,-1.1914,-1.222,-1.187,-1.1733,-1.1963,-1.1736,-1.1622,-1.1622,-1.1622,-1.1622,-1.1622,-1.1622,-1.124,-1.0465,-1.0338,-0.9697,-0.8296,-0.7902,-0.7517,-0.7138,-0.6806,-0.6675,-0.6675,-0.6675,-0.6544,-2.5564,-2.6239,-2.6686,-2.6059,-2.5446,-2.4782,-2.3975,-2.3389,-2.3069,-2.3259,-2.2972,-2.2772,-2.2972,-2.2607,-2.231,-2.231,-2.231,-2.2412,-2.2699,-2.3122,-2.3782,-2.4814,-2.5592,0.0,0.0,0.0,0.0,0.0,0.0,0.0,0.0,-2.6145,-2.5734,-2.4942,-2.4614,-2.4709,-2.5231,-2.4875,-2.4918,-2.5318,-2.4902,-2.4564,-2.4302,-2.4109,-2.3696,-2.3172,0.0,0.0,0.0,-2.1313,-2.1131,-2.1082,-2.0799,-2.0699,-2.0633,-2.0009,-2.0022,-2.028,-1.9643,-1.9669,-1.9839,-1.9133,-1.8767,-1.8479,-1.7904,-1.8283,-1.8911,-1.8911,-1.9747,-2.0283,-1.8845,-1.782,-1.7086,-1.6821,-1.6853,-1.7059,-1.7337,-1.7544,-1.7668,-1.7668,-1.7668,-1.7346,-1.6291,-1.5587,-1.4771,-1.3603,-1.2766,-1.2277,-1.2327,-1.1954,-1.1729,-1.1855,-1.1696,-1.1622,-1.1622,-1.1622,-1.1622,-1.1622,-1.1178,-1.08,-1.0415,-0.9512,-0.8742,-0.8236,-0.7587,-0.7138,-0.7007,-0.6876,-0.6811,-0.6811,-0.6741,-0.6675,-2.5348,-2.5805,-2.6098,-2.555,-2.5139,-2.4685,-2.3873,-2.3522,-2.3414,-2.3649,-2.3305,-2.3069,-2.3282,-2.2849,-2.2426,-2.2426,-2.2349,-2.231,-2.231,-2.275,-2.3342,-2.41,0.0,0.0,0.0,0.0,0.0,0.0,0.0,0.0,0.0,-2.5705,-2.5368,-2.5291,-2.4839,-2.4741,-2.501,-2.4548,-2.4548,-2.501,-2.4533,-2.4302,-2.4302,-2.4109,-2.3839,-2.3406,0.0,0.0,0.0,-2.1827,-2.1506,-2.1375,-2.1033,-2.0799,-2.0633,-2.0009,-2.0165,-2.062,-2.0009,-2.0178,-2.0542,-1.9499,-1.9054,-1.8806,-1.8257,-1.8479,-1.8911,-1.8911,-1.9446,-1.9798,-1.8792,-1.7556,-1.6653,-1.6915,-1.7183,-1.7522,-1.7854,-1.803,-1.8123,-1.8123,-1.8123,-1.7795,-1.6857,-1.6114,-1.5233,-1.4193,-1.3138,-1.2516,-1.2505,-1.2138,-1.1881,-1.1881,-1.1762,-1.1663,-1.163,-1.1373,-1.1247,-1.1247,-1.0604,-1.0098,-0.9837,-0.8748,-0.8107,-0.7912,-0.7269,-0.6946,-0.7073,-0.7007,-0.6946,-0.6881,-0.6811,-0.6675,-2.5182,-2.5421,-2.5421,-2.5403,-2.5139,-2.4685,-2.3873,-2.3692,-2.3692,-2.3692,-2.3692,-2.3692,-2.3692,-2.3141,-2.2695,-2.2695,-2.249,-2.231,-2.231,-2.231,-2.2598,0.0,0.0,0.0,0.0,0.0,0.0,0.0,0.0,0.0,0.0,0.0,-2.523,-2.4815,-2.5253,-2.5098,-2.4317,-2.4302,-2.4302,-2.4317,-2.4302,-2.4302,-2.4302,-2.425,0.0,0.0,0.0,0.0,0.0,-2.2314,-2.1813,-2.1423,-2.1375,-2.1082,-2.0633,-2.0009,-2.0165,-2.062,-2.0009,-2.0178,-2.0607,-1.9982,-1.9394,-1.8806,-1.8257,-1.8479,-1.8911,-1.8911,-1.8734,-1.8525,-1.8525,-1.7743,-1.6977,-1.6987,-1.7719,-1.8371,-1.8371,-1.8733,-1.9054,-1.9054,-1.9054,-1.8643,-1.7129,-1.6455,-1.5663,-1.43,-1.3048,-1.2488,-1.3019,-1.2431,-1.2028,-1.2028,-1.2028,-1.1904,-1.1652,-1.0926,-1.0485,-1.0485,-0.9907,-0.9134,-0.8231,-0.8236,-0.7912,-0.7199,-0.7007,-0.7073,-0.7521,-0.7265,-0.7073,-0.6881,-0.6881,-0.6749,-2.4502,-2.4575,-2.4575,-2.4575,-2.4498,-2.4365,-2.4109,-2.4036,-2.4036,-2.4036,-2.3876,-2.3692,-2.3692,-2.3346,-2.2972,-2.2746,-2.2634,-2.25,0.0,0.0,0.0,-2.3308,-2.4289,0.0,0.0,0.0,0.0,0.0,0.0,0.0,0.0,0.0,-2.5961,-2.5214,-2.4719,-2.441,-2.425,-2.425,-2.4234,-2.4302,-2.4302,-2.4302,-2.4302,-2.425,0.0,0.0,0.0,0.0,0.0,-2.2875,-2.2328,-2.186,-2.1506,-2.1082,-2.0686,-2.0502,-2.0555,-2.0673,-2.0502,-2.0555,-2.0607,-1.9995,-1.9394,-1.8806,-1.8257,-1.8218,-1.8416,-1.8827,-1.8704,-1.8417,-1.8038,-1.747,-1.7059,-1.7379,-1.7957,-1.8464,-1.8785,-1.8971,-1.9075,-1.9075,-1.9075,-1.8654,-1.7139,-1.6684,-1.5885,-1.4132,-1.3378,-1.2938,-1.2886,-1.2373,-1.2123,-1.2343,-1.1977,-1.167,-1.163,-1.0926,-1.0485,-1.0485,-0.9454,-0.8683,-0.8425,-0.7972,-0.7652,-0.7396,-0.733,-0.7396,-0.7521,-0.7265,-0.7068,-0.6745,-0.6745,-0.6613,-2.419,-2.419,-2.419,-2.419,-2.419,-2.419,-2.419,-2.419,-2.419,-2.419,-2.4036,-2.3896,-2.3896,-2.361,-2.3277,-2.2947,-2.2797,-2.2599,0.0,0.0,0.0,-2.2936,0.0,0.0,0.0,0.0,0.0,0.0,0.0,0.0,0.0,0.0,-2.6104,-2.5406,-2.4863,-2.4517,-2.4467,-2.4317,-2.4276,-2.4302,-2.4302,-2.4302,-2.4302,-2.425,0.0,0.0,0.0,0.0,0.0,-2.2848,-2.2259,-2.1741,-2.1506,-2.1082,-2.0699,-2.0699,-2.0699,-2.0699,-2.0699,-2.0699,-2.0646,-2.0244,-1.9721,-1.9133,-1.8571,-1.8401,-1.8546,-1.9056,-1.8894,-1.841,-1.8046,-1.7578,-1.7358,-1.7874,-1.8319,-1.8713,-1.9013,-1.9075,-1.9075,-1.9075,-1.8865,-1.8307,-1.7139,-1.6507,-1.5721,-1.4261,-1.3575,-1.3222,-1.3013,-1.2593,-1.2431,-1.2511,-1.2036,-1.1618,-1.1418,-1.0601,-1.0034,-0.9773,-0.8748,-0.8172,-0.8102,-0.7782,-0.7591,-0.7591,-0.7461,-0.7396,-0.7521,-0.7199,-0.6872,-0.6675,-0.6609,-0.6548,0.0,-2.419,-2.419,-2.419,-2.419,-2.419,-2.419,-2.419,0.0,-2.419,-2.419,-2.419,-2.419,-2.3955,-2.3628,-2.33,-2.2947,-2.2634,0.0,-2.231,0.0,0.0,0.0,0.0,0.0,0.0,0.0,0.0,0.0,0.0,0.0,0.0,0.0,-2.5336,-2.5357,-2.5217,-2.4863,-2.4492,-2.4317,-2.4302,-2.4256,-2.4241,-2.4241,-2.4179,0.0,0.0,0.0,0.0,0.0,-2.2186,-2.1628,-2.1122,-2.1226,-2.101,-2.0581,-2.0581,-2.0607,-2.0646,-2.0646,-2.0673,-2.0699,-2.066,-2.0244,-1.9695,-1.9133,-1.8963,-1.9045,-1.956,-1.9109,-1.8515,-1.826,-1.798,-1.7885,-1.8288,-1.8733,-1.9075,-1.9075,-1.9075,-1.9075,-1.9075,-1.8509,-1.7765,-1.7001,-1.6097,-1.5259,-1.4497,-1.3734,-1.3327,-1.3327,-1.3094,-1.2892,-1.2516,-1.2044,-1.1492,-1.0923,-0.9987,-0.9198,-0.8554,-0.7982,-0.7661,-0.7521,-0.7596,-0.7666,-0.7731,-0.74,-0.7265,-0.7456,-0.6937,-0.6675,-0.6675,-0.6482,-0.642,-2.4373,0.0,-2.419,-2.419,-2.419,-2.419,0.0,-2.419,-2.419,-2.419,-2.419,-2.419,-2.419,-2.4151,-2.3976,-2.3649,-2.33,-2.2972,-2.2634,0.0,0.0,0.0,0.0,0.0,0.0,0.0,0.0,0.0,0.0,0.0,0.0,0.0,0.0,-2.4727,-2.4448,-2.4293,-2.4343,-2.4291,-2.4234,-2.4302,-2.3779,-2.3533,-2.3517,-2.2994,0.0,0.0,0.0,0.0,-2.1698,-2.108,-2.0483,-2.0055,-2.0102,-1.9779,-1.9316,-1.9316,-1.9603,-2.0009,-2.0009,-2.0283,-2.0633,-2.0139,-1.9917,-1.9773,-1.963,-1.959,-1.9403,-1.8594,-1.8661,-1.8779,-1.7796,-1.7861,-1.8247,-1.835,-1.8733,-1.9075,-1.9075,-1.9075,-1.9075,-1.9075,-1.8509,-1.7765,-1.7001,-1.5956,-1.5054,-1.4274,-1.3787,-1.3454,-1.3454,-1.3162,-1.2762,-1.2179,-1.1703,-1.0863,-0.9583,-0.9148,-0.8812,-0.8554,-0.7982,-0.7661,-0.7521,-0.7526,-0.7591,-0.7731,-0.7531,-0.7265,-0.6868,-0.6741,-0.6609,-0.6482,-0.6416,-0.642,-2.4869,-2.4483,-2.419,-2.419,-2.419,-2.419,-2.419,-2.419,-2.419,-2.419,-2.419,-2.419,-2.419,-2.4074,-2.3917,-2.3714,-2.33,0.0,0.0,0.0,0.0,0.0,0.0,0.0,0.0,0.0,0.0,0.0,0.0,0.0,0.0,0.0,-2.4413,-2.424,-2.3869,-2.3735,-2.3833,-2.3871,-2.3727,-2.3379,-2.3277,-2.3093,-2.2825,-2.2455,0.0,0.0,0.0,0.0,-2.0803,-2.0253,-1.967,-1.9252,-1.9302,-1.9139,-1.8911,-1.8911,-1.929,-1.9799,-1.9799,-2.0178,-2.066,-2.0296,-2.0191,-2.0244,-2.0505,-2.0434,-2.0016,-1.8891,-1.8756,-1.8783,-1.808,-1.8145,-1.8433,-1.864,-1.8889,-1.9075,-1.9075,-1.9075,-1.8998,-1.8654,-1.7969,-1.7276,-1.6594,-1.5542,-1.4713,-1.4281,-1.3928,-1.3572,-1.3499,-1.3338,-1.2935,-1.2202,-1.153,-1.0645,-0.9286,-0.8755,-0.8425,-0.8172,-0.7922,-0.7792,-0.7596,-0.7657,-0.7596,-0.7339,-0.7269,-0.7003,-0.6548,-0.6548,-0.6324,-0.5925,-0.5925,-0.5762,-2.5476,-2.4887,-2.4355,-2.4226,-2.4281,-2.4355,-2.4226,-2.419,-2.419,-2.419,-2.419,-2.417,-2.4113,-2.3937,-2.3774,-2.3714,0.0,0.0,0.0,0.0,0.0,0.0,0.0,0.0,0.0,0.0,0.0,0.0,0.0,0.0,0.0,0.0,0.0,-2.3603,-2.3309,-2.3124,-2.3022,-2.327,-2.3018,-2.2301,-2.267,-2.2593,-2.2132,-2.2024,0.0,0.0,0.0,0.0,-2.0026,-1.9475,-1.8948,-1.8557,-1.8618,-1.8649,-1.8649,-1.8649,-1.9028,-1.9577,-1.9747,-2.0113,-2.0594,-2.0673,-2.0764,-2.0935,-2.1368,-2.1142,-2.0628,-1.9837,-1.9194,-1.8784,-1.8627,-1.8562,-1.8589,-1.8982,-1.9075,-1.9075,-1.9075,-1.8998,-1.8731,-1.8172,-1.7345,-1.6594,-1.6105,-1.5174,-1.4488,-1.4441,-1.4118,-1.3769,-1.3506,-1.3492,-1.3105,-1.2164,-1.1501,-1.0553,-0.9232,-0.8585,-0.8148,-0.7797,-0.7922,-0.7922,-0.7666,-0.7857,-0.7596,-0.6815,-0.6881,-0.6749,-0.642,-0.6284,-0.5966,-0.5428,-0.5293,-0.502,-2.577,-2.5311,-2.5054,-2.4373,-2.4704,-2.5054,-2.4355,-2.419,-2.419,-2.419,-2.419,-2.4113,-2.3816,-2.3976,-2.4016,0.0,0.0,0.0,0.0,0.0,0.0,0.0,0.0,0.0,0.0,0.0,0.0,0.0,0.0,0.0,0.0,0.0,0.0,-2.2112,-2.2082,-2.1774,-2.121,-2.2066,-2.2416,-2.2286,-2.1809,-2.1532,-2.1409,-2.0753,-2.0421,0.0,0.0,-1.9427,-1.9278,-1.843,-1.8004,-1.7896,-1.7589,-1.746,-1.746,-1.746,-1.7839,-1.8506,-1.9473,-1.9865,-2.0009,-2.0542,-2.104,-2.1394,-2.1485,-2.1183,-2.0742,-2.0582,-2.0174,-1.956,-1.8659,-1.8736,-1.8982,-1.9054,-1.9075,-1.9075,-1.9075,-1.8586,-1.8182,-1.8259,-1.7088,-1.6175,-1.6237,-1.5605,-1.4925,-1.4472,-1.4301,-1.4015,-1.3528,-1.3492,-1.2868,-1.1219,-1.1209,-1.0472,-0.8391,-0.8378,-0.8456,-0.8122,-0.8172,-0.7977,-0.7521,-0.7591,-0.7199,-0.6486,-0.6749,-0.6749,-0.642,-0.5951,-0.5628,-0.5359,-0.4954,-0.4675,-2.6245,-2.5713,-2.5219,-2.4392,-2.4483,-2.4649,-2.4281,-2.419,-2.419,-2.419,-2.419,-2.4094,-2.3774,0.0,-2.35,-2.3025,0.0,0.0,0.0,0.0,0.0,0.0,0.0,0.0,0.0,0.0,0.0,0.0,0.0,0.0,0.0,0.0,0.0,0.0,-2.1721,-2.137,-2.1055,-2.1186,-2.1245,-2.1245,-2.1146,-2.0977,-2.0645,-2.0233,-2.0025,-1.994,0.0,-1.9258,-1.8808,-1.8344,-1.7908,-1.7475,-1.7282,-1.7199,-1.7238,-1.7565,-1.8048,-1.8649,-1.9512,-2.0009,-2.0309,-2.062,-2.0882,-2.1159,-2.1786,-2.131,-2.0649,-2.1089,-2.0387,-1.9389,-1.8887,-1.8909,-1.9075,-1.9075,-1.9075,-1.9075,-1.9075,-1.8596,-1.8056,-1.7784,-1.6872,-1.6105,-1.5903,-1.5281,-1.4694,-1.4521,-1.4122,-1.38,-1.3514,-1.3492,-1.2844,-1.1156,-1.1238,-1.0551,-0.8411,-0.8531,-0.8492,-0.7932,-0.8107,-0.7912,-0.733,-0.733,-0.7068,-0.6544,-0.6613,-0.6552,-0.642,-0.5769,-0.5271,-0.4918,-0.427,-0.3771,-2.6502,-2.5884,-2.512,-2.4372,-2.4337,-2.4428,-2.4245,-2.419,-2.419,-2.419,-2.4151,-2.3996,-2.3753,-2.3414,0.0,-2.2598,0.0,0.0,0.0,0.0,0.0,0.0,0.0,0.0,0.0,0.0,0.0,0.0,0.0,0.0,0.0,0.0,0.0,0.0,-2.1691,-2.1339,-2.1182,-2.0679,-2.0373,-2.0304,-2.0615,-2.0548,-2.0115,-1.999,-1.9848,-1.9639,-1.9654,-1.9199,-1.85,-1.8383,-1.7948,-1.7323,-1.724,-1.7199,-1.7264,-1.7878,-1.8362,-1.8819,-1.9551,-2.0087,-2.0529,-2.066,-2.0791,-2.1066,-2.1943,-2.1343,-2.0498,-2.1169,-2.0239,-1.902,-1.9083,-1.9075,-1.9075,-1.9075,-1.9075,-1.9075,-1.9075,-1.8529,-1.7852,-1.7373,-1.6603,-1.5965,-1.5647,-1.5072,-1.4664,-1.4585,-1.4133,-1.3726,-1.3506,-1.3346,-1.2753,-1.126,-1.1156,-1.0472,-0.8772,-0.8687,-0.843,-0.7741,-0.7852,-0.7717,-0.7199,-0.7184,-0.7008,-0.6676,-0.6384,-0.6202,-0.6202,-0.5428,-0.4782,-0.4254,-0.3668,-0.3064,-2.6183,-2.5502,-2.4831,-2.4315,-2.4759,-2.5127,-2.4373,-2.419,-2.419,-2.419,-2.3937,-2.3714,0.0,-2.3414,-2.3189,-2.3141,0.0,0.0,0.0,0.0,0.0,0.0,0.0,0.0,0.0,0.0,0.0,0.0,0.0,0.0,0.0,0.0,0.0,0.0,0.0,-2.1479,-2.086,-2.0794,-2.0595,-2.0304,-2.0196,-2.0161,-2.01,-1.9904,-1.9603,-1.9244,-1.9161,-1.8898,-1.8461,-1.8028,-1.7787,-1.772,-1.7352,-1.7199,-1.7264,-1.7878,-1.8127,-1.8323,-1.942,-1.9839,-1.9956,-2.0529,-2.1015,-2.1472,-2.1551,-2.0974,-2.0391,-2.0651,-1.9772,-1.8774,-1.9027,-1.9075,-1.9075,-1.9075,-1.9075,-1.9075,-1.9075,-1.8104,-1.7226,-1.7373,-1.6403,-1.5568,-1.5726,-1.5574,-1.5235,-1.4689,-1.4553,-1.4267,-1.3609,-1.3046,-1.2224,-1.1186,-1.0795,-1.0149,-0.9195,-0.8669,-0.8168,-0.7746,-0.74,-0.7265,-0.7204,-0.7046,-0.6873,-0.6676,-0.6054,-0.5766,-0.5766,-0.4485,-0.3747,-0.3541,-0.3174,-0.2913,-2.518,-2.4444,-2.3853,-2.3868,-2.4114,-2.432,-2.4206,-2.419,-2.419,-2.419,-2.3937,-2.3649,0.0,0.0,-2.2695,0.0,0.0,0.0,0.0,0.0,0.0,0.0,0.0,0.0,0.0,0.0,0.0,0.0,0.0,0.0,0.0,0.0,0.0,0.0,0.0,-2.1245,-2.0679,-2.0561,-2.0441,-2.0304,-2.015,-2.01,-2.01,-1.9904,-1.9566,-1.9207,-1.9124,-1.8707,-1.8028,-1.7868,-1.7639,-1.7393,-1.7282,-1.7199,-1.7225,-1.746,-1.7996,-1.8662,-1.9094,-1.9721,-2.0424,-2.0633,-2.0856,-2.1041,-2.1407,-2.0827,-2.0147,-2.0604,-1.9824,-1.9,-1.909,-1.9075,-1.9075,-1.9075,-1.9075,-1.9008,-1.8674,-1.791,-1.7226,-1.695,-1.6123,-1.5505,-1.5576,-1.5185,-1.4792,-1.4585,-1.4325,-1.3851,-1.3214,-1.2826,-1.2077,-1.0663,-0.9856,-0.9275,-0.9097,-0.8383,-0.7894,-0.7741,-0.7596,-0.7335,-0.6937,-0.6987,-0.6958,-0.6696,-0.6157,-0.5875,-0.5875,-0.4572,-0.3887,-0.3849,-0.3304,-0.3036,-2.4409,-2.3643,-2.3117,-2.3459,-2.3544,-2.3588,-2.3837,-2.3976,-2.4016,-2.3917,-2.3795,-2.3566,-2.3117,0.0,0.0,0.0,0.0,0.0,0.0,0.0,0.0,0.0,0.0,0.0,0.0,0.0,0.0,0.0,0.0,0.0,0.0,0.0,0.0,0.0,0.0,0.0,-2.0548,-2.0444,-2.0323,-2.02,-2.0115,-2.008,-2.0045,-1.9869,-1.9566,-1.9147,-1.8974,-1.85,-1.7787,-1.7679,-1.7434,-1.7199,-1.7199,-1.7199,-1.7225,-1.7408,-1.7983,-1.8702,-1.9068,-1.9708,-2.0463,-2.0646,-2.0549,-2.0462,-2.0785,-2.0116,-1.9356,-1.9895,-1.9375,-1.8682,-1.8882,-1.9027,-1.9075,-1.9075,-1.9131,-1.9008,-1.8405,-1.7852,-1.7304,-1.6742,-1.5982,-1.5505,-1.5505,-1.4856,-1.4433,-1.4569,-1.4217,-1.3637,-1.2973,-1.2592,-1.1742,-1.0112,-0.9148,-0.865,-0.8852,-0.8137,-0.7692,-0.7681,-0.7593,-0.7361,-0.6897,-0.701,-0.6933,-0.6573,-0.6085,-0.5721,-0.5504,-0.4315,-0.3741,-0.3591,-0.3191,-0.2904,-2.3994,-2.3292,-2.2772,-2.3117,-2.3189,-2.3189,-2.3189,-2.3477,-2.3588,-2.3259,-2.3459,-2.35,-2.2822,-2.2972,0.0,0.0,0.0,0.0,0.0,0.0,0.0,0.0,0.0,0.0,0.0,0.0,0.0,0.0,0.0,0.0,0.0,0.0,0.0,0.0,0.0,0.0,-2.0514,-2.0514,-2.0326,-2.0005,-2.0005,-2.0005,-2.0005,-1.9848,-1.9545,-1.9064,-1.8669,-1.8226,-1.776,-1.7352,-1.7199,-1.7199,-1.7199,-1.7199,-1.7264,-1.7865,-1.81,-1.827,-1.9407,-1.9799,-1.9904,-2.0515,-2.0283,-1.9798,-1.9619,-1.8727,-1.7868,-1.8596,-1.8301,-1.7833,-1.8459,-1.8854,-1.9054,-1.9131,-1.9208,-1.9075,-1.8405,-1.7988,-1.7501,-1.6742,-1.5982,-1.5505,-1.5497,-1.4856,-1.4425,-1.4569,-1.4274,-1.384,-1.2973,-1.2358,-1.1285,-0.9458,-0.8768,-0.8447,-0.8565,-0.7918,-0.7558,-0.7681,-0.7391,-0.7223,-0.7223,-0.7065,-0.6744,-0.6318,-0.5625,-0.4999,-0.4384,-0.3528,-0.2904,-0.2511,-0.2668,-0.2589,-2.3638,-2.2564,-2.1724,-2.2609,-2.2652,-2.2504,-2.278,-2.33,-2.3588,-2.3259,-2.3093,-2.2947,-2.2746,0.0,0.0,0.0,0.0,0.0,0.0,0.0,0.0,0.0,0.0,0.0,0.0,0.0,0.0,0.0,0.0,0.0,0.0,0.0,0.0,0.0,0.0,0.0,-2.015,-2.0289,-2.0235,-2.0005,-2.0061,-2.0061,-2.0005,-1.9848,-1.942,-1.8745,-1.8592,-1.8068,-1.7352,-1.724,-1.7199,-1.7199,-1.7199,-1.7199,-1.7212,-1.7395,-1.797,-1.8715,-1.9054,-1.9708,-2.0377,-2.0169,-1.9901,-1.9567,-1.9085,-1.8487,-1.8021,-1.825,-1.8104,-1.7864,-1.8061,-1.827,-1.8533,-1.8902,-1.8827,-1.8586,-1.7978,-1.7364,-1.6742,-1.5982,-1.5568,-1.5213,-1.5078,-1.4569,-1.4274,-1.4569,-1.4274,-1.3688,-1.2432,-1.1099,-1.0049,-0.939,-0.8851,-0.8564,-0.8404,-0.7907,-0.7602,-0.7531,-0.7319,-0.7223,-0.7223,-0.6757,-0.6423,-0.6318,-0.5325,-0.4774,-0.4621,-0.3608,-0.3062,-0.2904,-0.2668,-0.2511,-2.3027,-2.2313,-2.1826,-2.1991,-2.2028,-2.2132,-2.2385,-2.2822,-2.3098,0.0,-2.2764,-2.2686,-2.2563,0.0,0.0,0.0,0.0,0.0,0.0,0.0,0.0,0.0,0.0,0.0,0.0,0.0,0.0,0.0,0.0,0.0,0.0,0.0,0.0,0.0,0.0,0.0,-2.022,-2.0308,-2.022,-1.9919,-1.994,-1.994,-1.9884,-1.9639,-1.9258,-1.8784,-1.8383,-1.7828,-1.7199,-1.7199,-1.7199,-1.7199,-1.7199,-1.7199,-1.7199,-1.7199,-1.763,-1.8213,-1.83,-1.8892,-1.9605,-1.9296,-1.9083,-1.8927,-1.8459,-1.7979,-1.76,-1.7668,-1.7631,-1.7683,-1.7743,-1.8012,-1.8339,-1.8405,-1.8393,-1.8165,-1.7394,-1.695,-1.6464,-1.5638,-1.5346,-1.5133,-1.4935,-1.4497,-1.4281,-1.4569,-1.3912,-1.2952,-1.1761,-1.0427,-0.9474,-0.9248,-0.873,-0.8363,-0.8066,-0.7734,-0.7569,-0.7584,-0.7441,-0.7237,-0.7099,-0.6584,-0.62,-0.6033,-0.5126,-0.4467,-0.4077,-0.3452,-0.2904,-0.2589,-0.2353,-0.2196,-2.2521,-2.2496,-2.2517,-2.1373,-2.1486,-2.1924,-2.1991,-2.2096,-2.2209,-2.2321,0.0,-2.2546,-2.2349,0.0,0.0,0.0,0.0,0.0,0.0,0.0,0.0,0.0,0.0,0.0,0.0,0.0,0.0,0.0,0.0,0.0,0.0,0.0,0.0,0.0,0.0,0.0,-2.0481,-2.0481,-2.0224,0.0,-1.9797,-1.9762,-1.9654,-1.9369,-1.9184,-1.8988,-1.8108,-1.7557,-1.7199,-1.7199,-1.7199,-1.7199,-1.7199,-1.7199,-1.7199,-1.7199,-1.7183,-1.7216,-1.734,-1.7681,-1.8078,-1.8101,-1.8101,-1.7984,-1.7722,-1.7234,-1.6789,-1.6919,-1.7092,-1.7269,-1.7397,-1.7884,-1.819,-1.7772,-1.7805,-1.778,-1.6858,-1.6733,-1.6524,-1.5638,-1.5284,-1.5133,-1.4935,-1.4577,-1.4353,-1.4425,-1.3178,-1.1922,-1.1156,-1.0217,-0.9403,-0.9001,-0.8442,-0.7961,-0.7751,-0.7419,-0.7442,-0.7768,-0.7574,-0.7266,-0.6908,-0.6485,-0.6029,-0.5541,-0.4929,-0.4155,-0.3062,-0.3062,-0.2668,-0.1882,-0.1882,-0.1648,-2.3502,-2.2432,-2.1287,-2.1708,-2.1486,-2.1215,-2.1229,-2.1275,-2.1552,-2.2422,-2.2203,-2.1936,0.0,0.0,0.0,0.0,0.0,0.0,0.0,0.0,0.0,0.0,0.0,0.0,0.0,0.0,0.0,0.0,0.0,0.0,0.0,0.0,0.0,0.0,0.0,-2.0548,-2.0429,-2.022,-1.9975,0.0,-1.9762,-1.9581,-1.925,-1.9493,-1.9236,-1.8592,-1.772,-1.7282,-1.7199,-1.7199,-1.7199,-1.7199,-1.7199,-1.7199,-1.7199,-1.7073,-1.7132,-1.7194,-1.7095,-1.7446,-1.7799,-1.7508,-1.7478,-1.7501,-1.7134,-1.6761,-1.6509,-1.6649,-1.6785,-1.6956,-1.7059,-1.7316,-1.7348,-1.6709,-1.6953,-1.729,-1.6917,-1.6324,-1.57,-1.5346,-1.507,-1.4935,-1.4713,-1.4425,-1.3985,-1.3331,-1.215,-1.1261,-1.0912,-0.9958,-0.9185,-0.8711,-0.8346,-0.7961,-0.7751,-0.7683,-0.7735,-0.7777,-0.7338,-0.7028,-0.6916,-0.6132,-0.5517,-0.4929,-0.4309,-0.3686,-0.3062,-0.2747,-0.2353,-0.1882,-0.1727,-0.165,-2.2468,-2.1697,-2.0826,-2.0941,-2.0685,-2.0447,-2.0632,-2.0532,-2.0682,-2.1665,-2.1579,0.0,0.0,0.0,0.0,0.0,0.0,0.0,0.0,0.0,0.0,0.0,0.0,0.0,0.0,0.0,0.0,0.0,0.0,0.0,0.0,0.0,0.0,0.0,-2.1086,-2.0665,-2.0462,-2.0342,-2.0115,-1.9762,-1.9762,-1.9545,-1.9101,-1.8884,-1.8447,-1.7828,-1.7393,-1.7199,-1.7199,-1.7199,-1.7199,-1.7199,-1.7199,-1.7157,-1.7115,-1.7044,-1.6858,-1.6633,-1.6332,-1.6445,-1.6708,-1.645,-1.6598,-1.683,-1.6733,-1.6648,-1.6591,-1.6581,-1.674,-1.6909,-1.6955,-1.7145,-1.7159,-1.6506,-1.6617,-1.673,-1.6224,-1.5782,-1.5426,-1.5141,-1.5007,-1.4721,-1.4201,-1.3695,-1.3105,-1.2298,-1.1706,-1.1137,-1.0347,-0.9704,-0.9062,-0.8443,-0.8108,-0.7827,-0.7611,-0.7631,-0.7576,-0.7355,-0.698,-0.6493,-0.6046,-0.5434,-0.5007,-0.4701,-0.3997,-0.345,-0.2982,-0.2668,-0.2276,-0.1884,-0.1806,-0.1729,-2.0933,-2.0688,-2.0478,-1.9874,-1.9666,-1.966,-1.9969,-1.9859,-1.9909,-2.0648,0.0,0.0,0.0,0.0,0.0,0.0,0.0,0.0,0.0,0.0,0.0,0.0,0.0,0.0,0.0,0.0,0.0,0.0,0.0,0.0,0.0,0.0,-2.1688,-2.1628,-2.1275,-2.0894,-2.0514,-2.0462,-2.0239,-1.9797,-1.9654,-1.9384,-1.8988,-1.8068,-1.7557,-1.7323,-1.724,-1.7199,-1.7199,-1.7199,-1.7199,-1.7199,-1.7157,-1.7115,-1.7002,-1.6863,-1.6454,-1.5896,-1.5421,-1.5314,-1.5355,-1.5386,-1.5775,-1.6255,-1.6557,-1.6694,-1.6751,-1.6684,-1.6842,-1.7011,-1.7011,-1.7145,-1.7066,-1.6535,-1.6384,-1.6113,-1.5418,-1.5297,-1.5209,-1.4927,-1.4792,-1.4425,-1.3615,-1.2886,-1.2224,-1.1484,-1.1409,-1.1019,-0.9793,-0.9427,-0.8975,-0.8187,-0.7844,-0.765,-0.7536,-0.7428,-0.7274,-0.6928,-0.6463,-0.5879,-0.5071,-0.4696,-0.4465,-0.4465,-0.3839,-0.3214,-0.2746,-0.2589,-0.2276,-0.1887,-0.1964,-0.1964,-2.0777,-2.0111,-1.9336,-1.921,-1.912,-1.9006,0.0,0.0,-1.9711,0.0,0.0,0.0,0.0,0.0,0.0,0.0,0.0,0.0,0.0,0.0,0.0,0.0,0.0,0.0,0.0,0.0,0.0,0.0,0.0,0.0,0.0,-2.2032,-2.2049,-2.1708,-2.1229,-2.0845,-2.0512,-2.0115,-1.9869,-1.9797,-1.9035,-1.8655,-1.8553,-1.7679,-1.7434,-1.772,-1.7352,-1.7199,-1.7199,-1.7199,-1.7199,-1.7199,-1.7086,-1.7002,-1.6918,-1.6349,-1.5844,-1.5344,-1.4812,-1.4584,-1.4576,-1.5192,-1.5563,-1.5883,-1.6557,-1.6694,-1.6684,-1.6899,-1.6955,-1.7011,-1.7211,-1.6987,-1.6545,-1.6083,-1.5817,-1.5593,-1.5479,-1.5002,-1.4633,-1.4879,-1.4353,-1.3768,-1.3339,-1.2445,-1.1706,-1.1186,-1.0887,-1.0364,-0.9721,-0.9267,-0.8749,-0.8108,-0.7688,-0.7489,-0.7526,-0.723,-0.7013,-0.6936,-0.5918,-0.5237,-0.4999,-0.4148,-0.3682,-0.3682,-0.3526,-0.3214,-0.2511,-0.2511,-0.2276,-0.1887,-0.2041,-0.2196,-1.9494,-1.9008,-1.853,-1.8179,-1.8259,-1.8458,-1.8458,-1.8612,-1.8817,0.0,0.0,0.0,0.0,0.0,0.0,0.0,0.0,0.0,0.0,0.0,0.0,0.0,0.0,0.0,0.0,0.0,0.0,0.0,0.0,0.0,-2.1275,-2.1213,-2.1118,-2.0926,-2.0548,-2.0224,-2.003,-1.9955,-1.9762,-1.9442,-1.8808,-1.8344,-1.8068,-1.7475,-1.7323,-1.7434,-1.7282,-1.7199,-1.7199,-1.7199,-1.7031,-1.6778,-1.668,-1.6411,-1.6064,-1.5712,-1.5266,-1.4812,-1.4547,-1.4451,-1.4597,-1.5049,-1.551,-1.6037,-1.6557,-1.674,-1.6842,-1.6955,-1.7078,-1.7145,-1.6976,-1.6627,-1.6206,-1.5805,-1.5221,-1.4897,-1.5155,-1.4885,-1.46,-1.4322,-1.3688,-1.2959,-1.2305,-1.1632,-1.1111,-1.0812,-1.0588,-1.0204,-0.9526,-0.9114,-0.8563,-0.7815,-0.7562,-0.7394,-0.7077,-0.6884,-0.6579,-0.5929,-0.5277,-0.4734,-0.4377,-0.3761,-0.337,-0.3137,-0.3137,-0.2981,-0.2668,-0.2589,-0.2433,-0.2277,-0.2353,-0.2133,-1.8254,-1.7881,-1.7678,-1.7222,-1.7504,-1.7907,0.0,0.0,0.0,0.0,0.0,0.0,0.0,0.0,0.0,0.0,0.0,0.0,0.0,0.0,0.0,0.0,0.0,0.0,0.0,0.0,0.0,0.0,0.0,0.0,-2.0829,-2.0583,-2.0449,-2.0348,-2.0085,-1.9889,-1.9762,-1.9884,-1.969,-1.9207,-1.8717,-1.8266,-1.7787,-1.7393,-1.7199,-1.7199,-1.7199,-1.7115,-1.6976,-1.6976,-1.6667,-1.6207,-1.6095,-1.5788,-1.5344,-1.5175,-1.4812,-1.4466,-1.4326,-1.4339,-1.4489,-1.4966,-1.5426,-1.5977,-1.6504,-1.6842,-1.7011,-1.7078,-1.7088,-1.7043,-1.657,-1.6083,-1.5684,-1.5385,-1.478,-1.434,-1.4603,-1.4657,-1.4497,-1.3905,-1.3105,-1.2231,-1.1484,-1.1111,-1.072,-1.0358,-1.0353,-1.0109,-0.9285,-0.8846,-0.8335,-0.7678,-0.7396,-0.7167,-0.6753,-0.6453,-0.5999,-0.5138,-0.4745,-0.4341,-0.3834,-0.3528,-0.3137,-0.2826,-0.2746,-0.2746,-0.2746,-0.2589,-0.2511,-0.2511,-0.2353,-0.1906,-1.7576,-1.6999,-1.659,-1.6565,-1.6951,-1.7353,0.0,0.0,0.0,0.0,0.0,0.0,0.0,0.0,0.0,0.0,0.0,0.0,0.0,0.0,0.0,0.0,0.0,0.0,0.0,0.0,0.0,0.0,0.0,0.0,-2.0348,-2.0731,-2.0829,-2.0514,-2.0364,-2.0174,-2.0005,-1.9884,-1.9603,-1.9207,-1.8717,-1.8266,-1.7787,-1.7393,-1.7199,-1.7199,-1.7199,-1.6892,-1.6355,-1.6355,-1.6008,-1.5433,-1.5389,-1.5344,-1.5266,-1.4731,-1.4455,-1.4373,-1.4114,-1.3879,-1.3845,-1.4993,-1.5299,-1.549,-1.662,-1.7011,-1.7011,-1.7211,-1.6987,-1.657,-1.6187,-1.5449,-1.4758,-1.4736,-1.4423,-1.4139,-1.4122,-1.397,-1.3833,-1.3833,-1.2806,-1.1929,-1.1484,-1.1186,-1.073,-0.9772,-0.9958,-0.9863,-0.8846,-0.8551,-0.8273,-0.785,-0.7132,-0.6753,-0.6675,-0.5891,-0.5285,-0.5144,-0.4387,-0.3893,-0.3837,-0.3215,-0.2826,-0.2826,-0.2589,-0.2511,-0.2511,-0.2511,-0.2511,-0.251,-0.1882,-0.1509,-1.8053,-1.7501,-1.6986,-1.6609,-1.6637,-1.6795,-1.6795,0.0,0.0,0.0,0.0,0.0,0.0,0.0,0.0,0.0,0.0,0.0,0.0,0.0,0.0,0.0,0.0,0.0,0.0,0.0,0.0,0.0,0.0,0.0,-1.9909,-2.007,-2.012,-1.998,-1.9945,-1.9889,-1.9884,-1.9442,-1.9095,-1.8817,-1.8252,-1.7787,-1.7393,-1.7282,-1.7157,-1.7031,-1.6765,-1.6484,-1.6269,-1.5876,-1.5433,-1.4926,-1.4835,-1.4663,-1.4419,-1.4035,-1.3999,-1.4104,-1.3858,-1.401,-1.4416,-1.5078,-1.5542,-1.602,-1.6761,-1.7078,-1.7088,-1.6662,-1.6425,-1.6083,-1.5138,-1.4634,-1.4391,-1.4313,-1.434,-1.4299,-1.3986,-1.3822,-1.3542,-1.2806,-1.2298,-1.1723,-1.0888,-1.0645,-1.0271,-0.9658,-0.934,-0.9048,-0.8605,-0.823,-0.7793,-0.7189,-0.6849,-0.6408,-0.5749,-0.5426,-0.5014,-0.4426,-0.4098,-0.3747,-0.3372,-0.2982,-0.2746,-0.2589,-0.2117,-0.2117,-0.2511,-0.2511,-0.2275,-0.1882,-0.1724,-0.1281,-1.8581,-1.794,-1.7287,0.0,-1.666,-1.6522,-1.6522,0.0,0.0,0.0,0.0,0.0,0.0,0.0,0.0,0.0,0.0,0.0,0.0,0.0,0.0,0.0,0.0,0.0,0.0,0.0,0.0,0.0,0.0,0.0,-1.9442,-1.9442,-1.953,-1.969,-1.969,-1.9726,-1.9762,-1.9221,-1.8831,-1.8472,-1.7988,-1.7516,-1.7115,-1.7199,-1.7031,-1.6723,-1.6225,-1.6008,-1.592,-1.5332,-1.4789,-1.434,-1.4294,-1.4118,-1.3868,-1.3773,-1.3868,-1.41,-1.3993,-1.4345,-1.497,-1.5425,-1.5945,-1.6418,-1.6759,-1.6909,-1.6729,-1.6083,-1.5671,-1.5284,-1.4427,-1.4247,-1.418,-1.386,-1.4096,-1.4129,-1.339,-1.3324,-1.3178,-1.2224,-1.1855,-1.1396,-1.0405,-1.0225,-0.9967,-0.9136,-0.8816,-0.8462,-0.8163,-0.7736,-0.7243,-0.6843,-0.6435,-0.5922,-0.5229,-0.5014,-0.4698,-0.4125,-0.3776,-0.3473,-0.3137,-0.2826,-0.2511,-0.2196,-0.1803,-0.1803,-0.2196,-0.2196,-0.196,-0.149,-0.149,-0.0885,0.0,0.0,0.0,0.0,0.0,0.0,-1.6522,0.0,0.0,0.0,0.0,0.0,0.0,0.0,0.0,0.0,0.0,0.0,0.0,0.0,0.0,0.0,0.0,0.0,0.0,0.0,0.0,0.0,0.0,-1.8893,-1.8893,-1.8893,-1.9132,-1.9639,-1.969,-1.969,-1.969,-1.9273,-1.8822,-1.8266,-1.7908,-1.7516,-1.7002,-1.7115,-1.6837,-1.6269,-1.5656,-1.5344,-1.522,-1.4687,-1.4154,-1.361,-1.3716,-1.3716,-1.3621,-1.3868,-1.4115,-1.4354,-1.457,-1.4927,-1.5352,-1.6084,-1.6353,-1.6407,-1.6546,-1.6322,-1.5958,-1.5459,-1.4805,-1.4183,-1.4285,-1.4181,-1.3909,-1.3367,-1.3536,-1.347,-1.2224,-1.2452,-1.2673,-1.2077,-1.1477,-1.0799,-1.0042,-1.0064,-0.9674,-0.8308,-0.8238,-0.8158,-0.755,-0.7007,-0.6751,-0.6869,-0.5931,-0.5297,-0.5362,-0.4617,-0.4159,-0.4159,-0.3484,-0.3062,-0.3062,-0.2668,-0.2196,-0.1646,-0.1568,-0.1568,-0.1568,-0.1568,-0.1491,-0.1335,-0.1258,-0.0483,-1.8316,0.0,0.0,0.0,0.0,0.0,0.0,0.0,0.0,0.0,0.0,0.0,0.0,0.0,0.0,0.0,0.0,0.0,0.0,0.0,0.0,0.0,0.0,0.0,0.0,0.0,0.0,0.0,-1.8263,-1.8341,-1.8341,-1.8688,-1.8968,-1.9132,-1.9479,-1.953,-1.9132,-1.8626,-1.8198,-1.7868,-1.7282,-1.7002,-1.7002,-1.7002,-1.665,-1.6076,-1.5534,-1.5085,-1.4593,-1.4071,-1.3742,-1.3621,-1.3621,-1.3668,-1.3716,-1.3716,-1.4094,-1.4539,-1.4163,-1.4673,-1.5465,-1.5332,-1.5594,-1.5941,-1.579,-1.57,-1.5391,-1.4433,-1.4016,-1.3813,-1.3785,-1.3632,-1.3474,-1.3573,-1.3411,-1.2966,-1.215,-1.1929,-1.1632,-1.1037,-1.0672,-1.0243,-0.9488,-0.9093,-0.8675,-0.8123,-0.7876,-0.7522,-0.7007,-0.686,-0.6559,-0.5851,-0.5537,-0.512,-0.4434,-0.4247,-0.3933,-0.3404,-0.3175,-0.2982,-0.2668,-0.2117,-0.196,-0.2275,-0.1098,-0.0785,-0.1413,-0.1413,-0.1335,-0.1258,0.016,0.1053,-1.8709,-1.814,-1.7496,-1.7169,0.0,0.0,-1.6194,-1.6337,0.0,0.0,0.0,0.0,0.0,0.0,0.0,0.0,0.0,0.0,0.0,0.0,0.0,0.0,0.0,0.0,0.0,0.0,0.0,0.0,-1.7626,-1.7787,-1.7787,-1.8263,-1.8574,-1.8574,-1.8855,-1.8893,-1.8574,-1.808,-1.772,-1.753,-1.7031,-1.6803,-1.6876,-1.6607,-1.6219,-1.568,-1.5119,-1.4582,-1.4046,-1.3716,-1.3621,-1.361,-1.3716,-1.3773,-1.3716,-1.3763,-1.4104,-1.4591,-1.4567,-1.4972,-1.551,-1.5592,-1.5601,-1.5522,-1.5216,-1.4932,-1.4501,-1.3674,-1.3532,-1.3617,-1.3275,-1.334,-1.3386,-1.3128,-1.2666,-1.2077,-1.1484,-1.1037,-1.0708,-1.0456,-1.0171,-0.9741,-0.8976,-0.8601,-0.824,-0.7887,-0.7466,-0.7123,-0.6793,-0.6478,-0.5976,-0.5256,-0.4977,-0.4601,-0.3977,-0.3808,-0.3534,-0.3074,-0.296,-0.2746,-0.2511,-0.2195,-0.196,-0.1962,-0.1021,-0.0236,0.0314,-0.0157,-0.0471,-0.0549,0.1607,0.2601,-1.9267,-1.8696,-1.7944,-1.7944,0.0,0.0,-1.5727,-1.6093,-1.6411,0.0,0.0,0.0,0.0,0.0,0.0,0.0,0.0,0.0,0.0,0.0,0.0,0.0,0.0,0.0,0.0,0.0,-1.6993,-1.6552,-1.6951,-1.7188,-1.7188,-1.7706,-1.8027,-1.8027,-1.8066,-1.8066,-1.8027,-1.7652,-1.738,-1.7229,-1.6989,-1.6761,-1.659,-1.6175,-1.5668,-1.513,-1.4571,-1.4025,-1.3621,-1.3621,-1.361,-1.3621,-1.3868,-1.3821,-1.3668,-1.3821,-1.4163,-1.4616,-1.518,-1.5363,-1.5485,-1.6059,-1.5736,-1.4993,-1.4638,-1.4094,-1.3545,-1.3094,-1.3219,-1.3404,-1.2841,-1.3175,-1.3353,-1.2218,-1.1632,-1.1111,-1.0588,-1.0143,-0.9852,-1.0053,-0.9757,-0.923,-0.8455,-0.829,-0.8081,-0.7518,-0.7118,-0.6757,-0.6708,-0.5877,-0.5152,-0.4889,-0.4468,-0.406,-0.3756,-0.3374,-0.3062,-0.3062,-0.2668,-0.2511,-0.2511,-0.2433,-0.2041,-0.1414,-0.1178,0.0157,0.2675,0.149,0.0862,0.0862,0.2887,0.381,-1.709,-1.6678,0.0,0.0,0.0,0.0,-1.5609,-1.6334,-1.694,0.0,0.0,0.0,0.0,0.0,0.0,0.0,0.0,0.0,0.0,0.0,0.0,0.0,0.0,0.0,0.0,0.0,-1.6595,-1.6522,-1.6595,-1.668,-1.668,-1.7146,-1.7463,-1.7463,-1.7867,-1.7907,-1.7463,-1.7394,-1.7173,-1.6833,-1.665,-1.638,-1.5976,-1.5888,-1.5299,-1.4408,-1.4408,-1.4082,-1.3621,-1.3716,-1.3716,-1.3621,-1.3668,-1.3716,-1.3716,-1.3467,-1.3997,-1.4712,-1.4033,-1.446,-1.511,-1.4503,-1.4308,-1.4201,-1.3545,-1.3216,-1.3094,-1.2744,-1.2924,-1.3121,-1.2788,-1.2658,-1.2506,-1.1723,-1.1111,-1.0513,-1.0143,-0.9695,-0.9406,-0.9243,-0.9052,-0.8704,-0.8025,-0.7769,-0.7494,-0.7089,-0.6647,-0.6091,-0.5306,-0.4862,-0.4428,-0.3925,-0.3846,-0.3669,-0.3295,-0.3141,-0.2982,-0.2668,-0.2511,-0.2511,-0.2511,-0.1884,-0.1727,-0.2276,-0.0627,0.1333,0.3538,0.2196,0.2117,0.3141,0.3632,0.3797,0.0,0.0,0.0,-1.6278,0.0,0.0,0.0,-1.5618,-1.6056,0.0,0.0,0.0,0.0,0.0,0.0,0.0,0.0,0.0,0.0,0.0,0.0,0.0,0.0,0.0,0.0,0.0,-1.6051,-1.6051,-1.5788,-1.5888,-1.6466,-1.6471,-1.6587,-1.6879,-1.7146,-1.7146,-1.6909,-1.6909,-1.6808,-1.662,-1.6238,-1.5964,-1.5788,-1.5197,-1.4663,-1.428,-1.4035,-1.381,-1.3621,-1.3668,-1.3668,-1.361,-1.3773,-1.3909,-1.4011,-1.3718,-1.4092,-1.4676,-1.3945,-1.4009,-1.4389,-1.3885,-1.358,-1.3381,-1.3105,-1.2928,-1.2744,-1.2621,-1.2625,-1.26,-1.216,-1.1875,-1.154,-1.0882,-1.0251,-0.9665,-0.9516,-0.915,-0.8793,-0.8568,-0.8529,-0.8394,-0.8036,-0.7633,-0.7185,-0.6794,-0.6097,-0.5381,-0.4651,-0.4315,-0.3923,-0.3388,-0.3428,-0.3295,-0.2826,-0.2826,-0.2746,-0.2511,-0.2511,-0.2511,-0.2511,-0.1568,-0.1097,-0.1019,0.1097,0.2746,0.3773,0.3059,0.3136,0.3769,0.3769,0.3767,0.0,0.0,0.0,0.0,0.0,-1.581,0.0,0.0,0.0,0.0,0.0,0.0,0.0,0.0,0.0,0.0,0.0,0.0,0.0,0.0,0.0,0.0,0.0,0.0,0.0,0.0,-1.541,-1.541,-1.4971,-1.5107,-1.6107,-1.5688,-1.5688,-1.6293,-1.6194,-1.6207,-1.6337,-1.6207,-1.6151,-1.6151,-1.5644,-1.5466,-1.5421,-1.4479,-1.4082,-1.4186,-1.3658,-1.342,-1.3467,-1.3467,-1.3372,-1.3324,-1.3773,-1.3993,-1.407,-1.3831,-1.3993,-1.4232,-1.3681,-1.3496,-1.3467,-1.345,-1.3143,-1.2805,-1.2867,-1.2744,-1.256,-1.2498,-1.2319,-1.2034,-1.1431,-1.1073,-1.0742,-1.012,-0.9447,-0.8978,-0.8905,-0.8583,-0.8302,-0.8165,-0.821,-0.8175,-0.7924,-0.7416,-0.6853,-0.6246,-0.5386,-0.459,-0.4199,-0.3772,-0.3366,-0.3041,-0.2974,-0.2826,-0.2511,-0.2511,-0.2511,-0.2511,-0.2511,-0.2431,-0.2196,-0.1019,0.0078,0.1019,0.2826,0.3773,0.3771,0.3767,0.3763,0.3763,0.3763,0.3763,0.0,0.0,0.0,0.0,-1.5971,0.0,0.0,0.0,0.0,0.0,0.0,0.0,0.0,0.0,0.0,0.0,0.0,0.0,0.0,0.0,0.0,0.0,0.0,0.0,0.0,0.0,0.0,-1.4789,-1.4744,-1.4755,-1.4892,-1.4835,-1.5062,-1.5676,-1.5197,-1.5152,-1.5688,-1.5186,-1.488,-1.488,-1.4835,-1.4606,-1.4201,-1.4165,-1.3941,-1.3515,-1.3563,-1.3314,-1.2909,-1.2909,-1.2628,-1.2295,-1.3276,-1.3498,-1.3298,-1.2988,-1.2851,-1.2761,-1.2235,-1.2281,-1.252,-1.2503,-1.2506,-1.2629,-1.2621,-1.2621,-1.2498,-1.1996,-1.1894,-1.1672,-1.0831,-1.0597,-1.0343,-0.9558,-0.9204,-0.8905,-0.8548,-0.8322,-0.8165,-0.8335,-0.7941,-0.7475,-0.7194,-0.6838,-0.6168,-0.5054,-0.438,-0.374,-0.3227,-0.2897,-0.2568,-0.2512,-0.2556,-0.2589,-0.2511,-0.2511,-0.2511,-0.2511,-0.2511,-0.2038,-0.1097,0.0548,0.2038,0.3377,0.3694,0.3771,0.3765,0.3763,0.3763,0.3763,0.3763,0.3763,0.0,0.0,0.0,0.0,0.0,0.0,-1.4929,0.0,-1.546,0.0,0.0,0.0,0.0,0.0,0.0,0.0,0.0,0.0,0.0,0.0,0.0,0.0,0.0,0.0,0.0,0.0,0.0,0.0,0.0,-1.3978,-1.4663,-1.4376,-1.4543,-1.5417,-1.5159,-1.5305,-1.5827,-1.5305,-1.5076,-1.5018,-1.4565,-1.4247,-1.4118,-1.3789,-1.3552,-1.342,-1.3467,-1.316,-1.256,-1.2764,-1.2374,-1.1832,-1.2365,-1.2664,-1.2761,-1.2663,-1.2588,-1.2439,-1.1764,-1.1798,-1.223,-1.217,-1.2257,-1.2251,-1.1934,-1.1872,-1.174,-1.1226,-1.085,-1.0564,-1.0177,-0.9746,-0.93,-0.9001,-0.8618,-0.8248,-0.8112,-0.8061,-0.8032,-0.7767,-0.7651,-0.72,-0.6022,-0.5755,-0.5434,-0.4367,-0.3713,-0.3183,-0.2679,-0.2502,-0.2462,-0.2471,-0.2495,-0.2511,-0.2511,-0.2511,-0.2511,-0.2511,-0.1882,-0.0861,0.086,0.1565,0.2585,0.3767,0.3767,0.3767,0.3763,0.3763,0.3763,0.3763,0.3763,0.3763,-1.541,0.0,0.0,0.0,0.0,0.0,0.0,0.0,0.0,0.0,0.0,0.0,0.0,0.0,0.0,-1.3916,0.0,0.0,0.0,0.0,0.0,0.0,0.0,0.0,0.0,0.0,0.0,0.0,0.0,0.0,-1.4154,-1.3779,-1.3989,-1.5006,-1.4893,-1.5131,-1.5771,-1.5211,-1.4988,-1.4978,-1.4373,-1.4129,-1.4216,-1.3654,-1.3518,-1.3777,-1.3319,-1.2881,-1.2426,-1.2314,-1.1823,-1.1174,-1.1275,-1.1498,-1.1791,-1.2126,-1.2176,-1.2047,-1.1495,-1.1561,-1.1964,-1.2135,-1.2058,-1.1809,-1.149,-1.124,-1.1045,-1.0521,-1.0142,-0.9805,-0.9597,-0.9078,-0.8667,-0.8488,-0.818,-0.7848,-0.7792,-0.778,-0.7581,-0.7214,-0.6968,-0.636,-0.5039,-0.4916,-0.4651,-0.3714,-0.3118,-0.2728,-0.2369,-0.2414,-0.2455,-0.2482,-0.25,-0.2511,-0.2511,-0.2511,-0.2275,-0.1724,-0.0705,0.0626,0.2584,0.266,0.2974,0.3763,0.3763,0.3763,0.3763,0.3763,0.3763,0.3763,0.3763,0.3763,0.0,0.0,0.0,-1.541,0.0,0.0,0.0,0.0,-1.5958,0.0,0.0,0.0,0.0,0.0,-1.4102,-1.4092,-1.375,0.0,0.0,0.0,0.0,0.0,0.0,0.0,0.0,0.0,0.0,0.0,0.0,0.0,-1.2978,-1.2929,-1.339,-1.438,-1.3882,-1.4062,-1.5133,-1.4483,-1.4165,-1.4165,-1.4334,-1.4387,-1.4294,-1.4012,-1.4205,-1.4685,-1.3124,-1.2442,-1.2416,-1.1345,-1.0549,-1.0051,-1.0051,-1.0007,-1.0008,-1.1125,-1.1428,-1.1228,-1.1228,-1.133,-1.16,-1.2127,-1.1864,-1.1365,-1.1483,-1.1178,-1.0674,-1.0148,-1.003,-0.9916,-0.9052,-0.884,-0.8752,-0.8269,-0.8075,-0.8018,-0.7825,-0.7221,-0.6813,-0.7001,-0.579,-0.468,-0.4402,-0.4359,-0.4075,-0.2918,-0.2591,-0.2376,-0.2194,-0.2401,-0.2486,-0.2428,-0.2476,-0.2511,-0.2511,-0.2511,-0.1646,0.0392,0.1175,0.2275,0.3694,0.3767,0.3763,0.3763,0.3763,0.3763,0.3763,0.3763,0.3763,0.3763,0.3763,0.3763,0.0,0.0,-1.4746,-1.5294,0.0,0.0,0.0,0.0,0.0,0.0,0.0,0.0,0.0,-1.4668,-1.4473,-1.4126,-1.4014,-1.3828,0.0,0.0,0.0,0.0,0.0,0.0,0.0,0.0,0.0,0.0,0.0,0.0,0.0,-1.2466,-1.3109,-1.4148,-1.4297,-1.4661,-1.5309,-1.4808,-1.4625,-1.468,-1.4449,-1.4141,-1.3834,-1.3657,-1.3443,-1.3159,-1.2618,-1.2052,-1.1403,-1.1242,-1.0585,-0.9725,-0.9844,-0.9926,-1.0065,-1.0509,-1.0478,-1.0225,-1.0666,-1.0974,-1.1241,-1.1265,-1.1178,-1.0863,-1.0225,-0.9907,-0.9652,-0.9005,-0.8809,-0.8777,-0.8342,-0.818,-0.8069,-0.7936,-0.7773,-0.7583,-0.7185,-0.6953,-0.6607,-0.5631,-0.5155,-0.4533,-0.3565,-0.3332,-0.3086,-0.2427,-0.2411,-0.24,-0.2298,-0.2428,-0.2565,-0.2473,-0.2497,-0.2511,-0.2511,-0.1489,-0.0157,0.1332,0.1724,0.243,0.3767,0.3765,0.3763,0.3763,0.3763,0.3763,0.3763,0.3763,0.3763,0.3763,0.3763,0.3763,-1.541,-1.4991,0.0,-1.4932,-1.4569,0.0,-1.4874,0.0,0.0,0.0,0.0,0.0,0.0,0.0,-1.4743,-1.3839,-1.4069,-1.4101,0.0,-1.3023,0.0,0.0,0.0,0.0,0.0,0.0,0.0,0.0,0.0,0.0,0.0,0.0,-1.2732,-1.3286,-1.4265,-1.4867,-1.4982,-1.5022,-1.4953,-1.4839,-1.4792,-1.4359,-1.3559,-1.3599,-1.3385,-1.2845,-1.2299,-1.1724,-1.1176,-1.0995,-1.0447,-0.979,-0.9857,-1.0048,-1.0258,-1.021,-1.0071,-0.993,-1.0457,-1.0703,-1.0718,-1.0669,-1.0478,-1.0168,-0.9524,-0.9145,-0.8888,-0.8366,-0.8229,-0.8174,-0.8041,-0.7942,-0.7817,-0.7736,-0.7617,-0.7437,-0.6697,-0.6475,-0.5984,-0.4729,-0.429,-0.3854,-0.2966,-0.2674,-0.2449,-0.2224,-0.2327,-0.2317,-0.2326,-0.2443,-0.2575,-0.2501,-0.2195,-0.1882,-0.1646,-0.0313,0.1019,0.2353,0.2511,0.2981,0.3763,0.3763,0.3779,0.3812,0.3779,0.3779,0.3812,0.3779,0.3763,0.3684,0.3684,0.3606]},{"header":{"parameterUnit":"m.s-1","parameterCategory":1,"la1":30.6,"la2":29.2853,"lo1":-89.7004,"lo2":-87.6739,"dy":0.0162,"dx":0.0183,"nx":112,"ny":82,"refTime":"2023-05-15T12:00:00:Z","depth":0,"parameterNumber":3,"parameterNumberName":"V-component_of_WINDS"},"data":[0.0,0.0,0.0,0.0,0.0,0.0,0.0,0.0,0.0,0.0,0.0,0.0,0.0,0.0,0.0,0.0,0.0,0.0,0.0,0.0,0.0,0.0,0.0,0.0,0.0,0.0,0.0,0.0,0.0,0.0,0.0,0.0,0.0,0.0,0.0,0.0,0.0,0.0,0.0,0.0,0.0,0.0,0.0,0.0,0.0,0.0,0.0,0.0,0.0,0.0,0.0,0.0,0.0,0.0,0.0,0.0,0.0,0.0,0.0,0.0,0.0,0.0,0.0,0.0,0.0,0.0,0.0,0.0,0.0,0.0,0.0,0.0,0.0,0.0,0.0,0.0,0.0,0.0,0.0,0.0,0.0,0.0,0.0,0.0,0.0,0.0,0.0,0.0,0.0,0.0,-2.6853,-2.8695,-2.9514,-2.9324,-2.7833,-2.7349,-2.6327,-2.4495,0.0,0.0,0.0,0.0,0.0,0.0,0.0,0.0,0.0,0.0,0.0,0.0,0.0,0.0,0.0,0.0,0.0,0.0,0.0,0.0,0.0,0.0,0.0,0.0,0.0,0.0,0.0,0.0,0.0,0.0,0.0,0.0,0.0,0.0,0.0,0.0,0.0,0.0,0.0,0.0,0.0,0.0,0.0,0.0,0.0,0.0,0.0,0.0,0.0,0.0,0.0,0.0,0.0,0.0,0.0,0.0,0.0,0.0,0.0,0.0,0.0,0.0,0.0,0.0,0.0,0.0,0.0,0.0,0.0,0.0,0.0,0.0,0.0,0.0,0.0,0.0,0.0,0.0,0.0,0.0,0.0,0.0,0.0,0.0,0.0,0.0,0.0,0.0,0.0,0.0,0.0,0.0,0.0,0.0,0.0,0.0,0.0,0.0,0.0,0.0,0.0,0.0,0.0,0.0,-2.7901,-2.9551,-2.8539,-2.777,-2.7786,-2.5808,-2.4479,-2.4343,0.0,0.0,0.0,0.0,0.0,0.0,0.0,0.0,0.0,0.0,0.0,0.0,0.0,0.0,0.0,0.0,0.0,0.0,0.0,0.0,0.0,0.0,0.0,0.0,0.0,0.0,0.0,0.0,0.0,0.0,0.0,0.0,0.0,0.0,0.0,0.0,0.0,0.0,0.0,0.0,0.0,0.0,0.0,0.0,0.0,0.0,0.0,0.0,0.0,0.0,0.0,0.0,0.0,0.0,0.0,0.0,0.0,0.0,0.0,0.0,0.0,0.0,0.0,0.0,0.0,0.0,0.0,0.0,0.0,0.0,0.0,0.0,0.0,0.0,0.0,0.0,0.0,0.0,0.0,0.0,0.0,0.0,0.0,0.0,0.0,0.0,0.0,0.0,0.0,0.0,0.0,0.0,0.0,0.0,0.0,0.0,0.0,0.0,0.0,0.0,0.0,0.0,0.0,-2.7297,-2.7791,-2.8558,-2.803,-2.7344,-2.6621,-2.5077,-2.4156,-2.4156,-2.3718,0.0,0.0,0.0,0.0,0.0,0.0,0.0,0.0,0.0,0.0,0.0,0.0,0.0,0.0,0.0,0.0,0.0,0.0,0.0,0.0,0.0,0.0,0.0,0.0,0.0,0.0,0.0,0.0,0.0,0.0,0.0,0.0,0.0,0.0,0.0,0.0,0.0,0.0,0.0,0.0,0.0,0.0,0.0,0.0,0.0,0.0,0.0,0.0,0.0,0.0,0.0,0.0,0.0,0.0,0.0,0.0,0.0,0.0,0.0,0.0,0.0,0.0,0.0,0.0,0.0,0.0,0.0,0.0,0.0,0.0,0.0,0.0,0.0,0.0,0.0,0.0,0.0,0.0,0.0,0.0,0.0,0.0,0.0,0.0,0.0,0.0,0.0,0.0,0.0,0.0,0.0,0.0,0.0,0.0,0.0,0.0,0.0,0.0,0.0,0.0,0.0,0.0,-2.7288,-2.7313,-2.7401,-2.7155,-2.6521,-2.5365,-2.4375,-2.3833,-2.3853,-2.3057,0.0,0.0,0.0,0.0,0.0,0.0,0.0,0.0,0.0,0.0,0.0,0.0,0.0,0.0,0.0,0.0,0.0,0.0,0.0,0.0,0.0,0.0,0.0,0.0,0.0,0.0,0.0,0.0,0.0,0.0,0.0,0.0,0.0,0.0,0.0,0.0,0.0,0.0,0.0,0.0,0.0,0.0,0.0,0.0,0.0,0.0,0.0,0.0,0.0,0.0,0.0,0.0,0.0,0.0,0.0,0.0,0.0,0.0,0.0,0.0,0.0,0.0,0.0,0.0,0.0,0.0,0.0,0.0,0.0,0.0,0.0,0.0,0.0,0.0,0.0,0.0,0.0,0.0,0.0,0.0,0.0,0.0,0.0,0.0,0.0,0.0,0.0,0.0,0.0,0.0,0.0,0.0,0.0,0.0,0.0,0.0,0.0,0.0,0.0,0.0,0.0,0.0,-2.6726,-2.6644,-2.6845,-2.5323,-2.4337,-2.453,-2.3277,-2.2722,-2.3401,-2.2728,0.0,0.0,0.0,0.0,0.0,0.0,0.0,0.0,0.0,0.0,0.0,0.0,0.0,0.0,0.0,0.0,0.0,0.0,0.0,0.0,0.0,0.0,0.0,0.0,0.0,0.0,0.0,0.0,0.0,0.0,0.0,0.0,0.0,0.0,0.0,0.0,0.0,0.0,0.0,0.0,0.0,0.0,0.0,0.0,0.0,0.0,0.0,0.0,0.0,0.0,0.0,0.0,0.0,0.0,0.0,0.0,0.0,0.0,0.0,0.0,0.0,0.0,0.0,0.0,0.0,0.0,0.0,0.0,0.0,0.0,0.0,0.0,0.0,0.0,0.0,0.0,0.0,0.0,0.0,0.0,0.0,0.0,0.0,0.0,0.0,0.0,0.0,0.0,0.0,0.0,0.0,0.0,0.0,0.0,0.0,0.0,0.0,0.0,0.0,0.0,0.0,0.0,-2.5714,-2.5308,0.0,-2.4464,-2.3482,-2.3168,-2.2632,-2.2429,-2.2699,0.0,0.0,0.0,0.0,0.0,0.0,0.0,0.0,0.0,0.0,0.0,0.0,0.0,0.0,0.0,0.0,0.0,0.0,0.0,0.0,0.0,0.0,0.0,0.0,0.0,0.0,0.0,0.0,0.0,0.0,0.0,0.0,0.0,0.0,0.0,0.0,0.0,0.0,0.0,0.0,0.0,0.0,0.0,0.0,0.0,0.0,0.0,0.0,0.0,0.0,0.0,0.0,0.0,0.0,0.0,0.0,0.0,0.0,0.0,0.0,0.0,0.0,0.0,0.0,0.0,0.0,0.0,0.0,0.0,0.0,0.0,0.0,0.0,0.0,0.0,0.0,0.0,0.0,0.0,0.0,0.0,0.0,0.0,0.0,0.0,0.0,0.0,0.0,0.0,0.0,0.0,0.0,0.0,0.0,0.0,0.0,0.0,0.0,0.0,0.0,0.0,0.0,-2.5897,-2.4915,-2.4353,0.0,-2.3922,-2.2971,-2.246,-2.2349,-2.231,-2.231,0.0,0.0,0.0,0.0,0.0,0.0,0.0,0.0,0.0,0.0,0.0,0.0,0.0,0.0,0.0,0.0,0.0,0.0,0.0,0.0,0.0,0.0,0.0,0.0,0.0,0.0,0.0,0.0,0.0,0.0,0.0,0.0,0.0,0.0,0.0,0.0,0.0,0.0,0.0,0.0,0.0,0.0,0.0,0.0,0.0,0.0,0.0,0.0,0.0,0.0,0.0,0.0,0.0,0.0,0.0,0.0,0.0,0.0,0.0,0.0,0.0,0.0,0.0,0.0,0.0,0.0,0.0,0.0,0.0,0.0,0.0,0.0,0.0,0.0,0.0,0.0,0.0,0.0,0.0,0.0,0.0,0.0,0.0,0.0,0.0,0.0,0.0,0.0,0.0,0.0,0.0,0.0,0.0,0.0,0.0,0.0,0.0,0.0,0.0,0.0,0.0,0.0,-2.5312,-2.4408,-2.3999,-2.4811,-2.3569,-2.2695,-2.2695,-2.2436,-2.231,0.0,0.0,0.0,0.0,0.0,0.0,0.0,0.0,0.0,0.0,0.0,0.0,0.0,0.0,0.0,0.0,0.0,0.0,0.0,0.0,0.0,0.0,0.0,0.0,0.0,0.0,0.0,0.0,0.0,0.0,0.0,0.0,0.0,0.0,0.0,0.0,0.0,0.0,0.0,0.0,0.0,0.0,0.0,0.0,0.0,0.0,0.0,0.0,0.0,0.0,0.0,0.0,0.0,0.0,0.0,0.0,0.0,0.0,0.0,0.0,0.0,0.0,0.0,0.0,0.0,0.0,0.0,0.0,0.0,0.0,0.0,0.0,0.0,0.0,0.0,0.0,0.0,0.0,0.0,0.0,0.0,0.0,0.0,0.0,0.0,0.0,0.0,0.0,0.0,0.0,0.0,0.0,0.0,0.0,0.0,0.0,0.0,0.0,0.0,0.0,0.0,0.0,0.0,-2.4598,-2.3891,-2.3483,-2.3821,-2.3007,-2.2426,-2.2426,-2.2349,-2.231,-2.231,0.0,0.0,0.0,0.0,0.0,0.0,0.0,0.0,0.0,0.0,0.0,0.0,0.0,0.0,0.0,0.0,0.0,0.0,0.0,0.0,0.0,0.0,0.0,0.0,0.0,0.0,0.0,0.0,0.0,0.0,0.0,0.0,0.0,0.0,0.0,0.0,0.0,0.0,0.0,0.0,0.0,0.0,0.0,0.0,0.0,0.0,0.0,0.0,0.0,0.0,0.0,0.0,0.0,0.0,0.0,0.0,0.0,0.0,0.0,0.0,0.0,0.0,0.0,0.0,0.0,0.0,0.0,0.0,0.0,0.0,0.0,0.0,0.0,0.0,0.0,0.0,0.0,0.0,0.0,0.0,0.0,0.0,0.0,0.0,0.0,0.0,0.0,0.0,0.0,0.0,0.0,0.0,0.0,0.0,0.0,0.0,0.0,0.0,0.0,0.0,0.0,0.0,-2.4075,-2.3561,-2.3239,-2.3308,-2.2801,-2.2463,-2.2463,-2.236,-2.231,-2.231,0.0,0.0,0.0,0.0,0.0,0.0,0.0,0.0,0.0,0.0,0.0,0.0,0.0,0.0,0.0,0.0,0.0,0.0,0.0,0.0,0.0,0.0,0.0,0.0,0.0,0.0,0.0,0.0,0.0,0.0,0.0,0.0,0.0,0.0,0.0,0.0,0.0,0.0,0.0,0.0,0.0,0.0,0.0,0.0,0.0,0.0,0.0,0.0,0.0,0.0,0.0,0.0,0.0,0.0,0.0,0.0,0.0,0.0,0.0,0.0,0.0,0.0,0.0,0.0,0.0,0.0,0.0,0.0,0.0,0.0,0.0,0.0,0.0,0.0,0.0,0.0,0.0,0.0,0.0,0.0,0.0,0.0,0.0,0.0,0.0,0.0,0.0,0.0,0.0,0.0,0.0,0.0,0.0,0.0,0.0,0.0,0.0,0.0,0.0,0.0,0.0,0.0,-2.3692,-2.3437,-2.3236,-2.3189,-2.2923,-2.2746,-2.2695,-2.249,-2.2338,-2.231,0.0,0.0,0.0,0.0,0.0,0.0,0.0,0.0,0.0,0.0,0.0,0.0,0.0,0.0,0.0,0.0,0.0,0.0,0.0,0.0,0.0,0.0,0.0,0.0,0.0,0.0,0.0,0.0,0.0,0.0,0.0,0.0,0.0,0.0,0.0,0.0,0.0,0.0,0.0,0.0,0.0,0.0,0.0,0.0,0.0,0.0,0.0,0.0,0.0,0.0,0.0,0.0,0.0,0.0,0.0,0.0,0.0,0.0,0.0,0.0,-2.0797,0.0,0.0,0.0,0.0,0.0,0.0,0.0,0.0,0.0,0.0,0.0,0.0,0.0,0.0,0.0,0.0,0.0,0.0,0.0,0.0,0.0,0.0,0.0,0.0,0.0,0.0,0.0,0.0,0.0,0.0,0.0,0.0,0.0,0.0,0.0,0.0,0.0,0.0,0.0,0.0,0.0,-2.3735,-2.3649,-2.35,-2.3212,-2.3141,-2.2996,-2.2721,-2.266,-2.251,-2.2293,-2.25,0.0,0.0,0.0,0.0,0.0,0.0,0.0,0.0,0.0,0.0,0.0,0.0,0.0,0.0,0.0,0.0,0.0,0.0,0.0,0.0,0.0,0.0,0.0,0.0,0.0,0.0,0.0,0.0,0.0,0.0,0.0,0.0,0.0,0.0,0.0,0.0,0.0,0.0,0.0,0.0,0.0,0.0,0.0,0.0,0.0,0.0,0.0,0.0,0.0,0.0,0.0,0.0,0.0,0.0,0.0,0.0,0.0,0.0,0.0,0.0,-2.1228,0.0,0.0,0.0,0.0,0.0,0.0,0.0,0.0,0.0,0.0,0.0,0.0,0.0,0.0,0.0,0.0,0.0,0.0,0.0,0.0,0.0,0.0,0.0,0.0,0.0,0.0,0.0,0.0,0.0,0.0,0.0,0.0,0.0,0.0,0.0,0.0,0.0,0.0,0.0,0.0,-2.3477,-2.32,-2.295,-2.2773,-2.2773,-2.2695,-2.2527,-2.2634,-2.2573,-2.2338,-2.2563,0.0,0.0,0.0,0.0,0.0,0.0,0.0,0.0,0.0,0.0,0.0,0.0,0.0,0.0,0.0,0.0,0.0,0.0,0.0,0.0,0.0,0.0,0.0,0.0,0.0,0.0,0.0,0.0,0.0,0.0,0.0,0.0,0.0,0.0,0.0,0.0,0.0,0.0,0.0,0.0,0.0,0.0,0.0,0.0,0.0,0.0,0.0,0.0,0.0,0.0,0.0,0.0,0.0,0.0,-1.9794,-1.969,-1.9809,-1.9794,-1.9747,-2.0548,-2.0862,-2.0926,0.0,0.0,0.0,0.0,0.0,0.0,0.0,0.0,0.0,0.0,0.0,0.0,0.0,0.0,0.0,0.0,0.0,0.0,0.0,0.0,0.0,0.0,0.0,0.0,0.0,-2.4578,-2.4444,0.0,0.0,0.0,0.0,0.0,0.0,0.0,0.0,0.0,0.0,0.0,0.0,-2.33,-2.2798,-2.2497,-2.2535,-2.248,-2.247,-2.247,-2.2599,-2.2573,-2.2338,-2.2563,-2.2721,0.0,0.0,0.0,0.0,0.0,0.0,0.0,0.0,0.0,0.0,0.0,0.0,0.0,0.0,0.0,0.0,0.0,0.0,0.0,0.0,0.0,0.0,0.0,0.0,0.0,0.0,0.0,0.0,0.0,0.0,0.0,0.0,-0.8337,-1.0152,0.0,0.0,0.0,0.0,0.0,0.0,0.0,0.0,0.0,0.0,0.0,0.0,0.0,0.0,-1.9006,-1.9406,-1.9639,-1.969,-2.0288,-2.0258,-1.9705,-2.0303,-2.0258,-1.9726,-2.0193,0.0,-2.0449,-2.0959,0.0,0.0,0.0,0.0,0.0,0.0,0.0,0.0,0.0,0.0,0.0,0.0,0.0,0.0,0.0,0.0,0.0,0.0,0.0,0.0,0.0,0.0,-2.4247,-2.4266,-2.4266,-2.4247,0.0,-2.4393,-2.4545,-2.4512,0.0,0.0,0.0,0.0,0.0,0.0,0.0,0.0,-2.3631,-2.33,-2.3183,-2.3477,-2.3271,-2.3087,-2.3087,-2.2848,-2.2573,-2.2338,-2.2563,-2.2822,-2.3117,-2.3414,0.0,0.0,0.0,0.0,0.0,0.0,0.0,0.0,0.0,0.0,0.0,0.0,0.0,0.0,0.0,0.0,0.0,0.0,0.0,0.0,0.0,0.0,0.0,0.0,0.0,0.0,0.0,0.0,0.0,-0.8591,-1.0789,-1.0265,-1.1778,-1.3396,0.0,0.0,0.0,0.0,0.0,0.0,0.0,0.0,0.0,-1.7312,-1.8066,-1.8612,-1.8893,-1.9497,-1.9967,-2.0273,-2.0946,-2.0917,-2.0273,-2.0572,-2.0333,-1.9726,-1.9874,-1.9965,-2.0035,-2.0943,-2.177,-2.2451,0.0,0.0,0.0,0.0,0.0,-2.3392,-2.3236,0.0,0.0,0.0,0.0,0.0,0.0,0.0,0.0,0.0,0.0,0.0,0.0,0.0,0.0,-2.419,-2.419,-2.419,-2.419,-2.4266,-2.4321,0.0,-2.4247,-2.419,-2.419,0.0,0.0,0.0,0.0,0.0,-2.3692,-2.3414,-2.3277,-2.3392,-2.33,-2.3189,-2.3189,-2.3069,-2.2865,-2.2537,-2.2634,-2.2772,-2.2923,-2.3236,-2.3566,0.0,0.0,0.0,0.0,0.0,0.0,0.0,0.0,0.0,0.0,0.0,0.0,0.0,0.0,0.0,0.0,0.0,0.0,0.0,0.0,0.0,0.0,0.0,0.0,0.0,0.0,0.0,0.0,-0.9694,-1.1832,-1.0402,-1.2064,-1.3616,0.0,0.0,0.0,0.0,0.0,0.0,-1.6281,-1.6782,-1.7183,-1.734,-1.8018,-1.8609,-1.9173,-1.9951,-2.0543,-2.0976,-2.1635,-2.1605,-2.0976,-2.1141,-2.0752,-1.9944,-2.0074,-2.0076,-2.012,-2.1055,-2.1757,-2.2307,-2.2502,-2.2789,-2.3069,-2.2989,-2.3014,-2.3069,-2.2989,-2.2996,-2.3069,-2.3069,0.0,-2.3738,-2.3966,0.0,0.0,0.0,0.0,-2.417,-2.4094,0.0,-2.4054,-2.3958,-2.4016,-2.4074,-2.4074,-2.4151,-2.419,0.0,-2.419,-2.419,-2.419,0.0,0.0,0.0,0.0,-2.3692,-2.3692,-2.3414,-2.3236,-2.3323,-2.3236,-2.3236,-2.3323,-2.3236,-2.3093,-2.2848,-2.2822,-2.2873,-2.2947,-2.3189,-2.35,-2.3816,0.0,0.0,0.0,0.0,0.0,0.0,0.0,0.0,0.0,0.0,0.0,0.0,0.0,0.0,0.0,0.0,0.0,0.0,0.0,0.0,0.0,0.0,0.0,0.0,0.0,0.0,0.0,0.0,0.0,-1.1607,-1.1805,0.0,0.0,0.0,0.0,-1.4801,-1.5832,-1.6238,-1.5676,-1.6225,-1.6804,-1.737,-1.8473,-1.9308,-1.9848,-2.0997,-2.161,-2.1665,-2.2308,-2.2278,-2.1665,-2.2293,-2.1874,-2.0662,-2.1054,-2.1127,-2.0926,-2.0991,-2.1055,-2.1181,-2.2003,-2.249,-2.2695,-2.2426,-2.2517,-2.2686,-2.2426,-2.25,-2.2721,-2.2721,-2.3165,-2.3756,-2.4094,-2.4209,0.0,0.0,-2.4209,-2.4132,-2.3816,-2.3732,-2.3631,-2.3323,-2.3482,-2.3732,-2.3732,-2.3976,-2.419,0.0,-2.419,-2.419,-2.419,0.0,-2.419,-2.419,-2.3917,-2.3692,-2.3692,-2.3414,-2.3323,-2.3649,-2.3392,-2.3346,-2.3649,-2.3392,-2.3189,-2.3165,-2.3165,-2.3323,-2.3649,-2.3671,-2.3837,-2.417,-2.419,0.0,0.0,0.0,0.0,0.0,0.0,0.0,0.0,0.0,0.0,0.0,0.0,0.0,0.0,0.0,0.0,0.0,0.0,0.0,0.0,0.0,0.0,0.0,0.0,0.0,0.0,0.0,0.0,-1.1814,-1.2236,0.0,-1.3721,-1.4003,-1.4457,-1.5231,-1.5688,-1.6166,-1.6712,-1.6973,-1.7338,-1.789,-1.8629,-1.9317,-1.9901,-2.1112,-2.1921,-2.2338,-2.2966,-2.2936,-2.2338,-2.2604,-2.2188,-2.1335,-2.1514,-2.1516,-2.1427,-2.1272,-2.1456,-2.1886,-2.218,-2.2377,-2.2426,-2.2349,-2.236,-2.2426,-2.2321,-2.236,-2.2463,-2.2634,-2.2873,-2.3117,-2.3437,-2.3566,-2.3588,-2.3816,-2.3876,-2.3896,-2.3996,-2.4016,-2.3996,-2.3876,-2.3937,-2.4016,-2.4016,-2.4132,-2.419,-2.419,-2.419,-2.419,-2.419,-2.419,-2.419,-2.419,-2.4094,-2.4016,-2.4016,-2.3917,-2.3896,-2.4016,-2.3917,-2.3896,-2.4016,-2.3714,-2.3522,-2.3522,-2.3323,-2.3346,-2.3692,-2.3692,-2.3876,-2.419,-2.419,-2.419,0.0,0.0,0.0,0.0,0.0,0.0,0.0,0.0,0.0,0.0,0.0,0.0,0.0,0.0,0.0,0.0,0.0,0.0,0.0,0.0,0.0,0.0,0.0,0.0,0.0,0.0,-1.2452,-1.2187,-1.2608,-1.3125,-1.3672,-1.4105,-1.4671,-1.5392,-1.6077,-1.6715,-1.7338,-1.756,-1.7915,-1.8468,-1.9232,-1.994,-2.0509,-2.1757,-2.2569,-2.2996,-2.34,-2.3385,-2.2981,-2.2981,-2.2637,-2.2024,-2.2169,-2.2112,-2.1879,-2.1631,-2.1891,-2.2383,-2.2161,-2.2163,-2.231,-2.231,-2.231,-2.231,-2.231,-2.231,-2.2349,-2.2625,-2.2695,-2.2772,-2.3093,-2.3277,-2.3414,-2.361,-2.3692,-2.3753,-2.3955,-2.3855,-2.3692,-2.3692,-2.3692,-2.3692,-2.3692,-2.3795,-2.3896,-2.3976,-2.4094,-2.419,-2.419,-2.419,-2.419,-2.419,-2.419,-2.419,-2.419,-2.419,-2.419,-2.419,-2.419,-2.419,-2.419,-2.3996,-2.3876,-2.3876,-2.3544,-2.3522,-2.3837,-2.3774,-2.3876,-2.419,-2.419,-2.419,-2.419,0.0,0.0,0.0,0.0,0.0,0.0,0.0,0.0,0.0,0.0,0.0,0.0,0.0,0.0,0.0,0.0,0.0,0.0,0.0,0.0,0.0,0.0,0.0,-1.2959,-1.2314,-1.2116,-1.2861,-1.292,-1.3076,-1.3486,-1.469,-1.5405,-1.5194,-1.7022,-1.7906,-1.7351,-1.787,-1.848,-1.8983,-2.0234,-2.1144,-2.1697,-2.2935,-2.3551,-2.3595,-2.3595,-2.3595,-2.3595,-2.3595,-2.3266,-2.2739,-2.3142,-2.294,-2.23,-2.209,-2.223,-2.2522,-2.1878,-2.1899,-2.231,-2.231,-2.231,-2.231,-2.231,-2.231,-2.2349,-2.2599,-2.2695,-2.2746,-2.3069,-2.3392,-2.3649,-2.3588,-2.3628,-2.3671,-2.3588,-2.3141,-2.2721,-2.2721,-2.2721,-2.2721,-2.2721,-2.2996,-2.33,-2.3566,-2.3917,-2.419,-2.4208,-2.4208,-2.4208,-2.419,-2.419,0.0,-2.419,-2.419,-2.419,-2.419,-2.419,-2.419,-2.419,-2.419,-2.419,-2.419,-2.3896,-2.3858,-2.419,-2.3896,-2.3876,-2.419,-2.419,-2.419,-2.419,0.0,0.0,0.0,0.0,0.0,0.0,0.0,0.0,0.0,0.0,0.0,0.0,0.0,0.0,0.0,0.0,0.0,0.0,0.0,0.0,0.0,0.0,-1.3304,-1.267,-1.311,-1.3561,-1.3737,-1.3789,-1.3828,-1.3902,-1.426,-1.4666,-1.5112,-1.6126,-1.705,-1.7704,-1.8425,-1.9045,-1.9572,-1.9913,-2.0598,-2.1697,-2.2025,-2.2696,-2.3595,-2.3595,-2.3595,-2.3595,-2.3595,-2.3505,-2.334,-2.3453,-2.3175,-2.2566,-2.2315,-2.2197,-2.2133,-2.1738,-2.1899,-2.231,-2.231,-2.231,-2.231,-2.231,-2.231,-2.231,-2.2388,-2.2398,-2.2426,-2.2535,-2.2598,-2.2712,-2.289,-2.2972,-2.3021,-2.3236,-2.3189,-2.3069,-2.3069,-2.3069,-2.3117,-2.3323,-2.3414,-2.3566,-2.3837,-2.3976,-2.4074,-2.4113,-2.4132,-2.4151,-2.419,0.0,0.0,-2.419,-2.419,-2.419,-2.419,-2.419,-2.419,-2.419,-2.419,-2.419,-2.419,-2.4113,-2.4094,-2.4208,-2.4113,-2.4094,-2.419,-2.419,-2.419,0.0,0.0,0.0,0.0,0.0,0.0,0.0,0.0,0.0,0.0,0.0,0.0,0.0,0.0,0.0,0.0,0.0,0.0,0.0,0.0,0.0,0.0,-1.4072,-1.4256,-1.4044,-1.4253,-1.4473,-1.4648,-1.4668,-1.4736,-1.4922,-1.5213,-1.5714,-1.6363,-1.7106,-1.7868,-1.8624,-1.9081,-1.9497,-1.9798,-2.0042,-2.072,-2.1697,-2.1993,-2.262,-2.3595,-2.3595,-2.3595,-2.3595,-2.3595,-2.3595,0.0,-2.3595,-2.3251,-2.2664,-2.2252,-2.1914,0.0,0.0,0.0,0.0,0.0,-2.231,-2.231,-2.231,-2.231,-2.231,-2.231,-2.231,-2.231,-2.231,-2.2388,-2.2517,-2.2643,-2.2686,-2.2772,-2.3069,-2.2989,-2.2857,-2.2972,-2.289,-2.2875,-2.3025,-2.3146,-2.3312,-2.358,0.0,0.0,-2.3996,-2.4036,-2.4094,-2.419,-2.4151,-2.4151,0.0,-2.417,-2.417,-2.4208,-2.419,-2.419,-2.419,-2.419,0.0,0.0,0.0,-2.419,-2.419,-2.419,0.0,0.0,0.0,-2.419,0.0,0.0,0.0,0.0,-2.419,-2.4247,0.0,0.0,0.0,0.0,0.0,0.0,0.0,0.0,0.0,0.0,0.0,0.0,0.0,0.0,0.0,0.0,-1.4922,-1.5596,-1.6194,-1.5557,-1.5195,-1.5518,-1.5566,-1.5713,-1.6103,-1.6739,-1.7434,-1.8057,-1.8862,-1.9364,-1.9651,0.0,0.0,0.0,0.0,-2.1015,-2.1697,-2.23,-2.292,-2.3595,-2.3595,-2.3595,-2.3595,-2.3595,-2.3595,-2.3595,-2.3595,-2.3251,-2.2679,-2.2119,-2.1706,-2.1471,-2.1566,-2.1899,-2.231,-2.231,-2.231,0.0,0.0,0.0,0.0,-2.231,-2.231,-2.231,-2.231,-2.2463,-2.2634,-2.2642,-2.266,-2.2712,-2.2965,-2.266,-2.2377,-2.2599,-2.249,-2.231,-2.2394,-2.2579,-2.2825,-2.3116,-2.3382,-2.361,-2.3876,-2.3976,-2.4036,-2.417,-2.4074,0.0,-2.417,-2.4224,-2.4223,-2.4208,0.0,0.0,-2.4208,-2.419,-2.417,-2.4132,-2.417,-2.419,-2.419,-2.419,-2.419,-2.419,-2.419,-2.419,-2.419,-2.419,-2.4209,-2.4228,-2.4209,-2.4303,0.0,0.0,0.0,0.0,0.0,0.0,0.0,0.0,0.0,0.0,0.0,0.0,0.0,0.0,0.0,-1.5084,-1.5303,-1.5811,-1.6963,-1.6982,-1.6777,-1.6504,-1.6475,-1.6504,-1.6592,-1.6727,-1.6842,-1.7029,-1.7965,-1.8567,-1.8577,-1.9381,0.0,-1.9798,-1.9952,-2.0521,-2.1697,-2.1852,-2.2469,-2.3595,0.0,0.0,-2.3595,-2.3595,-2.3595,-2.3595,-2.3595,-2.3251,-2.2709,-2.2894,-2.2729,-2.2281,-2.18,-2.1899,-2.231,-2.231,-2.231,-2.231,-2.231,-2.231,-2.231,-2.231,-2.231,-2.231,-2.231,-2.2349,0.0,-2.2377,-2.2377,-2.2388,-2.2443,-2.2377,-2.2293,-2.2377,-2.2349,-2.2432,-2.2859,-2.2985,-2.3164,-2.3646,-2.3753,-2.3795,-2.3937,-2.3996,-2.4016,-2.4094,-2.4054,-2.4054,-2.417,-2.4701,-2.4866,-2.4263,-2.4777,-2.4925,-2.4263,-2.419,-2.419,-2.417,-2.419,-2.419,-2.419,-2.419,-2.419,-2.419,-2.419,-2.419,-2.419,-2.419,-2.4284,-2.4445,-2.4284,-2.4228,0.0,0.0,0.0,0.0,0.0,0.0,0.0,0.0,0.0,0.0,0.0,-1.5521,0.0,0.0,-1.5488,-1.5713,-1.6113,-1.6709,-1.7578,-1.7695,-1.7617,-1.7393,-1.7373,-1.7373,-1.7373,-1.7373,-1.7307,-1.7242,-1.8115,-1.8576,-1.8527,-1.9348,-1.9798,-1.9798,-1.9798,-2.0283,-2.1245,-2.1568,-2.2179,-2.3143,-2.3465,-2.3595,-2.3595,-2.3595,-2.3595,-2.3595,-2.3566,-2.3223,-2.2694,-2.2536,-2.2559,-2.2631,-2.1989,-2.1974,-2.231,-2.231,-2.2282,-2.2254,-2.2254,-2.2254,-2.2254,-2.2254,-2.2282,-2.231,-2.231,-2.231,-2.231,-2.231,-2.231,-2.231,-2.231,-2.231,-2.231,-2.231,-2.231,-2.2377,-2.2642,-2.291,-2.3188,-2.3445,-2.3689,-2.3876,-2.3896,-2.3917,-2.3996,-2.4094,-2.4363,-2.4598,-2.4795,-2.5434,-2.5761,-2.5438,-2.575,-2.5823,-2.5379,-2.4955,-2.4717,-2.4737,-2.4333,-2.4113,-2.4151,-2.4151,-2.4151,-2.4151,-2.417,-2.417,-2.4151,-2.417,-2.4284,-2.4442,-2.4338,-2.4374,0.0,0.0,0.0,0.0,0.0,0.0,0.0,0.0,-1.6697,-1.5751,-1.5823,-1.5793,-1.4692,-1.5515,-1.6335,-1.6225,-1.6865,-1.7529,-1.7949,-1.7939,-1.7891,-1.7891,-1.7959,-1.7978,-1.79,-1.7891,-1.7879,-1.7791,-1.8414,-1.8781,-1.8809,-1.942,-1.9798,-1.9798,-1.9798,-2.0105,-2.0795,-2.139,-2.2053,-2.2694,-2.3334,-2.3595,-2.3595,-2.361,-2.3566,-2.3566,-2.3494,-2.3212,-2.276,-2.2143,-2.2262,-2.276,-2.2228,-2.207,-2.2174,-2.2231,-2.2209,-2.2168,-2.2168,-2.2168,-2.2214,-2.2168,-2.2225,-2.231,-2.2282,-2.2282,-2.2282,-2.2282,-2.2282,-2.2282,-2.2237,-2.2254,-2.2282,-2.2282,-2.2254,-2.2265,-2.2366,-2.2721,-2.3042,-2.3164,-2.3535,-2.3871,-2.4034,-2.4091,-2.4153,-2.4273,-2.4759,-2.5233,-2.5583,-2.6255,-2.6673,-2.6591,-2.672,-2.6716,-2.6548,-2.5862,-2.5479,-2.5541,-2.4732,-2.4273,-2.4331,-2.4167,-2.4074,-2.4074,-2.4151,-2.4151,-2.4094,-2.417,-2.4284,-2.4458,-2.4458,-2.4572,-2.2107,-2.1256,-2.0008,-1.8545,-1.8145,-1.7827,0.0,0.0,-1.5706,-1.5389,-1.5381,-1.5301,-1.4864,-1.568,-1.6448,-1.6586,-1.7061,-1.7529,-1.7949,-1.7686,-1.7451,-1.7451,-1.7783,-1.7861,-1.749,-1.7451,-1.7561,-1.7771,-1.8121,-1.8635,-1.9306,-1.9629,-1.9798,-1.9798,-1.9798,-2.0105,-2.0795,-2.139,-2.2053,-2.2694,-2.3334,-2.3595,-2.3595,-2.3538,-2.3509,-2.3509,-2.3363,-2.3275,-2.32,-2.2813,-2.2758,-2.2867,-2.2552,-2.2157,-2.1772,-2.198,-2.2027,-2.2027,-2.2027,-2.2106,-2.2168,-2.2044,-2.2163,-2.2282,-2.2242,-2.2254,-2.2282,-2.2242,-2.2254,-2.2265,-2.2073,-2.2135,-2.2214,-2.2214,-2.2135,-2.2158,-2.2579,-2.2668,-2.2798,-2.3364,-2.3513,-2.3853,-2.4798,-2.4907,-2.4907,-2.5051,-2.5102,-2.5412,-2.6271,-2.7013,-2.7228,-2.6582,-2.7149,-2.7317,-2.6646,-2.6439,-2.6384,-2.6444,-2.5654,-2.5175,-2.5175,-2.4419,-2.4016,-2.4016,-2.4074,-2.4094,-2.4094,-2.417,-2.4357,-2.4666,-2.4666,-2.4685,-2.0798,-1.9573,-1.8301,-1.7758,-1.7394,-1.698,-1.617,-1.5776,-1.5379,-1.458,-1.4838,-1.5047,-1.4498,-1.5395,-1.6267,0.0,-1.6924,-1.7353,-1.7275,-1.7334,-1.7285,-1.7031,-1.7158,-1.7197,-1.7021,-1.7002,-1.6933,-1.6839,-1.7517,-1.8276,-1.8862,-1.9254,-1.969,-2.0313,-1.9935,-1.9862,-2.0194,-2.0881,-2.1307,-2.1609,-2.2193,-2.2651,-2.2965,-2.2934,-2.3053,-2.326,-2.3275,-2.3187,-2.3083,-2.3096,-2.3203,-2.3277,-2.2485,-2.2167,-2.2153,-2.1921,-2.1727,-2.1598,-2.1598,-2.1764,-2.202,-2.1957,-2.2015,-2.2118,-2.2089,-2.2089,-2.2118,-2.2089,-2.2089,-2.2118,-2.2027,-2.2044,-2.2089,-2.2089,-2.2106,-2.2163,-2.2271,-2.2463,-2.266,-2.2822,-2.353,-2.4212,-2.4675,-2.528,-2.5882,-2.6445,-2.6518,-2.6645,-2.7082,-2.7807,-2.819,-2.7866,-2.8099,-2.8171,-2.789,-2.7387,-2.7073,-2.7118,-2.6374,-2.5935,-2.5935,-2.5625,-2.5244,-2.4769,-2.4829,-2.4609,-2.4094,-2.417,-2.4616,-2.5412,-2.5412,-2.5786,-1.9334,-1.8121,-1.7115,-1.7276,-1.6756,-1.6126,-1.572,-1.5365,-1.4903,-1.4116,-1.4364,-1.456,-1.4321,-1.5176,-1.5918,-1.6105,-1.6699,-1.709,-1.6777,-1.6894,-1.6904,-1.6582,-1.6445,-1.6367,-1.6367,-1.6475,-1.6419,-1.6208,-1.7168,-1.7969,-1.8487,-1.923,-1.9861,-2.0332,-2.0082,-1.9818,-1.9708,-2.0409,-2.0746,-2.0696,-2.128,-2.1913,-2.2466,-2.2618,-2.2814,-2.3037,-2.3157,-2.3068,-2.2947,-2.3112,-2.3304,-2.3389,-2.2338,-2.1967,-2.2018,-2.1455,-2.1195,-2.1071,-2.115,-2.1401,-2.1735,-2.1735,-2.1853,-2.1998,-2.1969,-2.1998,-2.1998,-2.1969,-2.1998,-2.1998,-2.194,-2.1969,-2.1969,-2.1998,-2.2032,-2.2094,-2.2061,-2.2243,-2.2419,-2.2395,-2.325,-2.4148,-2.4722,-2.553,-2.6477,-2.7628,-2.7798,-2.784,-2.7893,-2.8421,-2.8785,-2.8785,-2.8737,-2.8718,-2.881,-2.8209,-2.784,-2.7864,-2.7146,-2.6731,-2.6731,-2.6355,-2.5865,-2.526,-2.5122,-2.4719,-2.4074,-2.417,-2.4782,-2.5904,-2.5904,-2.6677,-1.8045,-1.7486,-1.7033,-1.7262,-1.6409,-1.5516,-1.5576,-1.4675,-1.3942,-1.4335,-1.3932,-1.3779,-1.4609,-1.5127,-1.5566,-1.6056,-1.6445,-1.6748,-1.6665,-1.6367,-1.6154,-1.6145,-1.5713,-1.5449,0.0,-1.584,-1.6198,-1.6488,-1.7179,-1.7897,-1.8494,-1.9871,-2.0254,-1.9457,-2.0257,-2.027,-1.942,-2.022,-2.0547,-2.0421,-2.1037,-2.1663,-2.2314,-2.2828,-2.3037,-2.2902,-2.2902,-2.2902,-2.2888,-2.2902,-2.2947,-2.2875,-2.2265,-2.1611,-2.0956,-2.036,-2.0317,-2.0548,-2.0745,-2.1039,-2.1308,-2.1309,-2.1631,-2.1998,-2.1911,-2.194,-2.1998,-2.1911,-2.194,-2.1969,-2.184,-2.184,-2.1911,-2.1998,-2.1899,-2.1886,-2.214,-2.2049,-2.2027,-2.2341,-2.2554,-2.3293,-2.5311,-2.5747,-2.6444,-2.829,-2.8551,-2.8601,-2.8658,-2.8694,-2.8737,-2.8785,-2.8737,-2.8743,-2.8881,-2.8749,-2.8682,-2.8749,-2.8007,-2.7551,-2.7551,-2.6075,-2.5215,-2.5114,-2.4454,-2.4092,-2.3996,-2.4151,-2.4782,-2.5904,-2.5904,-2.6961,-1.7377,-1.6745,-1.5964,-1.6126,-1.5564,-1.4858,-1.4503,-1.4086,-1.3726,-1.3468,-1.3451,-1.3594,-1.3887,-1.4277,-1.4707,-1.5146,-1.5576,-1.5859,-1.5859,-1.623,-1.6289,-1.5703,-1.5752,0.0,0.0,0.0,0.0,-1.6178,-1.7225,-1.8294,-1.9386,-2.0287,-2.0961,-2.1313,-2.1206,-2.0789,-2.0135,-2.0388,-2.0292,-1.9759,-2.0769,-2.1355,-2.1609,-2.254,-2.2947,-2.2888,-2.2888,-2.2656,-2.2309,-2.2309,-2.2309,-2.2207,-2.1148,-2.0843,-2.0872,-1.9905,-1.959,-1.9609,-2.0054,-2.0465,-2.0861,-2.0958,-2.123,-2.154,-2.1509,-2.1661,-2.1869,-2.184,-2.184,-2.1869,-2.1811,-2.184,-2.1882,-2.1869,-2.1899,-2.1928,-2.1915,-2.1915,-2.194,-2.2039,-2.3119,-2.423,-2.5032,-2.6356,-2.7619,-2.8471,-2.8587,-2.8612,-2.8637,-2.8637,-2.8637,-2.8662,-2.8637,-2.8662,-2.8712,-2.8662,-2.8662,-2.8737,-2.8482,-2.8366,-2.8461,-2.7949,-2.7401,-2.6893,-2.6661,-2.6362,-2.593,-2.5968,-2.6597,-2.7755,-2.7755,-2.8468,-1.6533,-1.5953,-1.5319,-1.5449,-1.4862,-1.4212,-1.4058,-1.3762,-1.3372,-1.2968,-1.3096,-1.333,-1.3477,-1.373,-1.4102,-1.4687,-1.501,-1.5244,-1.5391,-1.5898,-1.6103,-1.5693,-1.5889,-1.5947,0.0,0.0,0.0,-1.582,-1.7154,-1.8222,-1.8829,-2.0148,-2.1069,-2.1372,-2.1584,-2.1306,-2.0594,-2.0637,-2.0409,-1.9848,-2.0643,-2.1199,-2.1435,-2.2208,-2.2706,-2.2888,-2.2888,-2.2671,-2.2309,-2.2091,-2.1989,-2.1873,-2.0596,-2.0335,-2.0553,-1.9569,-1.9176,-1.9176,-1.9588,-1.9984,-2.0379,-2.0512,-2.0827,-2.1119,-2.1119,-2.1371,-2.1617,-2.1617,-2.1708,-2.1797,-2.1797,-2.184,-2.1869,-2.184,-2.2099,-2.2312,-2.2239,-2.2468,-2.2682,-2.2682,-2.3678,-2.4679,-2.5133,-2.6806,-2.8174,-2.8562,-2.8587,-2.8587,-2.8587,-2.8587,-2.8612,-2.8637,-2.8612,-2.8612,-2.8637,-2.8612,-2.8637,-2.8694,-2.8694,-2.8743,-2.8887,-2.8631,-2.8251,-2.7765,-2.7196,-2.6901,-2.686,-2.6581,-2.7228,-2.8704,-2.8704,-2.925,-1.5467,-1.5222,-1.5051,-1.5199,-1.433,-1.3619,-1.4171,-1.3579,-1.2881,-1.2881,-1.2881,-1.2998,-1.3398,-1.3477,-1.376,-1.4609,-1.4746,-1.4902,-1.5352,-1.543,-1.5596,0.0,0.0,0.0,0.0,0.0,0.0,-1.5508,0.0,-1.7624,-1.7119,-1.955,-2.0652,-1.9959,-2.1421,-2.1807,-2.0876,-2.0941,-2.086,-2.0562,-2.0752,-2.1158,-2.1743,-2.1952,-2.2352,-2.2843,-2.2888,-2.2873,-2.2801,-2.2251,-2.1989,-2.1873,-2.0596,-2.0117,-2.0074,-1.9406,-1.913,-1.9139,-1.9346,-1.9617,-1.9899,-2.0015,-2.0376,-2.0761,-2.0761,-2.099,-2.1277,-2.1277,-2.1526,-2.1751,-2.1751,-2.1814,-2.1877,-2.1949,-2.2471,-2.2988,-2.3034,-2.3582,-2.4081,-2.4114,-2.4195,-2.462,-2.5692,-2.7052,-2.8138,-2.8536,-2.8587,-2.8587,-2.8587,-2.8587,-2.8612,-2.8687,-2.8637,-2.8637,-2.8694,-2.8637,-2.8637,-2.8694,-2.8694,-2.8743,-2.8905,-2.815,-2.773,-2.7775,-2.6255,-2.5976,-2.6933,-2.6191,-2.6834,-2.8776,-2.8776,-2.9288,-1.4871,-1.4529,-1.4154,-1.4189,-1.3583,-1.3086,-1.3273,-1.3096,-1.2881,-1.2881,-1.2881,-1.291,-1.3018,-1.3037,0.0,-1.416,-1.4297,0.0,-1.5303,-1.5693,0.0,-1.6115,0.0,-1.6562,-1.6562,-1.6855,0.0,0.0,-1.738,-1.8176,-1.8678,-2.0012,-2.0911,-2.1363,-2.1604,-2.1741,-2.1611,-2.1034,-2.0463,-1.9997,-2.0939,-2.1275,-2.108,-2.2088,-2.24,-2.2231,-2.2706,-2.2627,-2.2222,-2.2062,-2.1989,-2.1873,-2.0596,-2.0364,-2.0698,-2.0074,-1.9537,-1.9174,-1.972,-1.9698,-1.9457,-1.9545,-1.9904,-2.0273,-2.0273,-2.0579,-2.0925,-2.0925,-2.1183,-2.1433,-2.1433,-2.2073,-2.2701,-2.267,-2.3235,-2.3783,-2.3751,-2.3884,-2.4033,-2.4081,-2.4869,-2.587,-2.6896,-2.7635,-2.8201,-2.8562,-2.8587,-2.8587,-2.8587,-2.8587,-2.8612,-2.8612,-2.8612,-2.8612,-2.8612,-2.8612,-2.8637,-2.8694,-2.8644,-2.8687,-2.881,-2.8585,-2.85,-2.8594,-2.8334,-2.8437,-2.8877,-2.8834,-2.915,-2.9818,-2.9818,-2.9947,-1.4551,-1.4462,-1.4289,-1.3991,-1.3661,-1.3379,-1.3203,-1.3018,-1.2881,-1.2881,-1.2881,-1.2881,-1.2881,-1.2881,-1.3096,0.0,0.0,0.0,-1.5049,-1.5508,-1.5918,0.0,-1.6582,0.0,-1.7002,-1.7246,-1.7285,0.0,-1.762,-1.811,-1.8426,-1.9456,-2.0298,-2.0841,-2.1311,-2.1747,-2.2103,-2.1619,-2.1078,-2.049,-2.0937,-2.1056,-2.0815,-2.1579,-2.2,-2.2044,0.0,-2.27,-2.2381,-2.2106,-2.1989,-2.1902,-2.0886,-2.0538,-2.0553,-2.0219,-1.9682,-1.9159,-1.9537,-1.9459,-1.9228,-1.9339,-1.9545,-1.9797,-1.9797,-2.01,-2.0478,-2.0478,-2.0877,-2.1309,-2.1309,-2.2112,-2.2953,-2.2922,-2.3734,-2.4514,-2.4481,-2.4763,-2.5012,-2.508,-2.5762,-2.6588,-2.7322,-2.7747,-2.8147,-2.8543,-2.8587,-2.8587,-2.8587,-2.8587,-2.8587,-2.8587,-2.8587,-2.8587,-2.8587,-2.8587,-2.8637,-2.8694,-2.8637,-2.8662,-2.8785,-2.8737,-2.8791,-2.8966,-2.8732,-2.8984,-2.968,-2.946,-2.9623,-3.0204,-3.0204,-3.0204,-1.4187,-1.4451,-1.4704,-1.4237,-1.4038,-1.3902,-1.3594,-1.3184,-1.2881,-1.2881,-1.2881,-1.2881,-1.2881,-1.2881,-1.3018,-1.3437,0.0,-1.4228,-1.4717,-1.5098,-1.5654,-1.6543,-1.6699,-1.6904,-1.7344,-1.7432,-1.7471,-1.7471,-1.7803,-1.7852,-1.749,-1.8522,-1.9254,-1.9525,-2.08,-2.1749,-2.2201,-2.2213,-2.1934,-2.1296,-2.0911,-2.0709,-2.0643,-2.0886,-2.1318,-2.1888,0.0,0.0,-2.2859,-2.2352,-2.212,-2.2048,-2.1394,-2.0814,-2.0349,-2.0349,-1.9885,-1.9246,-1.9319,-1.9246,-1.9101,-1.9228,-1.9339,-1.9376,-1.9376,-1.975,-2.0132,-2.0132,-2.0749,-2.1392,-2.1456,-2.228,-2.3125,-2.3189,-2.4249,-2.5259,-2.5259,-2.5793,-2.6295,-2.6295,-2.6556,-2.6939,-2.7317,-2.7695,-2.8083,-2.8536,-2.8587,-2.8587,-2.8587,-2.8587,-2.8587,-2.8587,-2.8587,-2.8587,-2.8587,-2.8587,-2.8612,-2.8669,-2.8637,-2.8637,-2.8761,-2.8712,-2.8821,-2.9064,-2.8445,-2.867,-2.9801,-2.9147,-2.9292,-3.0204,-3.0204,-3.0204,-1.2833,-1.3044,-1.3413,-1.397,-1.3877,-1.3603,-1.3525,-1.3184,-1.2881,-1.2881,-1.2881,-1.2881,-1.2881,-1.2881,-1.3018,-1.3437,-1.3574,-1.3887,-1.4678,-1.4844,-1.5215,0.0,-1.6514,-1.6904,-1.7344,-1.7695,0.0,0.0,0.0,0.0,-1.791,-1.8279,-1.8859,-1.9709,-2.0499,-2.0979,-2.1107,-2.1438,-2.1272,-2.0754,-2.1103,-2.08,-1.9989,-2.0699,-2.1054,-2.1237,0.0,0.0,-2.2888,-2.2786,-2.2728,-2.2671,-2.2077,-2.1757,-2.167,-2.167,-2.093,-2.0001,-2.0494,-1.9986,-1.9101,-1.9139,-1.9213,-1.9339,-1.9339,-1.9782,-2.0362,-2.0362,-2.1077,-2.1976,-2.2342,-2.333,-2.4302,-2.4645,-2.5392,-2.6021,-2.6021,-2.612,-2.6203,-2.6203,-2.6538,-2.6939,-2.7317,-2.7707,-2.8138,-2.8536,-2.8587,-2.8587,-2.8587,-2.8587,-2.8587,-2.8587,-2.8587,-2.8587,-2.8587,-2.8587,-2.8612,-2.8612,-2.8612,-2.8612,-2.8637,-2.8612,-2.8749,-2.9016,-2.9107,-2.9364,-2.9801,-2.9878,-3.0023,-3.0204,-3.0204,-3.0204,-1.2092,-1.2427,-1.2668,-1.2903,-1.3049,-1.3075,-1.2688,-1.2752,-1.2774,-1.2403,-1.2618,-1.2774,-1.2393,-1.2657,-1.2949,-1.3154,-1.3359,-1.3652,-1.4062,-1.4502,-1.5019,-1.5654,-1.6113,-1.665,0.0,-1.7568,0.0,0.0,0.0,0.0,-1.7686,-1.7987,-1.8533,-1.9216,-2.007,-2.0669,-2.1136,-2.1112,-2.0921,-2.061,-2.0574,-2.0141,-1.9426,-2.02,-2.0757,-2.1042,-2.1827,0.0,-2.2888,-2.2888,-2.2888,-2.2859,-2.2555,-2.2294,-2.196,-2.1612,-2.109,-2.0553,-2.0538,-2.0335,-2.0045,-1.9725,-1.9429,-1.9249,-1.9599,-1.9982,-2.0294,-2.0294,-2.1048,-2.201,-2.254,-2.3538,-2.4502,-2.499,-2.5673,-2.622,-2.622,-2.622,-2.622,-2.622,-2.6486,-2.6808,-2.7051,-2.7577,-2.801,-2.821,-2.8396,-2.8536,-2.8484,-2.8536,-2.8562,-2.8587,-2.8587,-2.8587,-2.8587,-2.8587,-2.8587,-2.8587,-2.8587,-2.8587,-2.8587,-2.8725,-2.8925,-2.9132,-2.9457,-2.9713,-2.995,-3.0109,-3.0204,-3.0204,-3.0204,-3.0204,-1.1582,-1.1947,-1.2165,-1.2092,-1.247,-1.2735,-1.2112,-1.2311,-1.251,-1.1922,-1.2236,-1.2501,-1.1922,-1.2393,-1.2881,-1.2881,-1.3164,-1.3408,-1.3496,-1.4092,-1.4697,-1.5215,-1.5664,0.0,-1.7021,-1.7275,0.0,0.0,0.0,0.0,-1.754,-1.7761,-1.8192,-1.8832,-1.9427,-2.0181,-2.1114,-2.0749,-2.0544,-2.043,-1.9985,-1.9504,-1.904,-1.9695,-2.0346,-2.0881,-2.1684,0.0,0.0,-2.2843,-2.2888,-2.2888,-2.2888,-2.2598,-2.212,-2.1452,-2.1206,-2.1119,-2.0509,-2.0596,-2.0915,-2.0451,-1.9841,-1.9391,-1.9769,-2.0098,-2.0381,-2.0381,-2.1203,-2.2239,-2.2938,-2.3745,-2.4531,-2.5186,-2.5905,-2.6452,-2.6452,-2.6568,-2.6684,-2.6684,-2.6885,-2.7147,-2.7351,-2.7743,-2.8059,-2.8248,-2.8398,-2.8539,-2.8666,-2.8593,-2.8616,-2.8822,-2.8721,-2.8587,-2.8587,-2.8587,-2.8587,-2.8587,-2.8587,-2.8637,-2.8694,-2.8897,-2.9129,-2.9379,-2.9661,-2.9902,-3.0079,-3.0157,-3.0171,-3.0171,-3.0171,-3.0204,-1.0864,-1.1199,-1.156,-1.2373,-1.2742,-1.2815,-1.2491,-1.2154,-1.1864,-1.1814,-1.1864,-1.1864,-1.1814,-1.2393,-1.2881,-1.2881,-1.291,-1.3066,-1.3457,-1.3574,-1.3926,-1.4746,0.0,0.0,-1.6194,0.0,0.0,0.0,0.0,0.0,0.0,-1.7461,-1.7805,-1.9315,-1.863,-1.8889,-2.0116,-1.9944,-1.9908,-1.9853,-1.9805,-1.9504,-1.8987,-1.9303,-1.9759,-2.0333,0.0,0.0,0.0,-2.2706,-2.2888,-2.2888,-2.2888,-2.2859,-2.2728,-2.2135,-2.1902,-2.1801,-2.1148,-2.0944,-2.0988,-2.093,-2.0494,-1.9914,-1.9362,-2.0001,-2.0915,-2.0915,-2.1929,-2.3186,-2.4153,-2.4547,-2.4909,-2.5872,-2.6651,-2.7218,-2.7218,-2.7748,-2.8174,-2.8174,-2.8213,-2.8481,-2.9231,-2.881,-2.8596,-2.9329,-2.8927,-2.8763,-2.9503,-2.9013,-2.8858,-2.9608,-2.9047,-2.8587,-2.8587,-2.8587,-2.8587,-2.8587,-2.8587,-2.8718,-2.8948,-2.8993,-2.9193,-2.9662,-2.975,-2.9869,-3.0022,-3.0079,-3.0109,-3.0109,-3.0109,-3.0138,-0.9813,-1.0072,-1.0378,-1.0528,-1.0933,-1.1229,-1.0926,-1.1031,-1.1065,-1.0661,-1.1266,-1.1665,-1.1266,-1.2147,-1.2881,-1.2881,-1.2881,-1.2939,-1.3105,-1.335,-1.373,-1.4326,-1.4775,0.0,0.0,0.0,0.0,0.0,0.0,0.0,0.0,-1.7223,-1.7522,-1.8038,-1.8548,-1.9132,-1.9891,-1.9522,-1.9468,-1.978,-1.9456,-1.9191,-1.8987,-1.9263,-1.9708,-2.0232,0.0,0.0,0.0,-2.2263,-2.2463,-2.2509,-2.2797,-2.2888,-2.2815,-2.2222,-2.2236,-2.2424,-2.1815,-2.1844,-2.2033,-2.1249,-2.0843,-2.0524,-1.9885,-2.0306,-2.1003,-2.1003,-2.1931,-2.3231,-2.4338,-2.5098,-2.5815,-2.666,-2.7101,-2.7433,-2.7881,-2.8213,-2.8412,-2.8412,-2.8412,-2.8586,-2.9089,-2.9162,-2.9147,-2.9172,-2.9186,-2.9098,-2.8865,-2.8683,-2.867,-2.8977,-2.8768,-2.8587,-2.8587,-2.8587,-2.8587,-2.8587,-2.8743,-2.8887,-2.9007,-2.9275,-2.9514,-2.9699,-2.9872,-3.0022,-3.0053,-3.0083,-3.0098,-3.0098,-3.0094,-3.0109,-0.9163,-0.9392,-0.9499,-0.9236,-0.9776,-1.0225,-0.9888,-1.0167,-1.0364,-0.9917,-1.0559,-1.1065,-1.061,-1.1642,-1.2559,-1.2559,-1.2774,-1.2881,-1.2881,-1.3135,-1.3477,-1.3844,0.0,0.0,0.0,0.0,0.0,0.0,0.0,0.0,0.0,-1.6933,-1.7435,-1.7545,-1.8213,-1.8898,-1.954,-1.9179,-1.9179,-1.954,-1.9167,-1.8987,-1.8987,-1.9263,-1.9565,-1.9991,0.0,0.0,0.0,-2.1732,-2.2077,-2.2231,-2.2555,-2.2797,-2.2815,-2.2222,-2.2396,-2.2801,-2.2222,-2.241,-2.2714,-2.1656,-2.1162,-2.0886,-2.0277,-2.0524,-2.1003,-2.1003,-2.2173,-2.3595,-2.4379,-2.5545,-2.6651,-2.7201,-2.7632,-2.8042,-2.8572,-2.8853,-2.9003,-2.9003,-2.9003,-2.9182,-2.9644,-2.9833,-2.9897,-2.9757,-2.9683,-2.9485,-2.9107,-2.8945,-2.8861,-2.8861,-2.8931,-2.8866,-2.8605,-2.8687,-2.8737,-2.8737,-2.8938,-2.9119,-2.9188,-2.9532,-2.9735,-2.9787,-2.9991,-3.0087,-3.0038,-3.0053,-3.0087,-3.0102,-3.0098,-3.0109,-0.9103,-0.919,-0.919,-0.9183,-0.9776,-1.0225,-0.9888,-0.9814,-0.9814,-0.9814,-0.9814,-0.9814,-0.9814,-1.0914,-1.1814,-1.1814,-1.2403,-1.2881,-1.2881,-1.2881,-1.3047,0.0,0.0,0.0,0.0,0.0,0.0,0.0,0.0,0.0,0.0,0.0,-1.7667,-1.8278,-1.76,-1.782,-1.8999,-1.8987,-1.8987,-1.8999,-1.8987,-1.8987,-1.8987,-1.9117,0.0,0.0,0.0,0.0,0.0,-2.1175,-2.1718,-2.2184,-2.2231,-2.2509,-2.2815,-2.2222,-2.2396,-2.2801,-2.2222,-2.241,-2.2786,-2.2193,-2.154,-2.0886,-2.0277,-2.0524,-2.1003,-2.1003,-2.2727,-2.4583,-2.4583,-2.5938,-2.73,-2.7317,-2.8357,-2.94,-2.94,-2.998,-3.0493,-3.0493,-3.0493,-3.0723,-3.1548,-3.1112,-3.0906,-3.156,-3.0553,-2.9963,-3.0671,-3.0198,-2.9771,-2.9771,-2.9771,-2.9463,-2.8659,-2.8839,-2.9003,-2.9003,-2.9185,-2.9415,-2.9681,-2.9699,-2.9787,-2.9988,-3.0053,-3.0038,-2.9888,-2.9972,-3.0038,-3.0102,-3.0102,-3.0132,-0.8918,-0.8945,-0.8945,-0.8945,-0.9098,-0.9231,-0.9134,-0.9106,-0.9106,-0.9106,-0.9465,-0.9814,-0.9814,-1.0517,-1.1266,-1.1715,-1.1972,-1.2344,0.0,0.0,0.0,-1.3457,-1.4023,0.0,0.0,0.0,0.0,0.0,0.0,0.0,0.0,0.0,-1.6539,-1.7655,-1.8375,-1.8815,-1.9117,-1.9117,-1.9105,-1.8987,-1.8987,-1.8987,-1.8987,-1.9117,0.0,0.0,0.0,0.0,0.0,-2.0597,-2.1188,-2.167,-2.2077,-2.2509,-2.2873,-2.2671,-2.2728,-2.2859,-2.2671,-2.2728,-2.2786,-2.2207,-2.154,-2.0886,-2.0277,-2.0233,-2.0633,-2.1754,-2.3305,-2.4664,-2.4942,-2.6146,-2.7433,-2.7947,-2.8738,-2.9549,-3.0063,-3.0361,-3.0526,-3.0526,-3.0526,-3.074,-3.1565,-3.1543,-3.1516,-3.1742,-3.1516,-3.1235,-3.0918,-3.0243,-3.0007,-3.055,-2.9644,-2.8884,-2.8605,-2.8839,-2.9003,-2.9003,-2.9314,-2.9551,-2.9626,-2.9751,-2.9855,-2.994,-2.9956,-2.994,-2.9888,-2.9972,-3.0019,-3.0113,-3.0113,-3.0142,-0.8804,-0.8804,-0.8804,-0.8804,-0.8804,-0.8804,-0.8804,-0.8804,-0.8804,-0.8804,-0.9106,-0.9413,-0.9413,-0.9961,-1.0669,-1.1316,-1.1616,-1.208,0.0,0.0,0.0,-1.3242,0.0,0.0,0.0,0.0,0.0,0.0,0.0,0.0,0.0,0.0,-1.6312,-1.7379,-1.8147,-1.8643,-1.8774,-1.8999,-1.9052,-1.8987,-1.8987,-1.8987,-1.8987,-1.9117,0.0,0.0,0.0,0.0,0.0,-1.9949,-2.0576,-2.1179,-2.1885,-2.2509,-2.2888,-2.2888,-2.2888,-2.2888,-2.2888,-2.2888,-2.283,-2.2483,-2.1902,-2.1249,-2.0625,-2.0436,-2.0779,-2.2509,-2.3753,-2.4766,-2.5417,-2.6684,-2.7914,-2.8605,-2.9317,-2.9947,-3.0427,-3.0526,-3.0526,-3.0526,-3.0634,-3.0925,-3.1565,-3.1878,-3.2055,-3.2219,-3.2175,-3.1921,-3.1415,-3.0975,-3.0767,-3.0966,-3.0168,-2.9493,-2.9173,-2.9127,-2.9141,-2.9209,-2.9532,-2.9717,-2.9716,-2.9822,-2.9891,-2.9891,-2.9924,-2.994,-2.9888,-2.9988,-3.0064,-3.0109,-3.0123,-3.0157,0.0,-0.8804,-0.8804,-0.8804,-0.8804,-0.8804,-0.8804,-0.8804,0.0,-0.8804,-0.8804,-0.8804,-0.8804,-0.9316,-0.9969,-1.0618,-1.1316,-1.1972,0.0,-1.2881,0.0,0.0,0.0,0.0,0.0,0.0,0.0,0.0,0.0,0.0,0.0,0.0,0.0,-1.717,-1.7103,-1.7412,-1.8147,-1.8709,-1.8999,-1.8987,-1.8951,-1.8939,-1.8939,-1.8891,0.0,0.0,0.0,0.0,0.0,-1.9371,-1.9993,-2.0666,-2.1695,-2.2335,-2.2757,-2.2757,-2.2786,-2.283,-2.283,-2.2859,-2.2888,-2.2844,-2.2483,-2.1873,-2.1249,-2.1061,-2.1432,-2.3106,-2.4131,-2.4907,-2.6078,-2.7424,-2.8622,-2.9268,-2.998,-3.0526,-3.0526,-3.0526,-3.0526,-3.0526,-3.0804,-3.124,-3.164,-3.2109,-3.2537,-3.2948,-3.2553,-3.2173,-3.2173,-3.2206,-3.1908,-3.1175,-3.1172,-3.0943,-3.0215,-2.9632,-2.9395,-2.9589,-2.9789,-2.9893,-2.9888,-2.991,-2.9912,-2.9895,-2.9959,-2.9972,-2.9905,-3.0049,-3.0109,-3.0109,-3.0171,-3.0204,-0.8871,0.0,-0.8804,-0.8804,-0.8804,-0.8804,0.0,-0.8804,-0.8804,-0.8804,-0.8804,-0.8804,-0.8804,-0.891,-0.9263,-0.9917,-1.0618,-1.1266,-1.1972,0.0,0.0,0.0,0.0,0.0,0.0,0.0,0.0,0.0,0.0,0.0,0.0,0.0,0.0,-1.4858,-1.5277,-1.6618,-1.8934,-1.9064,-1.9105,-1.8987,-1.8578,-1.8386,-1.8374,-1.7965,0.0,0.0,0.0,0.0,-1.8532,-1.9232,-1.9867,-2.0408,-2.0636,-2.1026,-2.1452,-2.1452,-2.1772,-2.2222,-2.2222,-2.2527,-2.2815,-2.2367,-2.212,-2.196,-2.1801,-2.1757,-2.2028,-2.3168,-2.443,-2.5611,-2.6633,-2.8036,-2.9201,-2.9367,-2.998,-3.0526,-3.0526,-3.0526,-3.0526,-3.0526,-3.0804,-3.124,-3.164,-3.2179,-3.2654,-3.3024,-3.3082,-3.3092,-3.3092,-3.2578,-3.2192,-3.2145,-3.1093,-3.0465,-3.0626,-2.9922,-2.9513,-2.9589,-2.9789,-2.9893,-2.9888,-2.9907,-2.9891,-2.9895,-2.9926,-2.9972,-3.0045,-3.0094,-3.0123,-3.0171,-3.0185,-3.0204,-0.9051,-0.8911,-0.8804,-0.8804,-0.8804,-0.8804,-0.8804,-0.8804,-0.8804,-0.8804,-0.8804,-0.8804,-0.8804,-0.9061,-0.9361,-0.9762,-1.0618,0.0,0.0,0.0,0.0,0.0,0.0,0.0,0.0,0.0,0.0,0.0,0.0,0.0,0.0,0.0,-1.4237,-1.4493,-1.506,-1.6085,-1.7636,-1.8235,-1.8454,-1.8265,-1.8268,-1.8123,-1.7832,-1.7544,0.0,0.0,0.0,0.0,-1.8164,-1.8804,-1.9414,-1.9936,-2.0429,-2.0795,-2.1003,-2.1003,-2.1423,-2.1989,-2.1989,-2.241,-2.2844,-2.2541,-2.2425,-2.2483,-2.2773,-2.2995,-2.3333,-2.4179,-2.5117,-2.6211,-2.7709,-2.8758,-2.9499,-2.9831,-3.0228,-3.0526,-3.0526,-3.0526,-3.0551,-3.074,-3.1123,-3.149,-3.1877,-3.2403,-3.2852,-3.3042,-3.3214,-3.3382,-3.3411,-3.3013,-3.2837,-3.3075,-3.1678,-3.0914,-3.1349,-3.0283,-2.9626,-2.9717,-2.9825,-2.9859,-2.991,-2.9874,-2.991,-2.9994,-2.9991,-3.0034,-3.0157,-3.0157,-3.0404,-3.0842,-3.0842,-3.1092,-0.921,-0.9058,-0.8864,-0.8818,-0.8838,-0.8864,-0.8818,-0.8804,-0.8804,-0.8804,-0.8804,-0.8857,-0.8956,-0.9309,-0.9666,-0.9762,0.0,0.0,0.0,0.0,0.0,0.0,0.0,0.0,0.0,0.0,0.0,0.0,0.0,0.0,0.0,0.0,0.0,-1.4749,-1.5209,-1.5524,-1.5675,-1.6984,-1.7582,-1.7424,-1.7871,-1.7811,-1.7291,-1.7207,0.0,0.0,0.0,0.0,-1.7717,-1.8321,-1.8865,-1.9385,-2.0318,-2.0712,-2.0712,-2.0712,-2.1133,-2.1743,-2.1931,-2.2338,-2.2772,-2.2859,-2.296,-2.3149,-2.3731,-2.4322,-2.4912,-2.562,-2.6178,-2.6951,-2.8821,-2.9419,-2.9748,-3.0377,-3.0526,-3.0526,-3.0526,-3.0551,-3.0716,-3.1004,-3.1452,-3.1877,-3.2127,-3.2727,-3.3122,-3.3015,-3.326,-3.3448,-3.3429,-3.3393,-3.3484,-3.365,-3.2477,-3.177,-3.1934,-3.0697,-2.9886,-2.9878,-2.9825,-2.9825,-2.9912,-2.9842,-2.991,-3.0117,-3.0102,-3.0132,-3.0204,-3.0213,-3.0695,-3.1588,-3.163,-3.2149,-0.9316,-0.915,-0.9057,-0.8871,-0.8991,-0.9057,-0.8864,-0.8804,-0.8804,-0.8804,-0.8804,-0.8956,-0.9562,-0.9263,-0.9159,0.0,0.0,0.0,0.0,0.0,0.0,0.0,0.0,0.0,0.0,0.0,0.0,0.0,0.0,0.0,0.0,0.0,0.0,-1.3817,-1.3865,-1.4344,-1.5199,-1.6704,-1.7435,-1.7412,-1.7039,-1.6822,-1.6726,-1.636,-1.6244,0.0,0.0,-1.7037,-1.7206,-1.8111,-1.8562,-1.8694,-1.9195,-1.9391,-1.9391,-1.9391,-1.9812,-2.0553,-2.1627,-2.2062,-2.2222,-2.2714,-2.3264,-2.376,-2.3862,-2.4802,-2.6077,-2.7067,-2.764,-2.8196,-2.9149,-2.984,-3.0377,-3.0493,-3.0526,-3.0526,-3.0526,-3.0781,-3.1021,-3.0998,-3.1637,-3.2091,-3.2039,-3.3087,-3.372,-3.3086,-3.3692,-3.4045,-3.3484,-3.3393,-3.3304,-3.305,-3.2785,-3.2228,-3.1317,-3.0997,-3.049,-2.9792,-2.9717,-2.977,-2.9888,-2.9891,-2.9988,-3.019,-3.0132,-3.0132,-3.0204,-3.026,-3.0739,-3.16,-3.1725,-3.2241,-0.9552,-0.9359,-0.9117,-0.8878,-0.8911,-0.8971,-0.8838,-0.8804,-0.8804,-0.8804,-0.8804,-0.9008,-0.9666,0.0,-1.0218,-1.1292,0.0,0.0,0.0,0.0,0.0,0.0,0.0,0.0,0.0,0.0,0.0,0.0,0.0,0.0,0.0,0.0,0.0,0.0,-1.3705,-1.4212,-1.4674,-1.5892,-1.6524,-1.6524,-1.6745,-1.6611,-1.6275,-1.6166,-1.6144,-1.6219,0.0,-1.6964,-1.7462,-1.7948,-1.8383,-1.8822,-1.9026,-1.9101,-1.9145,-1.9508,-2.0045,-2.0712,-2.167,-2.2222,-2.2556,-2.2801,-2.3091,-2.3499,-2.4196,-2.5284,-2.6548,-2.7859,-2.845,-2.8881,-2.9791,-3.0261,-3.0526,-3.0526,-3.0526,-3.0526,-3.0526,-3.0797,-3.1117,-3.1274,-3.1731,-3.2127,-3.2249,-3.2958,-3.3394,-3.3001,-3.3471,-3.3732,-3.3447,-3.3393,-3.3459,-3.3586,-3.3105,-3.2716,-3.2524,-3.1563,-3.0622,-2.9863,-2.9735,-2.9787,-2.9956,-2.9956,-3.0019,-3.0138,-3.0142,-3.0176,-3.0204,-3.0753,-3.1496,-3.2422,-3.2986,-3.3755,-1.0041,-0.9742,-0.933,-0.8931,-0.8858,-0.8891,-0.8824,-0.8804,-0.8804,-0.8804,-0.891,-0.9211,-0.9718,-1.0364,0.0,-1.2206,0.0,0.0,0.0,0.0,0.0,0.0,0.0,0.0,0.0,0.0,0.0,0.0,0.0,0.0,0.0,0.0,0.0,0.0,-1.3752,-1.4258,-1.449,-1.5232,-1.5703,-1.5792,-1.6471,-1.6492,-1.6001,-1.6188,-1.6362,-1.6552,-1.6565,-1.706,-1.7787,-1.7908,-1.8344,-1.8988,-1.9064,-1.9101,-1.9174,-1.9856,-2.0393,-2.0901,-2.1714,-2.2309,-2.27,-2.2844,-2.2989,-2.3293,-2.4264,-2.5435,-2.6714,-2.8093,-2.877,-2.9288,-3.0245,-3.0526,-3.0526,-3.0526,-3.0526,-3.0526,-3.0526,-3.0838,-3.1235,-3.1504,-3.1894,-3.2197,-3.2439,-3.2882,-3.313,-3.2952,-3.3296,-3.3551,-3.3429,-3.3452,-3.3661,-3.4148,-3.3586,-3.3212,-3.3318,-3.1864,-3.0659,-2.9933,-2.9823,-2.9839,-2.9988,-3.0212,-3.0354,-3.0428,-3.0691,-3.0828,-3.0828,-3.1588,-3.2482,-3.3441,-3.4179,-3.5022,-1.1047,-1.0498,-0.9969,-0.903,-0.9011,-0.9084,-0.8871,-0.8804,-0.8804,-0.8804,-0.9309,-0.9762,0.0,-1.0364,-1.0813,-1.0914,0.0,0.0,0.0,0.0,0.0,0.0,0.0,0.0,0.0,0.0,0.0,0.0,0.0,0.0,0.0,0.0,0.0,0.0,0.0,-1.4082,-1.5017,-1.5108,-1.5379,-1.5792,-1.5993,-1.6037,-1.5988,-1.6262,-1.6595,-1.6951,-1.7102,-1.7393,-1.7828,-1.8266,-1.85,-1.8592,-1.8936,-1.9101,-1.9174,-1.9856,-2.0132,-2.0349,-2.1569,-2.2033,-2.2164,-2.27,-2.3339,-2.3847,-2.3934,-2.5107,-2.6574,-2.7529,-2.8501,-2.9469,-3.0303,-3.0526,-3.0526,-3.0526,-3.0526,-3.0526,-3.0526,-3.1044,-3.1562,-3.1504,-3.202,-3.2456,-3.2422,-3.3209,-3.3624,-3.2991,-3.3669,-3.4024,-3.3472,-3.3549,-3.3815,-3.4173,-3.4237,-3.3721,-3.2331,-3.1525,-3.075,-2.9952,-2.9959,-2.9972,-3.0007,-3.0826,-3.1325,-3.1408,-3.2269,-3.2699,-3.2699,-3.2958,-3.3541,-3.4408,-3.4542,-3.5055,-1.1343,-1.0883,-1.0434,-0.9643,-0.9499,-0.9457,-0.893,-0.8804,-0.8804,-0.8804,-0.9309,-0.9917,0.0,0.0,-1.194,0.0,0.0,0.0,0.0,0.0,0.0,0.0,0.0,0.0,0.0,0.0,0.0,0.0,0.0,0.0,0.0,0.0,0.0,0.0,0.0,-1.4398,-1.5232,-1.5424,-1.5614,-1.5792,-1.5957,-1.5988,-1.5988,-1.6262,-1.6637,-1.6993,-1.7144,-1.7598,-1.8266,-1.8422,-1.8669,-1.8898,-1.9026,-1.9101,-1.913,-1.9391,-1.9986,-2.0727,-2.1206,-2.1902,-2.2584,-2.2815,-2.3062,-2.3368,-2.3775,-2.5153,-2.6736,-2.7467,-2.8844,-3.0112,-3.0402,-3.0526,-3.0526,-3.0526,-3.0526,-3.0568,-3.0773,-3.1179,-3.1562,-3.1711,-3.2161,-3.2507,-3.2473,-3.2938,-3.3223,-3.2952,-3.3342,-3.3647,-3.3546,-3.3633,-3.3868,-3.434,-3.4092,-3.3445,-3.2257,-3.1562,-3.0801,-2.9933,-2.991,-2.9975,-3.0049,-3.0879,-3.1386,-3.1503,-3.2428,-3.2897,-3.2897,-3.3596,-3.4115,-3.4454,-3.5118,-3.5593,-1.1839,-1.1404,-1.0965,-1.0261,-1.0115,-1.0012,-0.951,-0.9263,-0.9159,-0.9361,-0.9614,-1.0064,-1.0965,0.0,0.0,0.0,0.0,0.0,0.0,0.0,0.0,0.0,0.0,0.0,0.0,0.0,0.0,0.0,0.0,0.0,0.0,0.0,0.0,0.0,0.0,0.0,-1.5344,-1.5546,-1.5736,-1.5925,-1.6001,-1.6044,-1.6088,-1.6306,-1.6637,-1.7089,-1.731,-1.7787,-1.85,-1.863,-1.886,-1.9101,-1.9101,-1.9101,-1.913,-1.9333,-1.9972,-2.077,-2.1177,-2.1888,-2.2627,-2.283,-2.3023,-2.323,-2.3701,-2.4952,-2.6398,-2.7383,-2.8725,-2.9897,-3.0071,-3.0303,-3.0526,-3.0526,-3.0468,-3.0568,-3.0935,-3.1235,-3.1542,-3.1821,-3.2232,-3.2507,-3.2507,-3.2787,-3.2997,-3.2916,-3.3091,-3.3334,-3.3577,-3.368,-3.3862,-3.4139,-3.3844,-3.3148,-3.192,-3.1465,-3.0852,-2.9969,-3.0173,-3.0371,-3.0479,-3.1295,-3.1932,-3.2307,-3.3237,-3.3737,-3.3793,-3.4516,-3.4858,-3.4894,-3.558,-3.5898,-1.2825,-1.219,-1.1665,-1.0965,-1.0813,-1.0813,-1.0813,-1.0269,-1.0012,-1.0661,-1.0261,-1.0218,-1.1566,-1.1266,0.0,0.0,0.0,0.0,0.0,0.0,0.0,0.0,0.0,0.0,0.0,0.0,0.0,0.0,0.0,0.0,0.0,0.0,0.0,0.0,0.0,0.0,-1.5389,-1.5389,-1.5668,-1.62,-1.62,-1.62,-1.62,-1.6362,-1.6693,-1.724,-1.7639,-1.8068,-1.8553,-1.8936,-1.9101,-1.9101,-1.9101,-1.9101,-1.9174,-1.9841,-2.0103,-2.0291,-2.1554,-2.1989,-2.2106,-2.2685,-2.3231,-2.3595,-2.3694,-2.4405,-2.5518,-2.7058,-2.7914,-2.8539,-2.9114,-2.9881,-3.0493,-3.0468,-3.0443,-3.0526,-3.0935,-3.1157,-3.1411,-3.1821,-3.2232,-3.2507,-3.2489,-3.2787,-3.2979,-3.2916,-3.3024,-3.3208,-3.3577,-3.3725,-3.3728,-3.3535,-3.3601,-3.2958,-3.1148,-3.1178,-3.0886,-2.9969,-3.0785,-3.1286,-3.1286,-3.2203,-3.3149,-3.4087,-3.502,-3.5568,-3.5708,-3.5823,-3.5898,-3.5908,-3.5897,-3.5903,-1.351,-1.3491,-1.3443,-1.1895,-1.1855,-1.2092,-1.1607,-1.0618,-1.0012,-1.0661,-1.1015,-1.1316,-1.1715,0.0,0.0,0.0,0.0,0.0,0.0,0.0,0.0,0.0,0.0,0.0,0.0,0.0,0.0,0.0,0.0,0.0,0.0,0.0,0.0,0.0,0.0,0.0,-1.5957,-1.578,-1.5881,-1.62,-1.61,-1.61,-1.62,-1.6362,-1.6808,-1.7557,-1.772,-1.8226,-1.8936,-1.9064,-1.9101,-1.9101,-1.9101,-1.9101,-1.9116,-1.9319,-1.9957,-2.0785,-2.1162,-2.1888,-2.2731,-2.3201,-2.3508,-2.3736,-2.4101,-2.5098,-2.6221,-2.6679,-2.7483,-2.8312,-2.8487,-2.8679,-2.8951,-2.9387,-3.0129,-3.0781,-3.114,-3.1487,-3.1821,-3.2232,-3.2456,-3.2623,-3.2707,-3.2916,-3.3024,-3.2916,-3.3024,-3.325,-3.3698,-3.416,-3.4199,-3.3575,-3.3034,-3.2241,-3.1091,-3.0576,-3.021,-2.9926,-3.0782,-3.1286,-3.1286,-3.2847,-3.3829,-3.4087,-3.5106,-3.5658,-3.5698,-3.5834,-3.5905,-3.5898,-3.5897,-3.5908,-1.46,-1.4839,-1.5001,-1.3344,-1.3433,-1.3562,-1.2472,-1.1566,-1.1141,0.0,-1.1724,-1.1873,-1.2187,0.0,0.0,0.0,0.0,0.0,0.0,0.0,0.0,0.0,0.0,0.0,0.0,0.0,0.0,0.0,0.0,0.0,0.0,0.0,0.0,0.0,0.0,0.0,-1.5869,-1.5724,-1.5869,-1.6275,-1.6219,-1.6219,-1.6318,-1.6552,-1.6964,-1.7516,-1.7908,-1.8461,-1.9101,-1.9101,-1.9101,-1.9101,-1.9101,-1.9101,-1.9101,-1.9101,-1.958,-2.0317,-2.0684,-2.1542,-2.2553,-2.32,-2.3777,-2.4225,-2.4608,-2.544,-2.6341,-2.6694,-2.7279,-2.7756,-2.7717,-2.7869,-2.824,-2.9171,-2.9869,-3.0532,-3.138,-3.1711,-3.1966,-3.2422,-3.2539,-3.2639,-3.2773,-3.2948,-3.3042,-3.2916,-3.3178,-3.3522,-3.3917,-3.4106,-3.3876,-3.3067,-3.2298,-3.1486,-3.0636,-3.0177,-3.0078,-3.0416,-3.1295,-3.1984,-3.2355,-3.348,-3.4288,-3.4655,-3.5353,-3.5737,-3.5784,-3.585,-3.5898,-3.5903,-3.5899,-3.5909,-1.5917,-1.612,-1.6359,-1.5105,-1.5114,-1.4997,-1.3344,-1.3016,-1.3017,-1.2822,0.0,-1.2178,-1.2774,0.0,0.0,0.0,0.0,0.0,0.0,0.0,0.0,0.0,0.0,0.0,0.0,0.0,0.0,0.0,0.0,0.0,0.0,0.0,0.0,0.0,0.0,0.0,-1.5433,-1.5433,-1.58,0.0,-1.6392,-1.6436,-1.6565,-1.6837,-1.7047,-1.7323,-1.8187,-1.8745,-1.9101,-1.9101,-1.9101,-1.9101,-1.9101,-1.9101,-1.9101,-1.9101,-1.9168,-1.9374,-2.0302,-2.1165,-2.2028,-2.2961,-2.4021,-2.4981,-2.5192,-2.5551,-2.6102,-2.6945,-2.709,-2.6977,-2.6918,-2.7277,-2.801,-2.9287,-2.9632,-3.0034,-3.1539,-3.1804,-3.1913,-3.2422,-3.259,-3.2639,-3.2773,-3.2934,-3.3011,-3.2979,-3.3455,-3.3902,-3.408,-3.368,-3.3064,-3.2183,-3.1506,-3.0784,-2.9971,-3.0035,-3.0411,-3.1156,-3.2167,-3.3118,-3.3953,-3.4155,-3.4635,-3.5488,-3.5637,-3.5775,-3.5905,-3.5905,-3.5897,-3.5908,-3.5908,-3.5939,-1.6997,-1.7605,-1.8021,-1.5844,-1.5114,-1.4786,-1.4387,-1.4283,-1.3862,-1.2365,-1.2754,-1.3246,0.0,0.0,0.0,0.0,0.0,0.0,0.0,0.0,0.0,0.0,0.0,0.0,0.0,0.0,0.0,0.0,0.0,0.0,0.0,0.0,0.0,0.0,0.0,-1.5344,-1.5534,-1.5869,-1.6175,0.0,-1.6436,-1.665,-1.7031,-1.6723,-1.7018,-1.772,-1.8592,-1.9026,-1.9101,-1.9101,-1.9101,-1.9101,-1.9101,-1.9101,-1.9101,-1.9213,-1.9708,-2.04,-2.0737,-2.1835,-2.3196,-2.366,-2.4503,-2.5346,-2.5642,-2.5934,-2.6165,-2.6261,-2.6221,-2.611,-2.602,-2.6037,-2.6461,-2.7808,-2.907,-3.0251,-3.1485,-3.2038,-3.237,-3.2539,-3.269,-3.2773,-3.2852,-3.2979,-3.3147,-3.3415,-3.3842,-3.3901,-3.3337,-3.335,-3.2841,-3.1412,-3.1147,-3.0784,-2.9971,-3.0532,-3.1023,-3.1193,-3.2762,-3.3788,-3.3991,-3.4776,-3.5333,-3.5637,-3.5737,-3.5826,-3.5905,-3.5911,-3.5899,-3.5908,-3.5955,-3.5997,-1.9105,-1.9365,-1.9421,-1.7339,-1.6161,-1.5478,-1.5197,-1.5332,-1.5096,-1.3538,-1.3747,0.0,0.0,0.0,0.0,0.0,0.0,0.0,0.0,0.0,0.0,0.0,0.0,0.0,0.0,0.0,0.0,0.0,0.0,0.0,0.0,0.0,0.0,0.0,-1.456,-1.5152,-1.549,-1.568,-1.6001,-1.6436,-1.6436,-1.6693,-1.7199,-1.738,-1.7814,-1.8461,-1.8898,-1.9101,-1.9101,-1.9101,-1.9101,-1.9101,-1.9101,-1.9139,-1.9176,-1.9265,-1.9738,-2.0358,-2.0625,-2.1626,-2.2891,-2.3603,-2.4378,-2.5188,-2.5766,-2.6007,-2.6043,-2.6026,-2.5901,-2.5791,-2.5738,-2.5659,-2.6048,-2.7883,-2.8926,-2.9873,-3.1167,-3.2004,-3.2523,-3.2657,-3.274,-3.287,-3.3055,-3.3268,-3.3484,-3.3788,-3.3998,-3.4024,-3.3844,-3.3567,-3.2956,-3.1788,-3.1351,-3.0818,-2.9967,-3.0324,-3.0961,-3.1857,-3.284,-3.3796,-3.4732,-3.5307,-3.5626,-3.5707,-3.5773,-3.583,-3.5892,-3.5897,-3.5924,-3.5947,-3.597,-3.5994,-2.1024,-2.0688,-2.0124,-1.8695,-1.7476,-1.6497,-1.6027,-1.6225,-1.6194,-1.5209,0.0,0.0,0.0,0.0,0.0,0.0,0.0,0.0,0.0,0.0,0.0,0.0,0.0,0.0,0.0,0.0,0.0,0.0,0.0,0.0,0.0,0.0,-1.3684,-1.3779,-1.4283,-1.4835,-1.5389,-1.549,-1.5812,-1.6392,-1.6565,-1.685,-1.7323,-1.8226,-1.8745,-1.8988,-1.9064,-1.9101,-1.9101,-1.9101,-1.9101,-1.9101,-1.9139,-1.9176,-1.9302,-1.9398,-1.9696,-2.0074,-2.0465,-2.1272,-2.2341,-2.3356,-2.4176,-2.4912,-2.574,-2.5954,-2.5917,-2.5937,-2.5811,-2.5701,-2.5701,-2.5659,-2.6155,-2.807,-2.8812,-2.9522,-3.1094,-3.1892,-3.2431,-3.2755,-3.2838,-3.2979,-3.328,-3.3569,-3.3815,-3.4074,-3.4099,-3.4165,-3.4435,-3.3707,-3.292,-3.2238,-3.1459,-3.0682,-2.9945,-3.0073,-3.0893,-3.2592,-3.2867,-3.3769,-3.5519,-3.5669,-3.5718,-3.5718,-3.5771,-3.5833,-3.5891,-3.5903,-3.5924,-3.6005,-3.5981,-3.5981,-2.0959,-2.0023,-1.9084,-1.8878,-1.7986,-1.7188,0.0,0.0,-1.6466,0.0,0.0,0.0,0.0,0.0,0.0,0.0,0.0,0.0,0.0,0.0,0.0,0.0,0.0,0.0,0.0,0.0,0.0,0.0,0.0,0.0,0.0,-1.3238,-1.3248,-1.3763,-1.4387,-1.4937,-1.5457,-1.6001,-1.6306,-1.6392,-1.7214,-1.7625,-1.776,-1.863,-1.886,-1.8592,-1.8936,-1.9101,-1.9101,-1.9101,-1.9101,-1.9101,-1.9228,-1.9302,-1.9376,-1.9833,-2.0189,-2.0548,-2.0958,-2.1826,-2.288,-2.3506,-2.4312,-2.5174,-2.574,-2.5954,-2.5937,-2.5775,-2.5738,-2.5701,-2.5637,-2.5787,-2.6096,-2.6634,-2.81,-2.9954,-3.1913,-3.1989,-3.1923,-3.2648,-3.3011,-3.3238,-3.3433,-3.3734,-3.3998,-3.4173,-3.4269,-3.4166,-3.3623,-3.2859,-3.209,-3.1351,-3.0551,-3.0037,-2.9907,-3.0703,-3.1634,-3.263,-3.3564,-3.4527,-3.5568,-3.5717,-3.5788,-3.5788,-3.5803,-3.5833,-3.5908,-3.5908,-3.5924,-3.6005,-3.5938,-3.5909,-2.1555,-2.0384,-1.9357,-1.899,-1.8339,-1.7747,-1.7747,-1.7585,-1.7394,0.0,0.0,0.0,0.0,0.0,0.0,0.0,0.0,0.0,0.0,0.0,0.0,0.0,0.0,0.0,0.0,0.0,0.0,0.0,0.0,0.0,-1.4283,-1.4376,-1.4514,-1.4789,-1.5344,-1.58,-1.6076,-1.6231,-1.6436,-1.6752,-1.7462,-1.7948,-1.8226,-1.8822,-1.8988,-1.886,-1.9026,-1.9101,-1.9101,-1.9101,-1.925,-1.9472,-1.953,-1.9732,-2.0015,-2.0292,-2.063,-2.0958,-2.1166,-2.1937,-2.2913,-2.3621,-2.4346,-2.5053,-2.574,-2.5901,-2.5811,-2.5738,-2.568,-2.5659,-2.577,-2.5974,-2.6445,-2.7793,-2.8627,-2.9717,-3.2133,-3.2474,-3.241,-3.2939,-3.325,-3.3541,-3.3807,-3.4023,-3.4197,-3.4293,-3.4363,-3.4173,-3.3496,-3.3145,-3.2524,-3.1345,-3.0905,-3.0503,-3.0057,-3.0422,-3.1288,-3.2788,-3.3315,-3.4225,-3.565,-3.5779,-3.5818,-3.5859,-3.5859,-3.5872,-3.5897,-3.5903,-3.5914,-3.5943,-3.5899,-3.6168,-2.1754,-2.0661,-1.972,-1.9211,-1.8688,-1.8302,0.0,0.0,0.0,0.0,0.0,0.0,0.0,0.0,0.0,0.0,0.0,0.0,0.0,0.0,0.0,0.0,0.0,0.0,0.0,0.0,0.0,0.0,0.0,0.0,-1.4926,-1.5231,-1.541,-1.5543,-1.5976,-1.625,-1.6436,-1.6318,-1.6522,-1.6993,-1.753,-1.8028,-1.85,-1.8898,-1.9101,-1.9101,-1.9101,-1.9176,-1.9273,-1.9273,-1.9515,-1.9925,-1.9965,-2.0208,-2.0548,-2.0697,-2.0958,-2.1246,-2.134,-2.1871,-2.2635,-2.3605,-2.4215,-2.472,-2.5658,-2.5811,-2.5701,-2.568,-2.5696,-2.5749,-2.601,-2.6245,-2.6894,-2.8783,-2.9164,-2.973,-3.2044,-3.2727,-3.2948,-3.316,-3.3484,-3.3834,-3.4074,-3.4197,-3.426,-3.4147,-3.4128,-3.3855,-3.3199,-3.3015,-3.2523,-3.1379,-3.1105,-3.0738,-3.0151,-3.0357,-3.1226,-3.2902,-3.3237,-3.4119,-3.5732,-3.5823,-3.5859,-3.5905,-3.5891,-3.5891,-3.5891,-3.5903,-3.5908,-3.5908,-3.5899,-3.6376,-2.0946,-2.0258,-1.9683,-1.9654,-1.9244,-1.8855,0.0,0.0,0.0,0.0,0.0,0.0,0.0,0.0,0.0,0.0,0.0,0.0,0.0,0.0,0.0,0.0,0.0,0.0,0.0,0.0,0.0,0.0,0.0,0.0,-1.5543,-1.5062,-1.4926,-1.5389,-1.5555,-1.5832,-1.62,-1.6318,-1.6595,-1.6993,-1.753,-1.8028,-1.85,-1.8898,-1.9101,-1.9101,-1.9101,-1.9347,-1.9752,-1.9752,-2.0035,-2.0481,-2.0514,-2.0548,-2.063,-2.1039,-2.123,-2.1309,-2.1528,-2.168,-2.2049,-2.3309,-2.3786,-2.4081,-2.535,-2.5701,-2.5701,-2.5637,-2.5787,-2.601,-2.6158,-2.6624,-2.7324,-2.8308,-2.9408,-3.0495,-3.1533,-3.2517,-3.319,-3.319,-3.3578,-3.3921,-3.4074,-3.4173,-3.4032,-3.3527,-3.335,-3.3032,-3.2448,-3.1638,-3.1147,-3.1195,-3.0586,-3.0151,-3.0109,-3.1028,-3.2008,-3.2941,-3.3897,-3.4842,-3.5752,-3.5852,-3.5905,-3.5905,-3.5903,-3.5908,-3.5908,-3.5908,-3.5908,-3.5889,-3.5908,-3.6375,-2.1515,-2.0857,-2.0243,-1.9794,-1.9566,-1.9406,-1.9406,0.0,0.0,0.0,0.0,0.0,0.0,0.0,0.0,0.0,0.0,0.0,0.0,0.0,0.0,0.0,0.0,0.0,0.0,0.0,0.0,0.0,0.0,0.0,-1.6194,-1.5964,-1.5932,-1.6107,-1.6151,-1.625,-1.6318,-1.6752,-1.7118,-1.7394,-1.8014,-1.85,-1.8898,-1.9026,-1.9139,-1.925,-1.9457,-1.9645,-1.9823,-2.0139,-2.0481,-2.0829,-2.0894,-2.1039,-2.1277,-2.1509,-2.1556,-2.1511,-2.1648,-2.1991,-2.2519,-2.3441,-2.4047,-2.4552,-2.5444,-2.568,-2.5696,-2.5905,-2.6033,-2.6245,-2.6757,-2.7523,-2.8551,-3.0176,-3.1284,-3.2117,-3.2552,-3.2961,-3.3309,-3.3578,-3.3788,-3.3806,-3.351,-3.3506,-3.3336,-3.2604,-3.2574,-3.2352,-3.1563,-3.1259,-3.0968,-3.0532,-3.027,-3.0147,-3.0279,-3.1172,-3.2111,-3.3064,-3.3992,-3.4917,-3.5838,-3.5892,-3.5891,-3.5903,-3.5895,-3.5895,-3.5908,-3.5908,-3.5904,-3.5908,-3.5896,-3.6677,-2.2143,-2.138,-2.0602,0.0,-1.9854,-1.969,-1.969,0.0,0.0,0.0,0.0,0.0,0.0,0.0,0.0,0.0,0.0,0.0,0.0,0.0,0.0,0.0,0.0,0.0,0.0,0.0,0.0,0.0,0.0,0.0,-1.6752,-1.6752,-1.668,-1.6522,-1.6522,-1.6479,-1.6436,-1.7005,-1.7407,-1.776,-1.8305,-1.8784,-1.9176,-1.9101,-1.925,-1.9493,-1.9859,-2.0035,-2.0104,-2.0532,-2.0926,-2.126,-2.1291,-2.1432,-2.1664,-2.1724,-2.1873,-2.2026,-2.2071,-2.2518,-2.3162,-2.3867,-2.4321,-2.4805,-2.5562,-2.5791,-2.5885,-2.6245,-2.6471,-2.6741,-2.7566,-2.8732,-3.0066,-3.15,-3.2419,-3.3086,-3.335,-3.3397,-3.3455,-3.3815,-3.3947,-3.3815,-3.3254,-3.3187,-3.2857,-3.186,-3.1788,-3.1581,-3.0731,-3.0741,-3.076,-3.0552,-3.06,-3.0823,-3.1245,-3.2111,-3.2908,-3.3595,-3.4481,-3.5259,-3.5859,-3.5905,-3.5908,-3.5909,-3.5892,-3.5892,-3.5909,-3.5909,-3.5903,-3.5926,-3.5926,-3.6864,0.0,0.0,0.0,0.0,0.0,0.0,-1.969,0.0,0.0,0.0,0.0,0.0,0.0,0.0,0.0,0.0,0.0,0.0,0.0,0.0,0.0,0.0,0.0,0.0,0.0,0.0,0.0,0.0,0.0,-1.7312,-1.7312,-1.7312,-1.7076,-1.6552,-1.6522,-1.6522,-1.6522,-1.6976,-1.7475,-1.8028,-1.8383,-1.8784,-1.9302,-1.9176,-1.9369,-1.9823,-2.0311,-2.0548,-2.0663,-2.0975,-2.1385,-2.1781,-2.1738,-2.1738,-2.1797,-2.1664,-2.2155,-2.2859,-2.2652,-2.3096,-2.3868,-2.4416,-2.459,-2.4789,-2.5724,-2.612,-2.6298,-2.6641,-2.6987,-2.7539,-2.8495,-3.0238,-3.1798,-3.2072,-3.2679,-3.3339,-3.3815,-3.3753,-3.3671,-3.3868,-3.4055,-3.399,-3.3365,-3.3175,-3.266,-3.1279,-3.1014,-3.0712,-3.0002,-3.0053,-3.0452,-3.1306,-3.1616,-3.2085,-3.2926,-3.3925,-3.4496,-3.4496,-3.5376,-3.5905,-3.5905,-3.5897,-3.5909,-3.59,-3.5903,-3.5903,-3.5903,-3.5903,-3.5946,-3.5991,-3.6013,-3.6911,-2.3339,0.0,0.0,0.0,0.0,0.0,0.0,0.0,0.0,0.0,0.0,0.0,0.0,0.0,0.0,0.0,0.0,0.0,0.0,0.0,0.0,0.0,0.0,0.0,0.0,0.0,0.0,0.0,-1.7947,-1.7867,-1.7867,-1.7504,-1.7229,-1.7076,-1.671,-1.668,-1.7076,-1.7598,-1.804,-1.8422,-1.9026,-1.9302,-1.9302,-1.9302,-1.9581,-2.003,-2.0429,-2.0763,-2.1135,-2.1462,-2.1675,-2.1797,-2.1797,-2.1768,-2.1738,-2.1738,-2.2123,-2.2603,-2.2125,-2.2702,-2.3701,-2.4066,-2.4478,-2.5022,-2.6149,-2.6521,-2.6657,-2.7144,-2.7361,-2.7857,-2.9561,-3.0981,-3.2133,-3.2769,-3.3194,-3.3559,-3.3842,-3.3921,-3.4023,-3.4221,-3.3846,-3.3243,-3.2552,-3.1974,-3.128,-3.0317,-3.0181,-3.017,-3.0053,-3.0628,-3.1193,-3.1572,-3.2223,-3.2786,-3.3122,-3.3974,-3.4523,-3.4559,-3.5405,-3.5892,-3.5897,-3.5895,-3.5903,-3.5904,-3.594,-3.5968,-3.5968,-3.5968,-3.5971,-3.6013,-3.6601,-3.7114,-2.3626,-2.2806,-2.1996,-2.1681,0.0,0.0,-1.9909,-1.9818,0.0,0.0,0.0,0.0,0.0,0.0,0.0,0.0,0.0,0.0,0.0,0.0,0.0,0.0,0.0,0.0,0.0,0.0,0.0,0.0,-1.8574,-1.8419,-1.8419,-1.7947,-1.7626,-1.7626,-1.7353,-1.7312,-1.7626,-1.8159,-1.8511,-1.8717,-1.925,-1.9501,-1.9413,-1.9617,-1.994,-2.0342,-2.0714,-2.1119,-2.1526,-2.1738,-2.1797,-2.1781,-2.1738,-2.1724,-2.1738,-2.1708,-2.2139,-2.2685,-2.2538,-2.3276,-2.4346,-2.4711,-2.5212,-2.5832,-2.6622,-2.6939,-2.7129,-2.7577,-2.8212,-2.9036,-3.0349,-3.1618,-3.2719,-3.3328,-3.3652,-3.3868,-3.4074,-3.4221,-3.4223,-3.3933,-3.353,-3.2884,-3.1825,-3.128,-3.0751,-2.9956,-3.0224,-3.0548,-3.0643,-3.1489,-3.2244,-3.2725,-3.3302,-3.3809,-3.4242,-3.4772,-3.5096,-3.5139,-3.5619,-3.5891,-3.5908,-3.589,-3.5903,-3.5942,-3.5982,-3.5995,-3.5995,-3.5976,-3.5954,-3.5972,-3.6801,-3.7194,-2.4006,-2.2985,-2.2061,-2.2061,0.0,0.0,-2.0404,-2.0142,-1.9908,0.0,0.0,0.0,0.0,0.0,0.0,0.0,0.0,0.0,0.0,0.0,0.0,0.0,0.0,0.0,0.0,0.0,-1.9207,-1.9639,-1.9244,-1.9006,-1.9006,-1.8496,-1.8185,-1.8185,-1.8145,-1.8145,-1.8185,-1.8602,-1.8884,-1.8968,-1.9288,-1.9538,-1.9683,-1.9975,-2.0326,-2.073,-2.1103,-2.1493,-2.1797,-2.1797,-2.1781,-2.1797,-2.1664,-2.1694,-2.1768,-2.1694,-2.2125,-2.2832,-2.3375,-2.4232,-2.5146,-2.5824,-2.6319,-2.6771,-2.71,-2.7365,-2.7619,-2.7922,-2.9176,-3.0463,-3.081,-3.2004,-3.3259,-3.3797,-3.4023,-3.4197,-3.4363,-3.4517,-3.4358,-3.3403,-3.3205,-3.2727,-3.128,-3.094,-3.0692,-3.0151,-3.083,-3.145,-3.156,-3.25,-3.3473,-3.4243,-3.4517,-3.496,-3.5741,-3.5857,-3.5905,-3.5905,-3.5897,-3.5908,-3.5908,-3.5914,-3.5938,-3.5988,-3.5996,-3.5996,-3.5994,-3.5926,-3.5908,-3.5927,-3.6683,-3.7031,-2.5577,-2.496,0.0,0.0,0.0,0.0,-2.1782,-2.1095,-2.0459,0.0,0.0,0.0,0.0,0.0,0.0,0.0,0.0,0.0,0.0,0.0,0.0,0.0,0.0,0.0,0.0,0.0,-1.9603,-1.969,-1.9603,-1.953,-1.953,-1.9043,-1.8727,-1.8727,-1.8341,-1.8302,-1.8727,-1.8817,-1.9072,-1.945,-1.9581,-1.9782,-2.0085,-2.0154,-2.0581,-2.1261,-2.1261,-2.1479,-2.1797,-2.1738,-2.1738,-2.1797,-2.1768,-2.1738,-2.1738,-2.1869,-2.2184,-2.2654,-2.324,-2.3712,-2.4298,-2.5635,-2.6079,-2.6293,-2.7467,-2.7864,-2.7922,-2.8126,-2.8859,-2.9819,-3.0684,-3.1728,-3.2794,-3.3806,-3.4197,-3.4386,-3.4517,-3.4666,-3.4502,-3.3615,-3.2919,-3.2204,-3.1312,-3.0591,-3.0338,-3.1016,-3.1274,-3.1705,-3.2579,-3.3536,-3.4207,-3.4445,-3.5122,-3.5652,-3.5864,-3.5898,-3.5892,-3.5897,-3.5908,-3.5908,-3.5908,-3.5947,-3.5955,-3.5924,-3.5912,-3.5913,-3.592,-3.5909,-3.5895,-3.5898,-3.6068,-3.6129,0.0,0.0,0.0,-2.4593,0.0,0.0,0.0,-2.1895,-2.1307,0.0,0.0,0.0,0.0,0.0,0.0,0.0,0.0,0.0,0.0,0.0,0.0,0.0,0.0,0.0,0.0,0.0,-2.0,-2.0,-2.0208,-2.0154,-1.9711,-1.963,-1.9507,-1.9332,-1.9043,-1.9043,-1.9281,-1.9281,-1.942,-1.9632,-1.9874,-2.007,-2.0208,-2.0632,-2.1039,-2.1371,-2.1509,-2.1678,-2.1797,-2.1768,-2.1768,-2.1781,-2.1724,-2.1939,-2.2314,-2.2495,-2.2884,-2.3372,-2.3793,-2.4388,-2.5048,-2.5842,-2.6509,-2.7134,-2.7787,-2.8042,-2.8126,-2.8182,-2.8863,-2.9683,-3.0287,-3.155,-3.2815,-3.3491,-3.3792,-3.3984,-3.4026,-3.4147,-3.3999,-3.3129,-3.2977,-3.275,-3.1934,-3.149,-3.1435,-3.1962,-3.2499,-3.3041,-3.3625,-3.4516,-3.5113,-3.5189,-3.5597,-3.5864,-3.5905,-3.5905,-3.5891,-3.5908,-3.5908,-3.5908,-3.5908,-3.5923,-3.5921,-3.5903,-3.5901,-3.5891,-3.5896,-3.5866,-3.584,-3.5857,-3.5857,-3.5838,0.0,0.0,0.0,0.0,0.0,-2.3661,0.0,0.0,0.0,0.0,0.0,0.0,0.0,0.0,0.0,0.0,0.0,0.0,0.0,0.0,0.0,0.0,0.0,0.0,0.0,0.0,-2.0449,-2.0449,-2.0797,-2.0698,-1.998,-2.0261,-2.0261,-1.9854,-1.9909,-1.9925,-1.9818,-1.9925,-1.9945,-1.9945,-2.0296,-2.0431,-2.0465,-2.1166,-2.1479,-2.1433,-2.1751,-2.1899,-2.1869,-2.1869,-2.1928,-2.1957,-2.1724,-2.2071,-2.2737,-2.2906,-2.3287,-2.3804,-2.4305,-2.4986,-2.5732,-2.6115,-2.7098,-2.8099,-2.8071,-2.8126,-2.8209,-2.8237,-2.8847,-2.96,-3.0173,-3.1489,-3.2818,-3.3362,-3.3498,-3.3505,-3.3525,-3.3488,-3.3297,-3.2747,-3.3239,-3.3409,-3.2384,-3.2444,-3.2588,-3.2511,-3.3535,-3.4284,-3.4196,-3.515,-3.5779,-3.5652,-3.5795,-3.5905,-3.5908,-3.5908,-3.5908,-3.5908,-3.5908,-3.5894,-3.5909,-3.5903,-3.5898,-3.5903,-3.5905,-3.5896,-3.5877,-3.5838,-3.5799,-3.5799,-3.5799,-3.5799,0.0,0.0,0.0,0.0,-2.6062,0.0,0.0,0.0,0.0,0.0,0.0,0.0,0.0,0.0,0.0,0.0,0.0,0.0,0.0,0.0,0.0,0.0,0.0,0.0,0.0,0.0,0.0,-2.0926,-2.0959,-2.0975,-2.0878,-2.0894,-2.0731,-2.0246,-2.0632,-2.0665,-2.0261,-2.0616,-2.0862,-2.0862,-2.0894,-2.1055,-2.1354,-2.1401,-2.157,-2.184,-2.1811,-2.194,-2.2136,-2.2136,-2.232,-2.2527,-2.1986,-2.1919,-2.2132,-2.2383,-2.2485,-2.2671,-2.3884,-2.4234,-2.4441,-2.6214,-2.7441,-2.82,-2.8182,-2.8182,-2.8237,-2.8432,-2.8539,-2.9072,-3.1015,-3.1672,-3.2311,-3.4177,-3.4051,-3.3525,-3.3658,-3.307,-3.2747,-3.343,-3.3726,-3.3372,-3.1794,-3.2172,-3.2486,-3.1907,-3.3268,-3.4151,-3.3517,-3.486,-3.5611,-3.4831,-3.5435,-3.5903,-3.5908,-3.5908,-3.5908,-3.5908,-3.5908,-3.5899,-3.5901,-3.5894,-3.5899,-3.5896,-3.5904,-3.5877,-3.5818,-3.5799,-3.5799,-3.5799,-3.5799,-3.5799,0.0,0.0,0.0,0.0,0.0,0.0,-2.5728,0.0,-2.4862,0.0,0.0,0.0,0.0,0.0,0.0,0.0,0.0,0.0,0.0,0.0,0.0,0.0,0.0,0.0,0.0,0.0,0.0,0.0,0.0,-2.1524,-2.1039,-2.1213,-2.1359,-2.1318,-2.155,-2.1757,-2.1985,-2.1757,-2.1632,-2.1648,-2.1391,-2.1323,-2.1432,-2.1645,-2.1794,-2.1899,-2.1869,-2.201,-2.2313,-2.222,-2.2439,-2.273,-2.2422,-2.2613,-2.314,-2.3815,-2.4053,-2.4153,-2.4943,-2.5445,-2.5932,-2.7335,-2.8022,-2.8345,-2.8458,-2.8484,-2.8518,-2.8682,-2.8827,-2.9223,-3.0639,-3.1147,-3.165,-3.3014,-3.2732,-3.2182,-3.2237,-3.233,-3.2519,-3.2985,-3.3473,-3.3513,-3.2493,-3.3057,-3.3369,-3.2619,-3.3231,-3.3835,-3.4035,-3.4695,-3.5207,-3.5343,-3.5675,-3.5908,-3.5908,-3.5908,-3.5908,-3.5908,-3.5908,-3.5888,-3.5849,-3.5845,-3.5844,-3.5838,-3.5838,-3.5838,-3.5799,-3.5799,-3.5799,-3.5799,-3.5799,-3.5799,-2.6691,0.0,0.0,0.0,0.0,0.0,0.0,0.0,0.0,0.0,0.0,0.0,0.0,0.0,0.0,-2.2488,0.0,0.0,0.0,0.0,0.0,0.0,0.0,0.0,0.0,0.0,0.0,0.0,0.0,0.0,-2.1385,-2.1628,-2.1958,-2.2248,-2.2394,-2.2752,-2.3381,-2.2981,-2.2753,-2.2737,-2.2454,-2.2285,-2.2207,-2.2282,-2.2387,-2.2482,-2.2166,-2.231,-2.2767,-2.2561,-2.2712,-2.3038,-2.2989,-2.3315,-2.3911,-2.4725,-2.5244,-2.5544,-2.5818,-2.643,-2.7191,-2.8076,-2.8406,-2.851,-2.8619,-2.8718,-2.8773,-2.8906,-2.9248,-2.9734,-3.0437,-3.1145,-3.1789,-3.2241,-3.1918,-3.1478,-3.125,-3.1495,-3.1884,-3.221,-3.2783,-3.3105,-3.2739,-3.339,-3.3625,-3.2602,-3.3135,-3.3718,-3.3882,-3.4525,-3.5109,-3.5499,-3.5752,-3.5908,-3.5908,-3.5908,-3.5904,-3.5896,-3.5891,-3.5873,-3.5825,-3.58,-3.5795,-3.5799,-3.5799,-3.5799,-3.5799,-3.5799,-3.5799,-3.5799,-3.5799,-3.5799,0.0,0.0,0.0,-2.6691,0.0,0.0,0.0,0.0,-2.7502,0.0,0.0,0.0,0.0,0.0,-2.4425,-2.4408,-2.3816,0.0,0.0,0.0,0.0,0.0,0.0,0.0,0.0,0.0,0.0,0.0,0.0,0.0,-2.2254,-2.2282,-2.2396,-2.2681,-2.3103,-2.3519,-2.3869,-2.4223,-2.4411,-2.4411,-2.4334,-2.4303,-2.4267,-2.3435,-2.341,-2.3964,-2.2846,-2.2914,-2.3725,-2.339,-2.3417,-2.3678,-2.3678,-2.3718,-2.3865,-2.4271,-2.5077,-2.5978,-2.5978,-2.653,-2.7327,-2.8058,-2.8466,-2.8669,-2.8601,-2.8743,-2.8934,-2.906,-2.9761,-3.0519,-3.0807,-3.2147,-3.3242,-3.256,-3.2387,-3.216,-3.1383,-3.0665,-3.0418,-3.1257,-3.1623,-3.1786,-3.1826,-3.2561,-3.2598,-3.1015,-3.2925,-3.3979,-3.2387,-3.433,-3.5558,-3.472,-3.5402,-3.5908,-3.5908,-3.5908,-3.59,-3.5896,-3.5899,-3.5904,-3.5904,-3.5838,-3.5799,-3.5799,-3.5799,-3.5799,-3.5799,-3.5799,-3.5799,-3.5799,-3.5799,-3.5799,0.0,0.0,-2.7019,-2.6758,0.0,0.0,0.0,0.0,0.0,0.0,0.0,0.0,0.0,-2.5406,-2.5067,-2.4591,-2.4272,-2.3951,0.0,0.0,0.0,0.0,0.0,0.0,0.0,0.0,0.0,0.0,0.0,0.0,0.0,-2.3079,-2.3528,-2.39,-2.4515,-2.5139,-2.5732,-2.5392,-2.5205,-2.5173,-2.4652,-2.4492,-2.4577,-2.4386,-2.4504,-2.4879,-2.45,-2.4305,-2.4314,-2.4109,-2.3914,-2.3771,-2.3765,-2.4111,-2.4603,-2.4756,-2.4685,-2.4685,-2.5749,-2.6658,-2.7477,-2.8415,-2.8743,-2.8863,-2.9075,-2.9185,-2.927,-2.9455,-2.9738,-3.0114,-3.0865,-3.107,-3.12,-3.1536,-3.1174,-3.0698,-3.0513,-3.0727,-3.1083,-3.1532,-3.1653,-3.1748,-3.1911,-3.17,-3.1333,-3.0842,-3.1509,-3.2294,-3.2869,-3.3662,-3.4514,-3.5363,-3.5713,-3.5908,-3.5908,-3.5907,-3.5898,-3.5893,-3.5896,-3.5875,-3.5838,-3.5818,-3.5799,-3.5799,-3.5799,-3.5799,-3.5799,-3.5799,-3.5799,-3.5799,-3.5799,-3.5799,-2.6691,-2.6906,0.0,-2.6939,-2.7115,0.0,-2.6971,0.0,0.0,0.0,0.0,0.0,0.0,0.0,-2.5926,-2.5756,-2.5251,-2.4672,0.0,-2.411,0.0,0.0,0.0,0.0,0.0,0.0,0.0,0.0,0.0,0.0,0.0,0.0,-2.4199,-2.4856,-2.5343,-2.6012,-2.6889,-2.6283,-2.603,-2.6095,-2.5492,-2.538,-2.5772,-2.5441,-2.5576,-2.6048,-2.564,-2.5285,-2.4955,-2.4694,-2.4464,-2.423,-2.4245,-2.4715,-2.5389,-2.5113,-2.5085,-2.5372,-2.6718,-2.7523,-2.8104,-2.8727,-2.8984,-2.9115,-2.9312,-2.9453,-2.9531,-2.9663,-2.9924,-3.0243,-3.0541,-3.0708,-3.0781,-3.0741,-3.0549,-3.0392,-3.0524,-3.0791,-3.1149,-3.1641,-3.1526,-3.1385,-3.1521,-3.1351,-3.1115,-3.0838,-3.132,-3.2124,-3.3259,-3.3877,-3.465,-3.5772,-3.589,-3.5908,-3.59,-3.5897,-3.5903,-3.5899,-3.5908,-3.5872,-3.5799,-3.5799,-3.5954,-3.6265,-3.5954,-3.5954,-3.6265,-3.5954,-3.5799,-3.5807,-3.5807,-3.5815]}]]